Ticket #13993: 2016-11-17-Current.gpx
| File 2016-11-17-Current.gpx, 288.6 KB (added by , 9 years ago) |
|---|
| Line | |
|---|---|
| 1 | <?xml version="1.0" encoding="UTF-8" standalone="no" ?><gpx xmlns="http://www.topografix.com/GPX/1/1" xmlns:gpxx="http://www.garmin.com/xmlschemas/GpxExtensions/v3" xmlns:gpxtrkx="http://www.garmin.com/xmlschemas/TrackStatsExtension/v1" xmlns:wptx1="http://www.garmin.com/xmlschemas/WaypointExtension/v1" xmlns:gpxtpx="http://www.garmin.com/xmlschemas/TrackPointExtension/v1" creator="eTrex 30" version="1.1" xmlns:xsi="http://www.w3.org/2001/XMLSchema-instance" xsi:schemaLocation="http://www.topografix.com/GPX/1/1 http://www.topografix.com/GPX/1/1/gpx.xsd http://www.garmin.com/xmlschemas/GpxExtensions/v3 http://www8.garmin.com/xmlschemas/GpxExtensionsv3.xsd http://www.garmin.com/xmlschemas/TrackStatsExtension/v1 http://www8.garmin.com/xmlschemas/TrackStatsExtension.xsd http://www.garmin.com/xmlschemas/WaypointExtension/v1 http://www8.garmin.com/xmlschemas/WaypointExtensionv1.xsd http://www.garmin.com/xmlschemas/TrackPointExtension/v1 http://www.garmin.com/xmlschemas/TrackPointExtensionv1.xsd"><metadata><link href="http://www.garmin.com"><text>Garmin International</text></link><time>2016-11-17T09:25:00Z</time></metadata><trk><name>Current Track: 17 NOV 2016 10:07</name><extensions><gpxx:TrackExtension><gpxx:DisplayColor>Cyan</gpxx:DisplayColor></gpxx:TrackExtension></extensions><trkseg><trkpt lat="-27.4319699127" lon="152.9002249427"><ele>120.30</ele><time>2016-11-17T00:07:17Z</time></trkpt><trkpt lat="-27.4321984872" lon="152.9001579713"><ele>127.03</ele><time>2016-11-17T00:07:25Z</time></trkpt><trkpt lat="-27.4322220404" lon="152.9001531936"><ele>127.03</ele><time>2016-11-17T00:07:26Z</time></trkpt><trkpt lat="-27.4322579149" lon="152.9001471587"><ele>132.32</ele><time>2016-11-17T00:07:29Z</time></trkpt><trkpt lat="-27.4322687276" lon="152.9001481645"><ele>137.61</ele><time>2016-11-17T00:07:30Z</time></trkpt><trkpt lat="-27.4322761875" lon="152.9001521040"><ele>137.61</ele><time>2016-11-17T00:07:31Z</time></trkpt><trkpt lat="-27.4322946277" lon="152.9001610726"><ele>140.49</ele><time>2016-11-17T00:07:34Z</time></trkpt><trkpt lat="-27.4323052727" lon="152.9001614079"><ele>145.30</ele><time>2016-11-17T00:07:36Z</time></trkpt><trkpt lat="-27.4323084578" lon="152.9001613241"><ele>149.62</ele><time>2016-11-17T00:07:37Z</time></trkpt><trkpt lat="-27.4323135708" lon="152.9001642577"><ele>149.62</ele><time>2016-11-17T00:07:39Z</time></trkpt><trkpt lat="-27.4323135708" lon="152.9001728911"><ele>157.79</ele><time>2016-11-17T00:07:43Z</time></trkpt><trkpt lat="-27.4323136546" lon="152.9001727235"><ele>158.75</ele><time>2016-11-17T00:07:46Z</time></trkpt><trkpt lat="-27.4323038477" lon="152.9001717176"><ele>162.60</ele><time>2016-11-17T00:07:47Z</time></trkpt><trkpt lat="-27.4323007464" lon="152.9001712985"><ele>162.60</ele><time>2016-11-17T00:07:49Z</time></trkpt><trkpt lat="-27.4322958849" lon="152.9001639225"><ele>164.52</ele><time>2016-11-17T00:07:52Z</time></trkpt><trkpt lat="-27.4322968069" lon="152.9001606535"><ele>170.77</ele><time>2016-11-17T00:07:54Z</time></trkpt><trkpt lat="-27.4322963040" lon="152.9001584742"><ele>170.77</ele><time>2016-11-17T00:07:55Z</time></trkpt><trkpt lat="-27.4322932865" lon="152.9001517687"><ele>177.02</ele><time>2016-11-17T00:07:58Z</time></trkpt></trkseg><trkseg><trkpt lat="-27.4322925322" lon="152.9001479130"><ele>282.28</ele><time>2016-11-17T00:08:03Z</time></trkpt><trkpt lat="-27.4322950467" lon="152.9001498409"><ele>221.24</ele><time>2016-11-17T00:08:07Z</time></trkpt><trkpt lat="-27.4322976451" lon="152.9001557082"><ele>221.24</ele><time>2016-11-17T00:08:09Z</time></trkpt><trkpt lat="-27.4322779477" lon="152.9002028145"><ele>221.72</ele><time>2016-11-17T00:08:30Z</time></trkpt><trkpt lat="-27.4322600942" lon="152.9001885653"><ele>221.72</ele><time>2016-11-17T00:08:47Z</time></trkpt><trkpt lat="-27.4322834797" lon="152.9002279602"><ele>221.72</ele><time>2016-11-17T00:09:17Z</time></trkpt><trkpt lat="-27.4322869163" lon="152.9002086818"><ele>221.72</ele><time>2016-11-17T00:09:36Z</time></trkpt><trkpt lat="-27.4322633632" lon="152.9001887329"><ele>221.72</ele><time>2016-11-17T00:09:56Z</time></trkpt><trkpt lat="-27.4322756846" lon="152.9001681134"><ele>221.72</ele><time>2016-11-17T00:10:10Z</time></trkpt><trkpt lat="-27.4322927836" lon="152.9001748189"><ele>221.72</ele><time>2016-11-17T00:10:24Z</time></trkpt><trkpt lat="-27.4323031772" lon="152.9001782555"><ele>222.20</ele><time>2016-11-17T00:10:38Z</time></trkpt><trkpt lat="-27.4323559832" lon="152.9001811892"><ele>222.20</ele><time>2016-11-17T00:11:01Z</time></trkpt><trkpt lat="-27.4323264789" lon="152.9001562949"><ele>222.20</ele><time>2016-11-17T00:11:25Z</time></trkpt><trkpt lat="-27.4323045183" lon="152.9001684487"><ele>222.20</ele><time>2016-11-17T00:11:46Z</time></trkpt><trkpt lat="-27.4323121458" lon="152.9001785908"><ele>221.24</ele><time>2016-11-17T00:11:51Z</time></trkpt><trkpt lat="-27.4323185161" lon="152.9001631681"><ele>221.24</ele><time>2016-11-17T00:12:09Z</time></trkpt><trkpt lat="-27.4323097151" lon="152.9001741484"><ele>223.16</ele><time>2016-11-17T00:12:24Z</time></trkpt><trkpt lat="-27.4323131517" lon="152.9002210032"><ele>221.24</ele><time>2016-11-17T00:12:33Z</time></trkpt><trkpt lat="-27.4323460087" lon="152.9002539441"><ele>221.24</ele><time>2016-11-17T00:12:40Z</time></trkpt><trkpt lat="-27.4323534686" lon="152.9002820235"><ele>222.68</ele><time>2016-11-17T00:12:42Z</time></trkpt><trkpt lat="-27.4323970545" lon="152.9003888927"><ele>222.68</ele><time>2016-11-17T00:12:51Z</time></trkpt><trkpt lat="-27.4324125610" lon="152.9004256055"><ele>222.68</ele><time>2016-11-17T00:12:55Z</time></trkpt><trkpt lat="-27.4324169196" lon="152.9004515894"><ele>223.16</ele><time>2016-11-17T00:12:57Z</time></trkpt><trkpt lat="-27.4324994814" lon="152.9005758930"><ele>223.16</ele><time>2016-11-17T00:13:07Z</time></trkpt><trkpt lat="-27.4325481802" lon="152.9006121028"><ele>224.61</ele><time>2016-11-17T00:13:13Z</time></trkpt><trkpt lat="-27.4326194264" lon="152.9006768111"><ele>226.05</ele><time>2016-11-17T00:13:22Z</time></trkpt><trkpt lat="-27.4326225277" lon="152.9007304553"><ele>226.05</ele><time>2016-11-17T00:13:28Z</time></trkpt><trkpt lat="-27.4326125532" lon="152.9007696826"><ele>226.05</ele><time>2016-11-17T00:13:35Z</time></trkpt><trkpt lat="-27.4326505233" lon="152.9007770587"><ele>226.53</ele><time>2016-11-17T00:13:42Z</time></trkpt><trkpt lat="-27.4327134714" lon="152.9008229077"><ele>227.49</ele><time>2016-11-17T00:13:50Z</time></trkpt><trkpt lat="-27.4327537883" lon="152.9008461256"><ele>227.01</ele><time>2016-11-17T00:13:57Z</time></trkpt><trkpt lat="-27.4327665288" lon="152.9008540045"><ele>227.01</ele><time>2016-11-17T00:14:01Z</time></trkpt><trkpt lat="-27.4328243639" lon="152.9008922260"><ele>227.01</ele><time>2016-11-17T00:14:10Z</time></trkpt><trkpt lat="-27.4328060914" lon="152.9009483010"><ele>227.49</ele><time>2016-11-17T00:14:28Z</time></trkpt><trkpt lat="-27.4327780120" lon="152.9009767994"><ele>227.49</ele><time>2016-11-17T00:14:49Z</time></trkpt><trkpt lat="-27.4328044988" lon="152.9009893723"><ele>227.49</ele><time>2016-11-17T00:14:58Z</time></trkpt><trkpt lat="-27.4328696262" lon="152.9010181222"><ele>228.93</ele><time>2016-11-17T00:15:05Z</time></trkpt><trkpt lat="-27.4329404533" lon="152.9010479618"><ele>229.41</ele><time>2016-11-17T00:15:12Z</time></trkpt><trkpt lat="-27.4330096040" lon="152.9011110775"><ele>231.81</ele><time>2016-11-17T00:15:19Z</time></trkpt><trkpt lat="-27.4330676068" lon="152.9011565074"><ele>231.81</ele><time>2016-11-17T00:15:24Z</time></trkpt><trkpt lat="-27.4331013858" lon="152.9011786357"><ele>231.81</ele><time>2016-11-17T00:15:27Z</time></trkpt><trkpt lat="-27.4331357516" lon="152.9011938907"><ele>231.81</ele><time>2016-11-17T00:15:33Z</time></trkpt><trkpt lat="-27.4332167208" lon="152.9012395721"><ele>229.89</ele><time>2016-11-17T00:15:41Z</time></trkpt><trkpt lat="-27.4333204888" lon="152.9012798052"><ele>228.45</ele><time>2016-11-17T00:15:51Z</time></trkpt><trkpt lat="-27.4334426969" lon="152.9013004247"><ele>228.45</ele><time>2016-11-17T00:15:59Z</time></trkpt><trkpt lat="-27.4335385021" lon="152.9013318568"><ele>227.97</ele><time>2016-11-17T00:16:08Z</time></trkpt><trkpt lat="-27.4335675873" lon="152.9013482016"><ele>227.97</ele><time>2016-11-17T00:16:25Z</time></trkpt><trkpt lat="-27.4336288590" lon="152.9013666417"><ele>227.49</ele><time>2016-11-17T00:16:32Z</time></trkpt><trkpt lat="-27.4336839281" lon="152.9013874289"><ele>226.05</ele><time>2016-11-17T00:16:37Z</time></trkpt><trkpt lat="-27.4337765481" lon="152.9013805557"><ele>225.57</ele><time>2016-11-17T00:16:45Z</time></trkpt><trkpt lat="-27.4338908773" lon="152.9013139196"><ele>224.61</ele><time>2016-11-17T00:16:56Z</time></trkpt><trkpt lat="-27.4339001812" lon="152.9013097286"><ele>224.61</ele><time>2016-11-17T00:16:57Z</time></trkpt><trkpt lat="-27.4339824077" lon="152.9012546595"><ele>223.16</ele><time>2016-11-17T00:17:05Z</time></trkpt><trkpt lat="-27.4341028556" lon="152.9011768755"><ele>221.24</ele><time>2016-11-17T00:17:16Z</time></trkpt><trkpt lat="-27.4342156760" lon="152.9011136759"><ele>219.80</ele><time>2016-11-17T00:17:26Z</time></trkpt><trkpt lat="-27.4342373852" lon="152.9010997619"><ele>219.32</ele><time>2016-11-17T00:17:28Z</time></trkpt><trkpt lat="-27.4342590943" lon="152.9010940623"><ele>218.84</ele><time>2016-11-17T00:17:30Z</time></trkpt><trkpt lat="-27.4343640357" lon="152.9010197148"><ele>217.40</ele><time>2016-11-17T00:17:41Z</time></trkpt><trkpt lat="-27.4344384670" lon="152.9009775538"><ele>215.47</ele><time>2016-11-17T00:17:49Z</time></trkpt><trkpt lat="-27.4345867429" lon="152.9009158630"><ele>213.07</ele><time>2016-11-17T00:18:01Z</time></trkpt><trkpt lat="-27.4346905109" lon="152.9008815810"><ele>212.11</ele><time>2016-11-17T00:18:10Z</time></trkpt><trkpt lat="-27.4348187540" lon="152.9008222371"><ele>210.19</ele><time>2016-11-17T00:18:21Z</time></trkpt><trkpt lat="-27.4349084403" lon="152.9007482249"><ele>208.74</ele><time>2016-11-17T00:18:30Z</time></trkpt><trkpt lat="-27.4349920917" lon="152.9006269388"><ele>206.82</ele><time>2016-11-17T00:18:41Z</time></trkpt><trkpt lat="-27.4350163992" lon="152.9005978536"><ele>205.86</ele><time>2016-11-17T00:18:47Z</time></trkpt><trkpt lat="-27.4350858852" lon="152.9005187284"><ele>205.38</ele><time>2016-11-17T00:18:55Z</time></trkpt><trkpt lat="-27.4352039862" lon="152.9004268628"><ele>204.42</ele><time>2016-11-17T00:19:06Z</time></trkpt><trkpt lat="-27.4352593068" lon="152.9003503360"><ele>203.94</ele><time>2016-11-17T00:19:14Z</time></trkpt><trkpt lat="-27.4353392702" lon="152.9002628289"><ele>203.46</ele><time>2016-11-17T00:19:23Z</time></trkpt><trkpt lat="-27.4354303814" lon="152.9001975339"><ele>202.98</ele><time>2016-11-17T00:19:31Z</time></trkpt><trkpt lat="-27.4355116021" lon="152.9001379386"><ele>202.98</ele><time>2016-11-17T00:19:38Z</time></trkpt><trkpt lat="-27.4356518313" lon="152.9000555445"><ele>202.98</ele><time>2016-11-17T00:19:49Z</time></trkpt><trkpt lat="-27.4357704353" lon="152.8999790177"><ele>202.98</ele><time>2016-11-17T00:20:00Z</time></trkpt><trkpt lat="-27.4358635582" lon="152.8999402933"><ele>202.98</ele><time>2016-11-17T00:20:08Z</time></trkpt><trkpt lat="-27.4358872790" lon="152.8999367729"><ele>202.98</ele><time>2016-11-17T00:20:10Z</time></trkpt><trkpt lat="-27.4360073078" lon="152.8999149799"><ele>202.98</ele><time>2016-11-17T00:20:19Z</time></trkpt><trkpt lat="-27.4361365568" lon="152.8998870682"><ele>202.49</ele><time>2016-11-17T00:20:29Z</time></trkpt><trkpt lat="-27.4361982476" lon="152.8998596594"><ele>202.98</ele><time>2016-11-17T00:20:35Z</time></trkpt><trkpt lat="-27.4362508859" lon="152.8998268861"><ele>200.57</ele><time>2016-11-17T00:20:41Z</time></trkpt><trkpt lat="-27.4362881854" lon="152.8998085298"><ele>199.13</ele><time>2016-11-17T00:20:45Z</time></trkpt><trkpt lat="-27.4362935498" lon="152.8998044226"><ele>202.01</ele><time>2016-11-17T00:20:47Z</time></trkpt><trkpt lat="-27.4362949748" lon="152.8998024110"><ele>200.09</ele><time>2016-11-17T00:20:49Z</time></trkpt><trkpt lat="-27.4363484513" lon="152.8997698054"><ele>199.61</ele><time>2016-11-17T00:20:56Z</time></trkpt><trkpt lat="-27.4364663847" lon="152.8996892553"><ele>198.17</ele><time>2016-11-17T00:21:06Z</time></trkpt><trkpt lat="-27.4365807138" lon="152.8996119741"><ele>196.73</ele><time>2016-11-17T00:21:16Z</time></trkpt><trkpt lat="-27.4365895148" lon="152.8996055201"><ele>196.25</ele><time>2016-11-17T00:21:17Z</time></trkpt><trkpt lat="-27.4367501121" lon="152.8995609283"><ele>193.84</ele><time>2016-11-17T00:21:30Z</time></trkpt><trkpt lat="-27.4367714860" lon="152.8995581623"><ele>193.84</ele><time>2016-11-17T00:21:32Z</time></trkpt><trkpt lat="-27.4368366133" lon="152.8995590843"><ele>192.88</ele><time>2016-11-17T00:21:37Z</time></trkpt><trkpt lat="-27.4369627610" lon="152.8996085376"><ele>191.92</ele><time>2016-11-17T00:21:47Z</time></trkpt><trkpt lat="-27.4370620865" lon="152.8996133991"><ele>191.44</ele><time>2016-11-17T00:21:55Z</time></trkpt><trkpt lat="-27.4371656030" lon="152.8996007424"><ele>191.44</ele><time>2016-11-17T00:22:03Z</time></trkpt><trkpt lat="-27.4373277090" lon="152.8995636106"><ele>191.44</ele><time>2016-11-17T00:22:15Z</time></trkpt><trkpt lat="-27.4374144617" lon="152.8995431587"><ele>192.40</ele><time>2016-11-17T00:22:22Z</time></trkpt><trkpt lat="-27.4375720415" lon="152.8995026741"><ele>193.84</ele><time>2016-11-17T00:22:35Z</time></trkpt><trkpt lat="-27.4376654159" lon="152.8994740918"><ele>193.84</ele><time>2016-11-17T00:22:43Z</time></trkpt><trkpt lat="-27.4377825949" lon="152.8994572442"><ele>193.84</ele><time>2016-11-17T00:22:53Z</time></trkpt><trkpt lat="-27.4378842674" lon="152.8994463477"><ele>192.40</ele><time>2016-11-17T00:23:01Z</time></trkpt><trkpt lat="-27.4380201381" lon="152.8994288296"><ele>190.96</ele><time>2016-11-17T00:23:12Z</time></trkpt><trkpt lat="-27.4381154403" lon="152.8994264826"><ele>190.00</ele><time>2016-11-17T00:23:20Z</time></trkpt><trkpt lat="-27.4382427614" lon="152.8994538076"><ele>189.52</ele><time>2016-11-17T00:23:30Z</time></trkpt><trkpt lat="-27.4382713437" lon="152.8994577471"><ele>189.52</ele><time>2016-11-17T00:23:33Z</time></trkpt><trkpt lat="-27.4383362196" lon="152.8994564898"><ele>189.52</ele><time>2016-11-17T00:23:38Z</time></trkpt><trkpt lat="-27.4384436756" lon="152.8994603455"><ele>189.52</ele><time>2016-11-17T00:23:47Z</time></trkpt><trkpt lat="-27.4385088030" lon="152.8994644526"><ele>190.96</ele><time>2016-11-17T00:23:53Z</time></trkpt><trkpt lat="-27.4385166820" lon="152.8994642850"><ele>190.96</ele><time>2016-11-17T00:23:54Z</time></trkpt><trkpt lat="-27.4386481941" lon="152.8994976450"><ele>191.44</ele><time>2016-11-17T00:24:05Z</time></trkpt><trkpt lat="-27.4387737550" lon="152.8995091282"><ele>191.44</ele><time>2016-11-17T00:24:14Z</time></trkpt><trkpt lat="-27.4388864078" lon="152.8995280713"><ele>191.92</ele><time>2016-11-17T00:24:23Z</time></trkpt><trkpt lat="-27.4388962984" lon="152.8995340224"><ele>193.84</ele><time>2016-11-17T00:24:24Z</time></trkpt><trkpt lat="-27.4389967974" lon="152.8995953780"><ele>190.96</ele><time>2016-11-17T00:24:35Z</time></trkpt><trkpt lat="-27.4391170777" lon="152.8996475134"><ele>190.48</ele><time>2016-11-17T00:24:45Z</time></trkpt><trkpt lat="-27.4392168224" lon="152.8997181728"><ele>189.52</ele><time>2016-11-17T00:24:53Z</time></trkpt><trkpt lat="-27.4393000547" lon="152.8997870721"><ele>188.56</ele><time>2016-11-17T00:25:02Z</time></trkpt><trkpt lat="-27.4394051638" lon="152.8997860663"><ele>188.08</ele><time>2016-11-17T00:25:10Z</time></trkpt><trkpt lat="-27.4394099414" lon="152.8997919336"><ele>187.59</ele><time>2016-11-17T00:25:17Z</time></trkpt><trkpt lat="-27.4393541180" lon="152.8998193424"><ele>187.59</ele><time>2016-11-17T00:25:25Z</time></trkpt><trkpt lat="-27.4393891543" lon="152.8998214379"><ele>187.59</ele><time>2016-11-17T00:25:33Z</time></trkpt><trkpt lat="-27.4394438881" lon="152.8997788578"><ele>187.59</ele><time>2016-11-17T00:25:39Z</time></trkpt><trkpt lat="-27.4394663516" lon="152.8997463360"><ele>187.59</ele><time>2016-11-17T00:25:42Z</time></trkpt><trkpt lat="-27.4394967780" lon="152.8996874951"><ele>186.15</ele><time>2016-11-17T00:25:47Z</time></trkpt><trkpt lat="-27.4395229295" lon="152.8996072803"><ele>185.67</ele><time>2016-11-17T00:25:53Z</time></trkpt><trkpt lat="-27.4395681079" lon="152.8995097149"><ele>182.79</ele><time>2016-11-17T00:26:02Z</time></trkpt><trkpt lat="-27.4396009650" lon="152.8994361218"><ele>181.35</ele><time>2016-11-17T00:26:09Z</time></trkpt><trkpt lat="-27.4396498315" lon="152.8992749378"><ele>178.94</ele><time>2016-11-17T00:26:21Z</time></trkpt><trkpt lat="-27.4396889750" lon="152.8991523944"><ele>177.98</ele><time>2016-11-17T00:26:30Z</time></trkpt><trkpt lat="-27.4397219997" lon="152.8990417533"><ele>177.50</ele><time>2016-11-17T00:26:39Z</time></trkpt><trkpt lat="-27.4397386797" lon="152.8989187069"><ele>176.54</ele><time>2016-11-17T00:26:48Z</time></trkpt><trkpt lat="-27.4397616461" lon="152.8988053836"><ele>175.58</ele><time>2016-11-17T00:26:56Z</time></trkpt><trkpt lat="-27.4397955090" lon="152.8986836784"><ele>174.14</ele><time>2016-11-17T00:27:05Z</time></trkpt><trkpt lat="-27.4398433696" lon="152.8985566925"><ele>171.25</ele><time>2016-11-17T00:27:16Z</time></trkpt><trkpt lat="-27.4398858659" lon="152.8984834347"><ele>170.77</ele><time>2016-11-17T00:27:23Z</time></trkpt><trkpt lat="-27.4398999475" lon="152.8984680958"><ele>169.81</ele><time>2016-11-17T00:27:25Z</time></trkpt><trkpt lat="-27.4399266858" lon="152.8984358255"><ele>169.33</ele><time>2016-11-17T00:27:29Z</time></trkpt><trkpt lat="-27.4399763905" lon="152.8983747214"><ele>169.33</ele><time>2016-11-17T00:27:35Z</time></trkpt><trkpt lat="-27.4400186352" lon="152.8983424511"><ele>168.85</ele><time>2016-11-17T00:27:39Z</time></trkpt><trkpt lat="-27.4401360657" lon="152.8983067442"><ele>168.85</ele><time>2016-11-17T00:27:48Z</time></trkpt><trkpt lat="-27.4402630515" lon="152.8982620686"><ele>168.85</ele><time>2016-11-17T00:27:58Z</time></trkpt><trkpt lat="-27.4402735289" lon="152.8982537705"><ele>168.85</ele><time>2016-11-17T00:27:59Z</time></trkpt><trkpt lat="-27.4403840024" lon="152.8981767409"><ele>169.81</ele><time>2016-11-17T00:28:10Z</time></trkpt><trkpt lat="-27.4404481240" lon="152.8981199116"><ele>171.25</ele><time>2016-11-17T00:28:19Z</time></trkpt><trkpt lat="-27.4405132513" lon="152.8980733082"><ele>172.21</ele><time>2016-11-17T00:28:27Z</time></trkpt><trkpt lat="-27.4406330287" lon="152.8980192449"><ele>174.14</ele><time>2016-11-17T00:28:38Z</time></trkpt><trkpt lat="-27.4407504592" lon="152.8979837056"><ele>174.62</ele><time>2016-11-17T00:28:47Z</time></trkpt><trkpt lat="-27.4408638664" lon="152.8979459871"><ele>174.62</ele><time>2016-11-17T00:28:57Z</time></trkpt><trkpt lat="-27.4409572408" lon="152.8979043290"><ele>174.62</ele><time>2016-11-17T00:29:06Z</time></trkpt><trkpt lat="-27.4410447478" lon="152.8978135530"><ele>172.21</ele><time>2016-11-17T00:29:16Z</time></trkpt><trkpt lat="-27.4411463365" lon="152.8977204300"><ele>171.73</ele><time>2016-11-17T00:29:27Z</time></trkpt><trkpt lat="-27.4412589055" lon="152.8976232838"><ele>171.25</ele><time>2016-11-17T00:29:38Z</time></trkpt><trkpt lat="-27.4412797764" lon="152.8976050112"><ele>170.77</ele><time>2016-11-17T00:29:45Z</time></trkpt><trkpt lat="-27.4413280562" lon="152.8975662868"><ele>170.77</ele><time>2016-11-17T00:29:53Z</time></trkpt><trkpt lat="-27.4414340034" lon="152.8974665422"><ele>168.85</ele><time>2016-11-17T00:30:05Z</time></trkpt><trkpt lat="-27.4414552934" lon="152.8974520415"><ele>168.37</ele><time>2016-11-17T00:30:12Z</time></trkpt><trkpt lat="-27.4414833728" lon="152.8974555619"><ele>168.37</ele><time>2016-11-17T00:30:27Z</time></trkpt><trkpt lat="-27.4414943531" lon="152.8974341042"><ele>168.37</ele><time>2016-11-17T00:30:31Z</time></trkpt><trkpt lat="-27.4415296409" lon="152.8973161709"><ele>166.93</ele><time>2016-11-17T00:30:40Z</time></trkpt><trkpt lat="-27.4415726401" lon="152.8972800449"><ele>165.96</ele><time>2016-11-17T00:30:45Z</time></trkpt><trkpt lat="-27.4415971991" lon="152.8972784523"><ele>165.96</ele><time>2016-11-17T00:30:47Z</time></trkpt><trkpt lat="-27.4416626617" lon="152.8973381314"><ele>163.08</ele><time>2016-11-17T00:30:56Z</time></trkpt><trkpt lat="-27.4417171441" lon="152.8973873332"><ele>160.20</ele><time>2016-11-17T00:31:06Z</time></trkpt><trkpt lat="-27.4417327344" lon="152.8973941226"><ele>159.72</ele><time>2016-11-17T00:31:15Z</time></trkpt><trkpt lat="-27.4417831097" lon="152.8974256385"><ele>157.31</ele><time>2016-11-17T00:31:24Z</time></trkpt><trkpt lat="-27.4418209121" lon="152.8974450007"><ele>155.39</ele><time>2016-11-17T00:31:32Z</time></trkpt><trkpt lat="-27.4418681860" lon="152.8974710684"><ele>152.99</ele><time>2016-11-17T00:31:42Z</time></trkpt><trkpt lat="-27.4418717064" lon="152.8974734992"><ele>153.95</ele><time>2016-11-17T00:31:48Z</time></trkpt><trkpt lat="-27.4418753106" lon="152.8974710684"><ele>152.51</ele><time>2016-11-17T00:32:01Z</time></trkpt><trkpt lat="-27.4419270270" lon="152.8975038417"><ele>150.58</ele><time>2016-11-17T00:32:10Z</time></trkpt><trkpt lat="-27.4419489875" lon="152.8975137323"><ele>149.14</ele><time>2016-11-17T00:32:18Z</time></trkpt><trkpt lat="-27.4419689365" lon="152.8975247126"><ele>147.70</ele><time>2016-11-17T00:32:27Z</time></trkpt><trkpt lat="-27.4420286156" lon="152.8975377884"><ele>145.78</ele><time>2016-11-17T00:32:37Z</time></trkpt><trkpt lat="-27.4420801643" lon="152.8975785244"><ele>143.85</ele><time>2016-11-17T00:32:45Z</time></trkpt><trkpt lat="-27.4421194755" lon="152.8976254631"><ele>141.93</ele><time>2016-11-17T00:32:53Z</time></trkpt><trkpt lat="-27.4421695154" lon="152.8976546321"><ele>140.01</ele><time>2016-11-17T00:33:00Z</time></trkpt><trkpt lat="-27.4422205612" lon="152.8976925183"><ele>137.61</ele><time>2016-11-17T00:33:09Z</time></trkpt><trkpt lat="-27.4422585312" lon="152.8977130540"><ele>136.64</ele><time>2016-11-17T00:33:16Z</time></trkpt><trkpt lat="-27.4422947410" lon="152.8977373615"><ele>135.20</ele><time>2016-11-17T00:33:23Z</time></trkpt><trkpt lat="-27.4423419312" lon="152.8977698833"><ele>133.28</ele><time>2016-11-17T00:33:33Z</time></trkpt><trkpt lat="-27.4424045440" lon="152.8977874015"><ele>130.88</ele><time>2016-11-17T00:33:41Z</time></trkpt><trkpt lat="-27.4424770474" lon="152.8977959510"><ele>129.43</ele><time>2016-11-17T00:33:49Z</time></trkpt><trkpt lat="-27.4425178673" lon="152.8977964539"><ele>127.99</ele><time>2016-11-17T00:33:56Z</time></trkpt><trkpt lat="-27.4425798096" lon="152.8978144750"><ele>126.07</ele><time>2016-11-17T00:34:04Z</time></trkpt><trkpt lat="-27.4426542409" lon="152.8978159837"><ele>123.67</ele><time>2016-11-17T00:34:12Z</time></trkpt><trkpt lat="-27.4427445978" lon="152.8978319932"><ele>121.26</ele><time>2016-11-17T00:34:22Z</time></trkpt><trkpt lat="-27.4428150058" lon="152.8978512716"><ele>119.34</ele><time>2016-11-17T00:34:30Z</time></trkpt><trkpt lat="-27.4428253155" lon="152.8978508525"><ele>118.86</ele><time>2016-11-17T00:34:31Z</time></trkpt><trkpt lat="-27.4429225456" lon="152.8978586476"><ele>116.94</ele><time>2016-11-17T00:34:40Z</time></trkpt><trkpt lat="-27.4429567438" lon="152.8978680354"><ele>115.98</ele><time>2016-11-17T00:34:43Z</time></trkpt><trkpt lat="-27.4430620205" lon="152.8979232721"><ele>114.05</ele><time>2016-11-17T00:34:53Z</time></trkpt><trkpt lat="-27.4431184307" lon="152.8979407065"><ele>113.09</ele><time>2016-11-17T00:34:59Z</time></trkpt><trkpt lat="-27.4432206061" lon="152.8979671095"><ele>111.17</ele><time>2016-11-17T00:35:08Z</time></trkpt><trkpt lat="-27.4432474282" lon="152.8979832865"><ele>111.17</ele><time>2016-11-17T00:35:11Z</time></trkpt><trkpt lat="-27.4432629347" lon="152.8980052471"><ele>110.69</ele><time>2016-11-17T00:35:13Z</time></trkpt><trkpt lat="-27.4433441553" lon="152.8980610706"><ele>108.77</ele><time>2016-11-17T00:35:21Z</time></trkpt><trkpt lat="-27.4433853105" lon="152.8980843723"><ele>107.81</ele><time>2016-11-17T00:35:25Z</time></trkpt><trkpt lat="-27.4434426427" lon="152.8981308918"><ele>106.84</ele><time>2016-11-17T00:35:32Z</time></trkpt><trkpt lat="-27.4435258750" lon="152.8981719632"><ele>105.40</ele><time>2016-11-17T00:35:40Z</time></trkpt><trkpt lat="-27.4436081853" lon="152.8982154652"><ele>103.96</ele><time>2016-11-17T00:35:48Z</time></trkpt><trkpt lat="-27.4436851311" lon="152.8982701153"><ele>103.00</ele><time>2016-11-17T00:35:56Z</time></trkpt><trkpt lat="-27.4437690340" lon="152.8982924111"><ele>102.04</ele><time>2016-11-17T00:36:05Z</time></trkpt><trkpt lat="-27.4437795114" lon="152.8983042296"><ele>102.04</ele><time>2016-11-17T00:36:16Z</time></trkpt><trkpt lat="-27.4437553715" lon="152.8983066604"><ele>102.04</ele><time>2016-11-17T00:36:23Z</time></trkpt><trkpt lat="-27.4437811039" lon="152.8983017989"><ele>103.48</ele><time>2016-11-17T00:36:26Z</time></trkpt><trkpt lat="-27.4438810162" lon="152.8982603922"><ele>101.08</ele><time>2016-11-17T00:36:36Z</time></trkpt><trkpt lat="-27.4439539388" lon="152.8982765693"><ele>99.63</ele><time>2016-11-17T00:36:45Z</time></trkpt><trkpt lat="-27.4440176412" lon="152.8983192332"><ele>97.71</ele><time>2016-11-17T00:36:54Z</time></trkpt><trkpt lat="-27.4440186471" lon="152.8983252682"><ele>97.23</ele><time>2016-11-17T00:37:00Z</time></trkpt><trkpt lat="-27.4440199882" lon="152.8983375896"><ele>97.23</ele><time>2016-11-17T00:37:06Z</time></trkpt><trkpt lat="-27.4439695291" lon="152.8983452171"><ele>98.19</ele><time>2016-11-17T00:37:33Z</time></trkpt><trkpt lat="-27.4439769052" lon="152.8983380087"><ele>98.19</ele><time>2016-11-17T00:37:42Z</time></trkpt><trkpt lat="-27.4439876340" lon="152.8983421158"><ele>98.19</ele><time>2016-11-17T00:37:51Z</time></trkpt><trkpt lat="-27.4439970218" lon="152.8983629029"><ele>98.19</ele><time>2016-11-17T00:38:07Z</time></trkpt><trkpt lat="-27.4440017994" lon="152.8983306326"><ele>98.19</ele><time>2016-11-17T00:38:13Z</time></trkpt><trkpt lat="-27.4439904839" lon="152.8983384278"><ele>98.19</ele><time>2016-11-17T00:38:23Z</time></trkpt><trkpt lat="-27.4440115225" lon="152.8983528446"><ele>98.19</ele><time>2016-11-17T00:38:29Z</time></trkpt><trkpt lat="-27.4440100975" lon="152.8983290400"><ele>98.19</ele><time>2016-11-17T00:38:39Z</time></trkpt><trkpt lat="-27.4439880531" lon="152.8982980270"><ele>98.19</ele><time>2016-11-17T00:38:45Z</time></trkpt><trkpt lat="-27.4439516757" lon="152.8983152937"><ele>99.15</ele><time>2016-11-17T00:38:51Z</time></trkpt><trkpt lat="-27.4439458922" lon="152.8983208258"><ele>99.15</ele><time>2016-11-17T00:38:56Z</time></trkpt><trkpt lat="-27.4439974409" lon="152.8982938360"><ele>99.63</ele><time>2016-11-17T00:39:14Z</time></trkpt><trkpt lat="-27.4440075830" lon="152.8982929140"><ele>99.63</ele><time>2016-11-17T00:39:24Z</time></trkpt><trkpt lat="-27.4439616501" lon="152.8982677683"><ele>100.11</ele><time>2016-11-17T00:39:33Z</time></trkpt><trkpt lat="-27.4438790884" lon="152.8982943390"><ele>101.56</ele><time>2016-11-17T00:39:40Z</time></trkpt><trkpt lat="-27.4438349996" lon="152.8983234242"><ele>102.04</ele><time>2016-11-17T00:39:48Z</time></trkpt><trkpt lat="-27.4438647553" lon="152.8983649984"><ele>102.04</ele><time>2016-11-17T00:40:00Z</time></trkpt><trkpt lat="-27.4438785017" lon="152.8983928263"><ele>102.04</ele><time>2016-11-17T00:40:17Z</time></trkpt><trkpt lat="-27.4438698683" lon="152.8983861208"><ele>102.04</ele><time>2016-11-17T00:40:35Z</time></trkpt><trkpt lat="-27.4438541941" lon="152.8983792476"><ele>102.04</ele><time>2016-11-17T00:40:47Z</time></trkpt><trkpt lat="-27.4438479915" lon="152.8983753081"><ele>102.04</ele><time>2016-11-17T00:41:01Z</time></trkpt><trkpt lat="-27.4438489135" lon="152.8983835224"><ele>102.04</ele><time>2016-11-17T00:41:14Z</time></trkpt><trkpt lat="-27.4438389391" lon="152.8983893059"><ele>103.00</ele><time>2016-11-17T00:41:28Z</time></trkpt><trkpt lat="-27.4438267015" lon="152.8983809240"><ele>102.04</ele><time>2016-11-17T00:41:35Z</time></trkpt><trkpt lat="-27.4438404478" lon="152.8983499110"><ele>101.56</ele><time>2016-11-17T00:41:46Z</time></trkpt><trkpt lat="-27.4438042380" lon="152.8983298782"><ele>101.56</ele><time>2016-11-17T00:41:58Z</time></trkpt><trkpt lat="-27.4438030645" lon="152.8983309679"><ele>103.00</ele><time>2016-11-17T00:42:00Z</time></trkpt><trkpt lat="-27.4437440559" lon="152.8983288724"><ele>103.48</ele><time>2016-11-17T00:42:08Z</time></trkpt><trkpt lat="-27.4437491689" lon="152.8983468097"><ele>103.48</ele><time>2016-11-17T00:42:13Z</time></trkpt><trkpt lat="-27.4437376857" lon="152.8983463068"><ele>103.48</ele><time>2016-11-17T00:42:20Z</time></trkpt><trkpt lat="-27.4437291361" lon="152.8983682673"><ele>103.48</ele><time>2016-11-17T00:42:26Z</time></trkpt><trkpt lat="-27.4437199160" lon="152.8983902279"><ele>103.00</ele><time>2016-11-17T00:42:33Z</time></trkpt><trkpt lat="-27.4436935131" lon="152.8984002024"><ele>103.00</ele><time>2016-11-17T00:42:42Z</time></trkpt><trkpt lat="-27.4436889030" lon="152.8984046448"><ele>102.52</ele><time>2016-11-17T00:42:51Z</time></trkpt><trkpt lat="-27.4436847121" lon="152.8984292876"><ele>102.52</ele><time>2016-11-17T00:42:58Z</time></trkpt><trkpt lat="-27.4436693732" lon="152.8984426986"><ele>102.52</ele><time>2016-11-17T00:43:05Z</time></trkpt><trkpt lat="-27.4436641764" lon="152.8984056506"><ele>102.52</ele><time>2016-11-17T00:43:12Z</time></trkpt><trkpt lat="-27.4436641764" lon="152.8983990289"><ele>102.52</ele><time>2016-11-17T00:43:21Z</time></trkpt><trkpt lat="-27.4436547887" lon="152.8984191455"><ele>102.04</ele><time>2016-11-17T00:43:29Z</time></trkpt><trkpt lat="-27.4436321575" lon="152.8984839376"><ele>102.04</ele><time>2016-11-17T00:43:36Z</time></trkpt><trkpt lat="-27.4436295591" lon="152.8985200636"><ele>102.04</ele><time>2016-11-17T00:43:42Z</time></trkpt><trkpt lat="-27.4436031561" lon="152.8985539265"><ele>102.04</ele><time>2016-11-17T00:43:48Z</time></trkpt><trkpt lat="-27.4435512722" lon="152.8985949978"><ele>103.00</ele><time>2016-11-17T00:43:56Z</time></trkpt><trkpt lat="-27.4435297307" lon="152.8986505698"><ele>103.00</ele><time>2016-11-17T00:44:05Z</time></trkpt><trkpt lat="-27.4434972089" lon="152.8987013642"><ele>103.48</ele><time>2016-11-17T00:44:13Z</time></trkpt><trkpt lat="-27.4434641004" lon="152.8987753764"><ele>103.48</ele><time>2016-11-17T00:44:22Z</time></trkpt><trkpt lat="-27.4434806127" lon="152.8988394979"><ele>103.48</ele><time>2016-11-17T00:44:30Z</time></trkpt><trkpt lat="-27.4434936885" lon="152.8988734446"><ele>102.52</ele><time>2016-11-17T00:44:37Z</time></trkpt><trkpt lat="-27.4435016513" lon="152.8989451099"><ele>102.52</ele><time>2016-11-17T00:44:45Z</time></trkpt><trkpt lat="-27.4435003102" lon="152.8989814874"><ele>102.52</ele><time>2016-11-17T00:44:51Z</time></trkpt><trkpt lat="-27.4435284734" lon="152.8990368918"><ele>102.04</ele><time>2016-11-17T00:44:59Z</time></trkpt><trkpt lat="-27.4435452372" lon="152.8990369756"><ele>102.04</ele><time>2016-11-17T00:45:08Z</time></trkpt><trkpt lat="-27.4435449019" lon="152.8990362212"><ele>102.04</ele><time>2016-11-17T00:45:15Z</time></trkpt><trkpt lat="-27.4435462430" lon="152.8990423400"><ele>102.04</ele><time>2016-11-17T00:45:21Z</time></trkpt><trkpt lat="-27.4435296468" lon="152.8990738560"><ele>102.04</ele><time>2016-11-17T00:45:29Z</time></trkpt><trkpt lat="-27.4435246177" lon="152.8990836628"><ele>102.04</ele><time>2016-11-17T00:45:36Z</time></trkpt><trkpt lat="-27.4435131345" lon="152.8990569245"><ele>102.04</ele><time>2016-11-17T00:45:43Z</time></trkpt><trkpt lat="-27.4435043335" lon="152.8990458604"><ele>103.00</ele><time>2016-11-17T00:45:54Z</time></trkpt><trkpt lat="-27.4434827082" lon="152.8989935573"><ele>102.52</ele><time>2016-11-17T00:46:03Z</time></trkpt><trkpt lat="-27.4434703868" lon="152.8989287652"><ele>102.52</ele><time>2016-11-17T00:46:10Z</time></trkpt><trkpt lat="-27.4434524495" lon="152.8989283461"><ele>102.52</ele><time>2016-11-17T00:46:17Z</time></trkpt><trkpt lat="-27.4434586521" lon="152.8989436850"><ele>102.52</ele><time>2016-11-17T00:46:27Z</time></trkpt><trkpt lat="-27.4434551317" lon="152.8989991732"><ele>102.52</ele><time>2016-11-17T00:46:35Z</time></trkpt><trkpt lat="-27.4434257112" lon="152.8990378138"><ele>102.52</ele><time>2016-11-17T00:46:44Z</time></trkpt><trkpt lat="-27.4434067681" lon="152.8990857583"><ele>102.04</ele><time>2016-11-17T00:46:51Z</time></trkpt><trkpt lat="-27.4433905911" lon="152.8991234768"><ele>102.04</ele><time>2016-11-17T00:47:00Z</time></trkpt><trkpt lat="-27.4433790240" lon="152.8991894424"><ele>102.04</ele><time>2016-11-17T00:47:09Z</time></trkpt><trkpt lat="-27.4433575664" lon="152.8992568329"><ele>102.04</ele><time>2016-11-17T00:47:17Z</time></trkpt><trkpt lat="-27.4433512799" lon="152.8993125726"><ele>102.04</ele><time>2016-11-17T00:47:23Z</time></trkpt><trkpt lat="-27.4433300737" lon="152.8993646242"><ele>102.04</ele><time>2016-11-17T00:47:32Z</time></trkpt><trkpt lat="-27.4432827998" lon="152.8994148318"><ele>101.56</ele><time>2016-11-17T00:47:40Z</time></trkpt><trkpt lat="-27.4432513677" lon="152.8994360380"><ele>101.56</ele><time>2016-11-17T00:47:49Z</time></trkpt><trkpt lat="-27.4432209413" lon="152.8994569089"><ele>101.56</ele><time>2016-11-17T00:48:01Z</time></trkpt><trkpt lat="-27.4432007410" lon="152.8994595073"><ele>101.56</ele><time>2016-11-17T00:48:09Z</time></trkpt><trkpt lat="-27.4432082009" lon="152.8994883411"><ele>101.56</ele><time>2016-11-17T00:48:16Z</time></trkpt><trkpt lat="-27.4431964662" lon="152.8995165043"><ele>101.56</ele><time>2016-11-17T00:48:23Z</time></trkpt><trkpt lat="-27.4431985617" lon="152.8995242156"><ele>101.56</ele><time>2016-11-17T00:48:36Z</time></trkpt><trkpt lat="-27.4431780260" lon="152.8995548934"><ele>101.56</ele><time>2016-11-17T00:48:45Z</time></trkpt><trkpt lat="-27.4431346916" lon="152.8995987307"><ele>101.56</ele><time>2016-11-17T00:48:51Z</time></trkpt><trkpt lat="-27.4430594221" lon="152.8996511176"><ele>101.56</ele><time>2016-11-17T00:49:00Z</time></trkpt><trkpt lat="-27.4430227093" lon="152.8997326735"><ele>101.56</ele><time>2016-11-17T00:49:07Z</time></trkpt><trkpt lat="-27.4429610185" lon="152.8998092841"><ele>101.56</ele><time>2016-11-17T00:49:16Z</time></trkpt><trkpt lat="-27.4429089669" lon="152.8998513613"><ele>101.56</ele><time>2016-11-17T00:49:22Z</time></trkpt><trkpt lat="-27.4428423308" lon="152.8998900019"><ele>101.56</ele><time>2016-11-17T00:49:30Z</time></trkpt><trkpt lat="-27.4428160954" lon="152.8999355156"><ele>101.08</ele><time>2016-11-17T00:49:38Z</time></trkpt><trkpt lat="-27.4427643791" lon="152.9000032414"><ele>101.08</ele><time>2016-11-17T00:49:46Z</time></trkpt><trkpt lat="-27.4427652173" lon="152.9001069255"><ele>101.08</ele><time>2016-11-17T00:49:54Z</time></trkpt><trkpt lat="-27.4427647144" lon="152.9001416266"><ele>101.08</ele><time>2016-11-17T00:50:00Z</time></trkpt><trkpt lat="-27.4427670613" lon="152.9001723044"><ele>101.08</ele><time>2016-11-17T00:50:07Z</time></trkpt><trkpt lat="-27.4427203741" lon="152.9002136271"><ele>101.08</ele><time>2016-11-17T00:50:15Z</time></trkpt><trkpt lat="-27.4427269958" lon="152.9002537765"><ele>101.08</ele><time>2016-11-17T00:50:23Z</time></trkpt><trkpt lat="-27.4427114055" lon="152.9003308062"><ele>101.08</ele><time>2016-11-17T00:50:30Z</time></trkpt><trkpt lat="-27.4426855892" lon="152.9003943410"><ele>100.60</ele><time>2016-11-17T00:50:37Z</time></trkpt><trkpt lat="-27.4426758662" lon="152.9004815966"><ele>100.60</ele><time>2016-11-17T00:50:46Z</time></trkpt><trkpt lat="-27.4426883552" lon="152.9005070776"><ele>100.60</ele><time>2016-11-17T00:50:54Z</time></trkpt><trkpt lat="-27.4426653888" lon="152.9004769865"><ele>100.60</ele><time>2016-11-17T00:51:02Z</time></trkpt><trkpt lat="-27.4426795542" lon="152.9004253540"><ele>100.60</ele><time>2016-11-17T00:51:10Z</time></trkpt><trkpt lat="-27.4426901992" lon="152.9003522638"><ele>100.60</ele><time>2016-11-17T00:51:17Z</time></trkpt><trkpt lat="-27.4426904507" lon="152.9002968594"><ele>100.60</ele><time>2016-11-17T00:51:26Z</time></trkpt><trkpt lat="-27.4426965695" lon="152.9003666807"><ele>100.60</ele><time>2016-11-17T00:51:35Z</time></trkpt><trkpt lat="-27.4426843319" lon="152.9004031420"><ele>100.60</ele><time>2016-11-17T00:51:43Z</time></trkpt><trkpt lat="-27.4426761176" lon="152.9004380107"><ele>100.11</ele><time>2016-11-17T00:51:49Z</time></trkpt><trkpt lat="-27.4426968209" lon="152.9004629888"><ele>100.11</ele><time>2016-11-17T00:51:57Z</time></trkpt><trkpt lat="-27.4427056219" lon="152.9005199019"><ele>100.11</ele><time>2016-11-17T00:52:07Z</time></trkpt><trkpt lat="-27.4427193683" lon="152.9005440418"><ele>99.63</ele><time>2016-11-17T00:52:17Z</time></trkpt><trkpt lat="-27.4427105673" lon="152.9005951714"><ele>98.19</ele><time>2016-11-17T00:52:26Z</time></trkpt><trkpt lat="-27.4426886905" lon="152.9006358236"><ele>97.71</ele><time>2016-11-17T00:52:33Z</time></trkpt><trkpt lat="-27.4426611979" lon="152.9006937426"><ele>96.27</ele><time>2016-11-17T00:52:41Z</time></trkpt><trkpt lat="-27.4426539056" lon="152.9007192235"><ele>96.27</ele><time>2016-11-17T00:52:49Z</time></trkpt><trkpt lat="-27.4426468648" lon="152.9007665813"><ele>96.27</ele><time>2016-11-17T00:52:56Z</time></trkpt><trkpt lat="-27.4426145945" lon="152.9008058086"><ele>95.79</ele><time>2016-11-17T00:53:02Z</time></trkpt><trkpt lat="-27.4425675720" lon="152.9008560162"><ele>95.79</ele><time>2016-11-17T00:53:11Z</time></trkpt><trkpt lat="-27.4425282609" lon="152.9009347223"><ele>95.79</ele><time>2016-11-17T00:53:20Z</time></trkpt><trkpt lat="-27.4425050430" lon="152.9009871930"><ele>95.79</ele><time>2016-11-17T00:53:28Z</time></trkpt><trkpt lat="-27.4424827471" lon="152.9010440223"><ele>95.79</ele><time>2016-11-17T00:53:35Z</time></trkpt><trkpt lat="-27.4424463697" lon="152.9011131730"><ele>95.79</ele><time>2016-11-17T00:53:42Z</time></trkpt><trkpt lat="-27.4424419273" lon="152.9011227284"><ele>95.79</ele><time>2016-11-17T00:53:43Z</time></trkpt><trkpt lat="-27.4424109142" lon="152.9011853412"><ele>95.79</ele><time>2016-11-17T00:53:51Z</time></trkpt><trkpt lat="-27.4423850141" lon="152.9012268316"><ele>95.79</ele><time>2016-11-17T00:54:00Z</time></trkpt><trkpt lat="-27.4423648976" lon="152.9012957308"><ele>95.31</ele><time>2016-11-17T00:54:08Z</time></trkpt><trkpt lat="-27.4423399195" lon="152.9013840761"><ele>95.31</ele><time>2016-11-17T00:54:16Z</time></trkpt><trkpt lat="-27.4423255865" lon="152.9014126584"><ele>95.31</ele><time>2016-11-17T00:54:24Z</time></trkpt><trkpt lat="-27.4423291907" lon="152.9014492035"><ele>95.31</ele><time>2016-11-17T00:54:34Z</time></trkpt><trkpt lat="-27.4423068948" lon="152.9014826473"><ele>96.75</ele><time>2016-11-17T00:54:39Z</time></trkpt><trkpt lat="-27.4422628060" lon="152.9015087150"><ele>97.23</ele><time>2016-11-17T00:54:46Z</time></trkpt><trkpt lat="-27.4422304519" lon="152.9015493672"><ele>98.19</ele><time>2016-11-17T00:54:55Z</time></trkpt><trkpt lat="-27.4422217347" lon="152.9015589226"><ele>98.67</ele><time>2016-11-17T00:55:05Z</time></trkpt><trkpt lat="-27.4422050547" lon="152.9015974794"><ele>99.15</ele><time>2016-11-17T00:55:18Z</time></trkpt><trkpt lat="-27.4421739578" lon="152.9016362876"><ele>100.11</ele><time>2016-11-17T00:55:26Z</time></trkpt><trkpt lat="-27.4421492312" lon="152.9016700666"><ele>102.52</ele><time>2016-11-17T00:55:34Z</time></trkpt><trkpt lat="-27.4421525002" lon="152.9016580805"><ele>103.00</ele><time>2016-11-17T00:55:42Z</time></trkpt><trkpt lat="-27.4421568587" lon="152.9016490281"><ele>102.04</ele><time>2016-11-17T00:55:49Z</time></trkpt><trkpt lat="-27.4421262648" lon="152.9016435798"><ele>102.04</ele><time>2016-11-17T00:56:08Z</time></trkpt><trkpt lat="-27.4421266001" lon="152.9016422387"><ele>102.52</ele><time>2016-11-17T00:56:21Z</time></trkpt><trkpt lat="-27.4421253428" lon="152.9016935360"><ele>103.96</ele><time>2016-11-17T00:56:29Z</time></trkpt><trkpt lat="-27.4421292823" lon="152.9016970564"><ele>103.96</ele><time>2016-11-17T00:56:30Z</time></trkpt><trkpt lat="-27.4421101715" lon="152.9017321765"><ele>106.36</ele><time>2016-11-17T00:56:38Z</time></trkpt><trkpt lat="-27.4420996103" lon="152.9017561488"><ele>107.32</ele><time>2016-11-17T00:56:45Z</time></trkpt><trkpt lat="-27.4421105068" lon="152.9017944541"><ele>109.25</ele><time>2016-11-17T00:56:52Z</time></trkpt><trkpt lat="-27.4421084113" lon="152.9018220305"><ele>110.69</ele><time>2016-11-17T00:56:58Z</time></trkpt><trkpt lat="-27.4421036337" lon="152.9018657841"><ele>112.61</ele><time>2016-11-17T00:57:06Z</time></trkpt><trkpt lat="-27.4420981016" lon="152.9019131418"><ele>114.05</ele><time>2016-11-17T00:57:14Z</time></trkpt><trkpt lat="-27.4420732073" lon="152.9019727372"><ele>116.46</ele><time>2016-11-17T00:57:23Z</time></trkpt><trkpt lat="-27.4420873728" lon="152.9019667022"><ele>117.42</ele><time>2016-11-17T00:57:34Z</time></trkpt><trkpt lat="-27.4420865346" lon="152.9019690491"><ele>115.50</ele><time>2016-11-17T00:57:44Z</time></trkpt><trkpt lat="-27.4420736264" lon="152.9019784369"><ele>116.46</ele><time>2016-11-17T00:58:05Z</time></trkpt><trkpt lat="-27.4420809187" lon="152.9019977152"><ele>116.94</ele><time>2016-11-17T00:58:12Z</time></trkpt><trkpt lat="-27.4420871213" lon="152.9020532034"><ele>118.38</ele><time>2016-11-17T00:58:18Z</time></trkpt><trkpt lat="-27.4420724530" lon="152.9020957835"><ele>119.34</ele><time>2016-11-17T00:58:26Z</time></trkpt><trkpt lat="-27.4420634843" lon="152.9021438956"><ele>119.82</ele><time>2016-11-17T00:58:43Z</time></trkpt><trkpt lat="-27.4420512468" lon="152.9021740705"><ele>121.74</ele><time>2016-11-17T00:58:51Z</time></trkpt><trkpt lat="-27.4420517497" lon="152.9022210091"><ele>121.74</ele><time>2016-11-17T00:58:58Z</time></trkpt><trkpt lat="-27.4420468044" lon="152.9022634216"><ele>121.74</ele><time>2016-11-17T00:59:05Z</time></trkpt><trkpt lat="-27.4420376681" lon="152.9022527765"><ele>121.74</ele><time>2016-11-17T00:59:16Z</time></trkpt><trkpt lat="-27.4420315493" lon="152.9022380244"><ele>121.74</ele><time>2016-11-17T00:59:22Z</time></trkpt><trkpt lat="-27.4420704413" lon="152.9022853822"><ele>120.78</ele><time>2016-11-17T00:59:30Z</time></trkpt><trkpt lat="-27.4421145301" lon="152.9023584723"><ele>119.34</ele><time>2016-11-17T00:59:38Z</time></trkpt><trkpt lat="-27.4421665817" lon="152.9024214204"><ele>116.94</ele><time>2016-11-17T00:59:46Z</time></trkpt><trkpt lat="-27.4421763048" lon="152.9024889786"><ele>115.50</ele><time>2016-11-17T00:59:54Z</time></trkpt><trkpt lat="-27.4421682581" lon="152.9024666827"><ele>115.50</ele><time>2016-11-17T01:00:09Z</time></trkpt><trkpt lat="-27.4421608821" lon="152.9024119489"><ele>116.46</ele><time>2016-11-17T01:00:18Z</time></trkpt><trkpt lat="-27.4421656597" lon="152.9024097696"><ele>116.46</ele><time>2016-11-17T01:00:26Z</time></trkpt><trkpt lat="-27.4421706051" lon="152.9024424590"><ele>116.46</ele><time>2016-11-17T01:00:35Z</time></trkpt><trkpt lat="-27.4421772268" lon="152.9024992045"><ele>115.01</ele><time>2016-11-17T01:00:42Z</time></trkpt><trkpt lat="-27.4421754666" lon="152.9025184829"><ele>115.01</ele><time>2016-11-17T01:00:50Z</time></trkpt><trkpt lat="-27.4421784841" lon="152.9025357496"><ele>113.57</ele><time>2016-11-17T01:00:54Z</time></trkpt><trkpt lat="-27.4421826750" lon="152.9025642481"><ele>115.01</ele><time>2016-11-17T01:00:57Z</time></trkpt><trkpt lat="-27.4421846028" lon="152.9025886394"><ele>113.57</ele><time>2016-11-17T01:00:59Z</time></trkpt><trkpt lat="-27.4421913922" lon="152.9026563652"><ele>112.13</ele><time>2016-11-17T01:01:06Z</time></trkpt><trkpt lat="-27.4421638157" lon="152.9027317185"><ele>110.69</ele><time>2016-11-17T01:01:13Z</time></trkpt><trkpt lat="-27.4421318807" lon="152.9028007016"><ele>110.21</ele><time>2016-11-17T01:01:20Z</time></trkpt><trkpt lat="-27.4421325512" lon="152.9028111789"><ele>109.73</ele><time>2016-11-17T01:01:21Z</time></trkpt><trkpt lat="-27.4421184696" lon="152.9028490651"><ele>109.73</ele><time>2016-11-17T01:01:30Z</time></trkpt><trkpt lat="-27.4421034660" lon="152.9028512444"><ele>110.21</ele><time>2016-11-17T01:01:43Z</time></trkpt><trkpt lat="-27.4420466367" lon="152.9029053077"><ele>110.21</ele><time>2016-11-17T01:01:51Z</time></trkpt><trkpt lat="-27.4419840239" lon="152.9029408470"><ele>110.69</ele><time>2016-11-17T01:01:58Z</time></trkpt><trkpt lat="-27.4419463053" lon="152.9029787332"><ele>111.65</ele><time>2016-11-17T01:02:05Z</time></trkpt><trkpt lat="-27.4419074133" lon="152.9030353948"><ele>111.65</ele><time>2016-11-17T01:02:12Z</time></trkpt><trkpt lat="-27.4418581277" lon="152.9030755442"><ele>112.13</ele><time>2016-11-17T01:02:20Z</time></trkpt><trkpt lat="-27.4418474827" lon="152.9031028692"><ele>112.13</ele><time>2016-11-17T01:02:30Z</time></trkpt><trkpt lat="-27.4418307189" lon="152.9031426832"><ele>112.13</ele><time>2016-11-17T01:02:37Z</time></trkpt><trkpt lat="-27.4418106861" lon="152.9031684995"><ele>112.13</ele><time>2016-11-17T01:02:44Z</time></trkpt><trkpt lat="-27.4417807627" lon="152.9031605367"><ele>113.09</ele><time>2016-11-17T01:02:52Z</time></trkpt><trkpt lat="-27.4417520128" lon="152.9031842574"><ele>113.09</ele><time>2016-11-17T01:03:01Z</time></trkpt><trkpt lat="-27.4417170603" lon="152.9032407515"><ele>113.57</ele><time>2016-11-17T01:03:10Z</time></trkpt><trkpt lat="-27.4416926689" lon="152.9032910429"><ele>113.57</ele><time>2016-11-17T01:03:16Z</time></trkpt><trkpt lat="-27.4416660983" lon="152.9033462796"><ele>113.57</ele><time>2016-11-17T01:03:23Z</time></trkpt><trkpt lat="-27.4416101910" lon="152.9034015164"><ele>113.57</ele><time>2016-11-17T01:03:32Z</time></trkpt><trkpt lat="-27.4415713828" lon="152.9034582619"><ele>113.57</ele><time>2016-11-17T01:03:39Z</time></trkpt><trkpt lat="-27.4415292218" lon="152.9035047814"><ele>113.57</ele><time>2016-11-17T01:03:46Z</time></trkpt><trkpt lat="-27.4415151402" lon="152.9035645444"><ele>112.61</ele><time>2016-11-17T01:03:54Z</time></trkpt><trkpt lat="-27.4414976221" lon="152.9036021791"><ele>112.13</ele><time>2016-11-17T01:04:01Z</time></trkpt><trkpt lat="-27.4414700456" lon="152.9036336113"><ele>112.13</ele><time>2016-11-17T01:04:10Z</time></trkpt><trkpt lat="-27.4414638430" lon="152.9036660492"><ele>112.13</ele><time>2016-11-17T01:04:17Z</time></trkpt><trkpt lat="-27.4414154794" lon="152.9037217051"><ele>112.13</ele><time>2016-11-17T01:04:26Z</time></trkpt><trkpt lat="-27.4413630925" lon="152.9037663806"><ele>111.65</ele><time>2016-11-17T01:04:34Z</time></trkpt><trkpt lat="-27.4413006473" lon="152.9038056079"><ele>111.17</ele><time>2016-11-17T01:04:43Z</time></trkpt><trkpt lat="-27.4412482604" lon="152.9038504511"><ele>110.69</ele><time>2016-11-17T01:04:50Z</time></trkpt><trkpt lat="-27.4412300717" lon="152.9039064422"><ele>109.25</ele><time>2016-11-17T01:04:57Z</time></trkpt><trkpt lat="-27.4412155710" lon="152.9039680492"><ele>107.81</ele><time>2016-11-17T01:05:04Z</time></trkpt><trkpt lat="-27.4411612563" lon="152.9040287342"><ele>106.36</ele><time>2016-11-17T01:05:14Z</time></trkpt><trkpt lat="-27.4411356915" lon="152.9040706437"><ele>105.88</ele><time>2016-11-17T01:05:21Z</time></trkpt><trkpt lat="-27.4410993140" lon="152.9041352682"><ele>104.44</ele><time>2016-11-17T01:05:30Z</time></trkpt><trkpt lat="-27.4410797004" lon="152.9041840509"><ele>103.48</ele><time>2016-11-17T01:05:38Z</time></trkpt><trkpt lat="-27.4410660379" lon="152.9042158183"><ele>103.48</ele><time>2016-11-17T01:05:49Z</time></trkpt><trkpt lat="-27.4410250504" lon="152.9042666964"><ele>102.52</ele><time>2016-11-17T01:05:56Z</time></trkpt><trkpt lat="-27.4410037603" lon="152.9042984638"><ele>102.52</ele><time>2016-11-17T01:06:02Z</time></trkpt><trkpt lat="-27.4410089571" lon="152.9043488391"><ele>100.60</ele><time>2016-11-17T01:06:10Z</time></trkpt><trkpt lat="-27.4409983121" lon="152.9043821990"><ele>100.11</ele><time>2016-11-17T01:06:16Z</time></trkpt><trkpt lat="-27.4409942050" lon="152.9043778405"><ele>99.15</ele><time>2016-11-17T01:06:24Z</time></trkpt><trkpt lat="-27.4410101306" lon="152.9043951072"><ele>99.15</ele><time>2016-11-17T01:06:40Z</time></trkpt><trkpt lat="-27.4409977254" lon="152.9044051655"><ele>99.15</ele><time>2016-11-17T01:06:49Z</time></trkpt><trkpt lat="-27.4410033412" lon="152.9044398665"><ele>99.63</ele><time>2016-11-17T01:07:02Z</time></trkpt><trkpt lat="-27.4409930315" lon="152.9044519365"><ele>99.63</ele><time>2016-11-17T01:07:16Z</time></trkpt><trkpt lat="-27.4409781955" lon="152.9044535290"><ele>99.15</ele><time>2016-11-17T01:07:30Z</time></trkpt><trkpt lat="-27.4409807101" lon="152.9044400342"><ele>99.15</ele><time>2016-11-17T01:07:46Z</time></trkpt><trkpt lat="-27.4409823865" lon="152.9044516012"><ele>99.63</ele><time>2016-11-17T01:07:54Z</time></trkpt><trkpt lat="-27.4409485236" lon="152.9044560436"><ele>98.67</ele><time>2016-11-17T01:08:03Z</time></trkpt><trkpt lat="-27.4409297481" lon="152.9044559598"><ele>97.71</ele><time>2016-11-17T01:08:13Z</time></trkpt><trkpt lat="-27.4409165047" lon="152.9044979531"><ele>95.79</ele><time>2016-11-17T01:08:22Z</time></trkpt><trkpt lat="-27.4409126490" lon="152.9045148008"><ele>95.79</ele><time>2016-11-17T01:08:28Z</time></trkpt><trkpt lat="-27.4409610126" lon="152.9045273736"><ele>95.79</ele><time>2016-11-17T01:08:37Z</time></trkpt><trkpt lat="-27.4409984797" lon="152.9045304749"><ele>97.71</ele><time>2016-11-17T01:08:46Z</time></trkpt><trkpt lat="-27.4409974739" lon="152.9045723844"><ele>98.19</ele><time>2016-11-17T01:08:53Z</time></trkpt><trkpt lat="-27.4410018325" lon="152.9045891482"><ele>98.67</ele><time>2016-11-17T01:09:00Z</time></trkpt><trkpt lat="-27.4409968033" lon="152.9045981169"><ele>98.67</ele><time>2016-11-17T01:09:08Z</time></trkpt><trkpt lat="-27.4410009943" lon="152.9046349972"><ele>100.11</ele><time>2016-11-17T01:09:16Z</time></trkpt><trkpt lat="-27.4410119746" lon="152.9046813492"><ele>101.56</ele><time>2016-11-17T01:09:24Z</time></trkpt><trkpt lat="-27.4409979768" lon="152.9047627375"><ele>103.96</ele><time>2016-11-17T01:09:33Z</time></trkpt><trkpt lat="-27.4409767706" lon="152.9048101790"><ele>104.92</ele><time>2016-11-17T01:09:42Z</time></trkpt><trkpt lat="-27.4409658741" lon="152.9048293736"><ele>105.88</ele><time>2016-11-17T01:09:53Z</time></trkpt><trkpt lat="-27.4409789499" lon="152.9048115201"><ele>105.88</ele><time>2016-11-17T01:10:05Z</time></trkpt><trkpt lat="-27.4409876671" lon="152.9048069101"><ele>105.88</ele><time>2016-11-17T01:10:14Z</time></trkpt><trkpt lat="-27.4410030060" lon="152.9048312176"><ele>105.88</ele><time>2016-11-17T01:10:23Z</time></trkpt><trkpt lat="-27.4410121422" lon="152.9048673436"><ele>107.32</ele><time>2016-11-17T01:10:32Z</time></trkpt><trkpt lat="-27.4409827217" lon="152.9049065709"><ele>108.29</ele><time>2016-11-17T01:10:40Z</time></trkpt><trkpt lat="-27.4410004076" lon="152.9049549345"><ele>110.21</ele><time>2016-11-17T01:10:48Z</time></trkpt><trkpt lat="-27.4410002399" lon="152.9050034657"><ele>112.13</ele><time>2016-11-17T01:10:56Z</time></trkpt><trkpt lat="-27.4410058558" lon="152.9050584510"><ele>114.53</ele><time>2016-11-17T01:11:04Z</time></trkpt><trkpt lat="-27.4410258885" lon="152.9051081557"><ele>116.46</ele><time>2016-11-17T01:11:13Z</time></trkpt><trkpt lat="-27.4410314206" lon="152.9051618837"><ele>118.38</ele><time>2016-11-17T01:11:22Z</time></trkpt><trkpt lat="-27.4410274811" lon="152.9052027036"><ele>119.82</ele><time>2016-11-17T01:11:29Z</time></trkpt><trkpt lat="-27.4410423171" lon="152.9052512348"><ele>121.26</ele><time>2016-11-17T01:11:38Z</time></trkpt><trkpt lat="-27.4410290737" lon="152.9053065553"><ele>122.71</ele><time>2016-11-17T01:11:45Z</time></trkpt><trkpt lat="-27.4410188477" lon="152.9053478781"><ele>124.15</ele><time>2016-11-17T01:11:53Z</time></trkpt><trkpt lat="-27.4410090409" lon="152.9053337127"><ele>123.19</ele><time>2016-11-17T01:12:02Z</time></trkpt><trkpt lat="-27.4409590848" lon="152.9052933957"><ele>122.22</ele><time>2016-11-17T01:12:22Z</time></trkpt><trkpt lat="-27.4409586657" lon="152.9052974191"><ele>122.22</ele><time>2016-11-17T01:12:48Z</time></trkpt><trkpt lat="-27.4409610964" lon="152.9053009395"><ele>125.59</ele><time>2016-11-17T01:12:57Z</time></trkpt><trkpt lat="-27.4409835599" lon="152.9053344671"><ele>123.67</ele><time>2016-11-17T01:13:03Z</time></trkpt><trkpt lat="-27.4410030898" lon="152.9053378198"><ele>123.67</ele><time>2016-11-17T01:13:10Z</time></trkpt><trkpt lat="-27.4410068616" lon="152.9053047951"><ele>123.67</ele><time>2016-11-17T01:13:22Z</time></trkpt><trkpt lat="-27.4410085380" lon="152.9053000174"><ele>123.19</ele><time>2016-11-17T01:13:51Z</time></trkpt><trkpt lat="-27.4409855716" lon="152.9053115845"><ele>123.19</ele><time>2016-11-17T01:14:03Z</time></trkpt><trkpt lat="-27.4409898464" lon="152.9052938148"><ele>123.19</ele><time>2016-11-17T01:14:23Z</time></trkpt><trkpt lat="-27.4409928638" lon="152.9052925576"><ele>123.19</ele><time>2016-11-17T01:14:40Z</time></trkpt><trkpt lat="-27.4409539718" lon="152.9053184576"><ele>123.19</ele><time>2016-11-17T01:15:04Z</time></trkpt><trkpt lat="-27.4409631081" lon="152.9053325392"><ele>123.19</ele><time>2016-11-17T01:15:20Z</time></trkpt><trkpt lat="-27.4409828894" lon="152.9053357244"><ele>124.15</ele><time>2016-11-17T01:15:28Z</time></trkpt><trkpt lat="-27.4410045985" lon="152.9053653125"><ele>124.15</ele><time>2016-11-17T01:15:36Z</time></trkpt><trkpt lat="-27.4410513695" lon="152.9054009356"><ele>126.07</ele><time>2016-11-17T01:15:45Z</time></trkpt><trkpt lat="-27.4411104620" lon="152.9054216389"><ele>127.03</ele><time>2016-11-17T01:15:55Z</time></trkpt><trkpt lat="-27.4411302432" lon="152.9054679908"><ele>128.47</ele><time>2016-11-17T01:16:03Z</time></trkpt><trkpt lat="-27.4411316682" lon="152.9055215511"><ele>130.40</ele><time>2016-11-17T01:16:10Z</time></trkpt><trkpt lat="-27.4411312491" lon="152.9055914562"><ele>131.84</ele><time>2016-11-17T01:16:20Z</time></trkpt><trkpt lat="-27.4411186762" lon="152.9056171887"><ele>132.80</ele><time>2016-11-17T01:16:29Z</time></trkpt><trkpt lat="-27.4411377031" lon="152.9056192003"><ele>132.80</ele><time>2016-11-17T01:16:42Z</time></trkpt><trkpt lat="-27.4411397986" lon="152.9056764487"><ele>134.24</ele><time>2016-11-17T01:16:51Z</time></trkpt><trkpt lat="-27.4411671236" lon="152.9057196155"><ele>135.20</ele><time>2016-11-17T01:16:59Z</time></trkpt><trkpt lat="-27.4412058480" lon="152.9057574179"><ele>136.16</ele><time>2016-11-17T01:17:07Z</time></trkpt><trkpt lat="-27.4411625136" lon="152.9058110621"><ele>137.61</ele><time>2016-11-17T01:17:16Z</time></trkpt><trkpt lat="-27.4411438219" lon="152.9058880918"><ele>139.53</ele><time>2016-11-17T01:17:25Z</time></trkpt><trkpt lat="-27.4411524553" lon="152.9059390537"><ele>140.49</ele><time>2016-11-17T01:17:35Z</time></trkpt><trkpt lat="-27.4411425646" lon="152.9059347790"><ele>140.97</ele><time>2016-11-17T01:17:43Z</time></trkpt><trkpt lat="-27.4411605857" lon="152.9059718270"><ele>141.45</ele><time>2016-11-17T01:17:55Z</time></trkpt><trkpt lat="-27.4411648605" lon="152.9059818015"><ele>139.05</ele><time>2016-11-17T01:18:01Z</time></trkpt><trkpt lat="-27.4411675427" lon="152.9059834778"><ele>143.85</ele><time>2016-11-17T01:18:02Z</time></trkpt><trkpt lat="-27.4411736615" lon="152.9059937876"><ele>140.97</ele><time>2016-11-17T01:18:11Z</time></trkpt><trkpt lat="-27.4411840551" lon="152.9060184304"><ele>140.97</ele><time>2016-11-17T01:18:28Z</time></trkpt><trkpt lat="-27.4411631003" lon="152.9060631897"><ele>142.89</ele><time>2016-11-17T01:18:35Z</time></trkpt><trkpt lat="-27.4411826301" lon="152.9061247967"><ele>143.85</ele><time>2016-11-17T01:18:43Z</time></trkpt><trkpt lat="-27.4411385413" lon="152.9061853141"><ele>145.78</ele><time>2016-11-17T01:18:52Z</time></trkpt><trkpt lat="-27.4411097914" lon="152.9062476754"><ele>147.22</ele><time>2016-11-17T01:19:01Z</time></trkpt><trkpt lat="-27.4410864897" lon="152.9063271359"><ele>148.66</ele><time>2016-11-17T01:19:10Z</time></trkpt><trkpt lat="-27.4410940334" lon="152.9064070154"><ele>150.10</ele><time>2016-11-17T01:19:19Z</time></trkpt><trkpt lat="-27.4411351047" lon="152.9064629227"><ele>151.06</ele><time>2016-11-17T01:19:26Z</time></trkpt><trkpt lat="-27.4411467556" lon="152.9065319896"><ele>151.54</ele><time>2016-11-17T01:19:33Z</time></trkpt><trkpt lat="-27.4411485996" lon="152.9066003859"><ele>152.51</ele><time>2016-11-17T01:19:41Z</time></trkpt><trkpt lat="-27.4411599990" lon="152.9066197481"><ele>152.99</ele><time>2016-11-17T01:19:49Z</time></trkpt><trkpt lat="-27.4411568139" lon="152.9066125397"><ele>152.99</ele><time>2016-11-17T01:20:05Z</time></trkpt><trkpt lat="-27.4411486834" lon="152.9066514317"><ele>152.99</ele><time>2016-11-17T01:20:16Z</time></trkpt><trkpt lat="-27.4411280639" lon="152.9066990409"><ele>153.47</ele><time>2016-11-17T01:20:23Z</time></trkpt><trkpt lat="-27.4411043432" lon="152.9067412019"><ele>154.43</ele><time>2016-11-17T01:20:31Z</time></trkpt><trkpt lat="-27.4411061034" lon="152.9067114461"><ele>154.43</ele><time>2016-11-17T01:20:42Z</time></trkpt><trkpt lat="-27.4411305785" lon="152.9066516832"><ele>152.99</ele><time>2016-11-17T01:20:49Z</time></trkpt><trkpt lat="-27.4411300756" lon="152.9066054150"><ele>152.99</ele><time>2016-11-17T01:20:57Z</time></trkpt><trkpt lat="-27.4411369488" lon="152.9065521900"><ele>152.03</ele><time>2016-11-17T01:21:06Z</time></trkpt><trkpt lat="-27.4411387090" lon="152.9066016432"><ele>152.03</ele><time>2016-11-17T01:21:13Z</time></trkpt><trkpt lat="-27.4411784392" lon="152.9066231847"><ele>152.03</ele><time>2016-11-17T01:21:20Z</time></trkpt><trkpt lat="-27.4412331730" lon="152.9066268727"><ele>151.06</ele><time>2016-11-17T01:21:28Z</time></trkpt><trkpt lat="-27.4412478413" lon="152.9066285491"><ele>151.06</ele><time>2016-11-17T01:21:35Z</time></trkpt><trkpt lat="-27.4412578158" lon="152.9066170659"><ele>151.06</ele><time>2016-11-17T01:21:44Z</time></trkpt><trkpt lat="-27.4412749987" lon="152.9066185746"><ele>150.10</ele><time>2016-11-17T01:21:52Z</time></trkpt><trkpt lat="-27.4413159024" lon="152.9066387750"><ele>149.62</ele><time>2016-11-17T01:22:00Z</time></trkpt><trkpt lat="-27.4413736537" lon="152.9066313151"><ele>148.18</ele><time>2016-11-17T01:22:07Z</time></trkpt><trkpt lat="-27.4414524436" lon="152.9066638369"><ele>145.78</ele><time>2016-11-17T01:22:18Z</time></trkpt><trkpt lat="-27.4414456543" lon="152.9066939279"><ele>145.30</ele><time>2016-11-17T01:22:24Z</time></trkpt><trkpt lat="-27.4414669443" lon="152.9067675211"><ele>144.82</ele><time>2016-11-17T01:22:33Z</time></trkpt><trkpt lat="-27.4414921738" lon="152.9068016354"><ele>143.85</ele><time>2016-11-17T01:22:40Z</time></trkpt><trkpt lat="-27.4414987955" lon="152.9068152141"><ele>143.37</ele><time>2016-11-17T01:22:49Z</time></trkpt><trkpt lat="-27.4415150564" lon="152.9068335705"><ele>143.37</ele><time>2016-11-17T01:22:55Z</time></trkpt><trkpt lat="-27.4415302277" lon="152.9068587162"><ele>142.41</ele><time>2016-11-17T01:23:05Z</time></trkpt><trkpt lat="-27.4415332451" lon="152.9068642482"><ele>142.41</ele><time>2016-11-17T01:23:15Z</time></trkpt><trkpt lat="-27.4415531941" lon="152.9068657570"><ele>141.45</ele><time>2016-11-17T01:23:22Z</time></trkpt><trkpt lat="-27.4415889848" lon="152.9068681877"><ele>139.53</ele><time>2016-11-17T01:23:29Z</time></trkpt><trkpt lat="-27.4416055810" lon="152.9068477359"><ele>139.05</ele><time>2016-11-17T01:23:38Z</time></trkpt><trkpt lat="-27.4416207522" lon="152.9068266973"><ele>138.57</ele><time>2016-11-17T01:23:46Z</time></trkpt><trkpt lat="-27.4416342471" lon="152.9068445507"><ele>137.61</ele><time>2016-11-17T01:23:49Z</time></trkpt><trkpt lat="-27.4416629970" lon="152.9068569560"><ele>135.68</ele><time>2016-11-17T01:23:56Z</time></trkpt><trkpt lat="-27.4417028110" lon="152.9068580456"><ele>133.76</ele><time>2016-11-17T01:24:04Z</time></trkpt><trkpt lat="-27.4417531863" lon="152.9068769887"><ele>131.84</ele><time>2016-11-17T01:24:12Z</time></trkpt><trkpt lat="-27.4418069981" lon="152.9069270287"><ele>130.40</ele><time>2016-11-17T01:24:20Z</time></trkpt><trkpt lat="-27.4418421183" lon="152.9069427028"><ele>129.43</ele><time>2016-11-17T01:24:27Z</time></trkpt><trkpt lat="-27.4418914877" lon="152.9069496598"><ele>127.03</ele><time>2016-11-17T01:24:35Z</time></trkpt><trkpt lat="-27.4419521727" lon="152.9069458041"><ele>125.59</ele><time>2016-11-17T01:24:43Z</time></trkpt><trkpt lat="-27.4420040566" lon="152.9069285374"><ele>123.67</ele><time>2016-11-17T01:24:51Z</time></trkpt><trkpt lat="-27.4420475587" lon="152.9068805091"><ele>123.19</ele><time>2016-11-17T01:24:58Z</time></trkpt><trkpt lat="-27.4420847744" lon="152.9068136215"><ele>120.78</ele><time>2016-11-17T01:25:07Z</time></trkpt><trkpt lat="-27.4421179667" lon="152.9067896493"><ele>119.34</ele><time>2016-11-17T01:25:14Z</time></trkpt><trkpt lat="-27.4421833456" lon="152.9067536071"><ele>118.38</ele><time>2016-11-17T01:25:23Z</time></trkpt><trkpt lat="-27.4422373250" lon="152.9067094345"><ele>115.98</ele><time>2016-11-17T01:25:32Z</time></trkpt><trkpt lat="-27.4422827549" lon="152.9067050759"><ele>115.01</ele><time>2016-11-17T01:25:38Z</time></trkpt><trkpt lat="-27.4423483014" lon="152.9066865519"><ele>113.57</ele><time>2016-11-17T01:25:46Z</time></trkpt><trkpt lat="-27.4424001854" lon="152.9066963587"><ele>111.65</ele><time>2016-11-17T01:25:53Z</time></trkpt><trkpt lat="-27.4424498063" lon="152.9067179002"><ele>110.69</ele><time>2016-11-17T01:26:01Z</time></trkpt><trkpt lat="-27.4425000977" lon="152.9067259468"><ele>109.25</ele><time>2016-11-17T01:26:08Z</time></trkpt><trkpt lat="-27.4425356369" lon="152.9067435488"><ele>108.29</ele><time>2016-11-17T01:26:15Z</time></trkpt><trkpt lat="-27.4425515626" lon="152.9067530204"><ele>107.81</ele><time>2016-11-17T01:26:22Z</time></trkpt><trkpt lat="-27.4426129181" lon="152.9067939240"><ele>105.88</ele><time>2016-11-17T01:26:30Z</time></trkpt><trkpt lat="-27.4426154327" lon="152.9068277031"><ele>105.40</ele><time>2016-11-17T01:26:39Z</time></trkpt><trkpt lat="-27.4426397402" lon="152.9068967700"><ele>103.96</ele><time>2016-11-17T01:26:47Z</time></trkpt><trkpt lat="-27.4426606111" lon="152.9069682676"><ele>102.52</ele><time>2016-11-17T01:26:54Z</time></trkpt><trkpt lat="-27.4426673166" lon="152.9069976043"><ele>102.04</ele><time>2016-11-17T01:27:01Z</time></trkpt><trkpt lat="-27.4426657241" lon="152.9070274439"><ele>101.56</ele><time>2016-11-17T01:27:08Z</time></trkpt><trkpt lat="-27.4426805601" lon="152.9070823453"><ele>100.60</ele><time>2016-11-17T01:27:16Z</time></trkpt><trkpt lat="-27.4426988326" lon="152.9070977680"><ele>99.63</ele><time>2016-11-17T01:27:24Z</time></trkpt><trkpt lat="-27.4426954798" lon="152.9071248416"><ele>99.15</ele><time>2016-11-17T01:27:39Z</time></trkpt><trkpt lat="-27.4426901154" lon="152.9071297031"><ele>98.19</ele><time>2016-11-17T01:27:51Z</time></trkpt><trkpt lat="-27.4426835775" lon="152.9071268532"><ele>101.56</ele><time>2016-11-17T01:27:52Z</time></trkpt><trkpt lat="-27.4426903669" lon="152.9070960078"><ele>99.63</ele><time>2016-11-17T01:28:00Z</time></trkpt><trkpt lat="-27.4427357968" lon="152.9070812557"><ele>101.08</ele><time>2016-11-17T01:28:08Z</time></trkpt><trkpt lat="-27.4427347910" lon="152.9070772324"><ele>97.71</ele><time>2016-11-17T01:28:09Z</time></trkpt><trkpt lat="-27.4427329469" lon="152.9070741311"><ele>103.96</ele><time>2016-11-17T01:28:10Z</time></trkpt><trkpt lat="-27.4427161831" lon="152.9070593789"><ele>101.08</ele><time>2016-11-17T01:28:27Z</time></trkpt><trkpt lat="-27.4427084718" lon="152.9070648272"><ele>100.60</ele><time>2016-11-17T01:28:38Z</time></trkpt><trkpt lat="-27.4427072983" lon="152.9070556909"><ele>100.60</ele><time>2016-11-17T01:28:53Z</time></trkpt><trkpt lat="-27.4427226372" lon="152.9070548527"><ele>100.60</ele><time>2016-11-17T01:29:07Z</time></trkpt><trkpt lat="-27.4427274987" lon="152.9070432857"><ele>102.04</ele><time>2016-11-17T01:29:20Z</time></trkpt><trkpt lat="-27.4427560810" lon="152.9070509132"><ele>100.60</ele><time>2016-11-17T01:29:35Z</time></trkpt><trkpt lat="-27.4427347071" lon="152.9070407711"><ele>100.60</ele><time>2016-11-17T01:29:53Z</time></trkpt><trkpt lat="-27.4427484535" lon="152.9070353229"><ele>101.56</ele><time>2016-11-17T01:30:06Z</time></trkpt><trkpt lat="-27.4427892733" lon="152.9070364963"><ele>101.56</ele><time>2016-11-17T01:30:13Z</time></trkpt><trkpt lat="-27.4428016786" lon="152.9070392624"><ele>101.08</ele><time>2016-11-17T01:30:21Z</time></trkpt><trkpt lat="-27.4427485373" lon="152.9070535954"><ele>101.08</ele><time>2016-11-17T01:30:28Z</time></trkpt><trkpt lat="-27.4426923785" lon="152.9070691019"><ele>100.11</ele><time>2016-11-17T01:30:37Z</time></trkpt><trkpt lat="-27.4426528998" lon="152.9070932418"><ele>99.15</ele><time>2016-11-17T01:30:46Z</time></trkpt><trkpt lat="-27.4426556658" lon="152.9070556909"><ele>101.08</ele><time>2016-11-17T01:30:53Z</time></trkpt><trkpt lat="-27.4426582642" lon="152.9070018791"><ele>102.04</ele><time>2016-11-17T01:31:01Z</time></trkpt><trkpt lat="-27.4426389020" lon="152.9069434572"><ele>103.00</ele><time>2016-11-17T01:31:09Z</time></trkpt><trkpt lat="-27.4426070508" lon="152.9068671819"><ele>104.92</ele><time>2016-11-17T01:31:19Z</time></trkpt><trkpt lat="-27.4425845034" lon="152.9067988694"><ele>105.88</ele><time>2016-11-17T01:31:27Z</time></trkpt><trkpt lat="-27.4425450247" lon="152.9067700356"><ele>107.81</ele><time>2016-11-17T01:31:35Z</time></trkpt><trkpt lat="-27.4424874410" lon="152.9067637492"><ele>109.25</ele><time>2016-11-17T01:31:44Z</time></trkpt><trkpt lat="-27.4424546678" lon="152.9067551158"><ele>110.21</ele><time>2016-11-17T01:31:52Z</time></trkpt><trkpt lat="-27.4424495548" lon="152.9067522660"><ele>110.21</ele><time>2016-11-17T01:32:03Z</time></trkpt><trkpt lat="-27.4424323719" lon="152.9067344125"><ele>110.21</ele><time>2016-11-17T01:32:13Z</time></trkpt><trkpt lat="-27.4424141832" lon="152.9067329038"><ele>110.69</ele><time>2016-11-17T01:32:20Z</time></trkpt><trkpt lat="-27.4423954077" lon="152.9067372624"><ele>112.13</ele><time>2016-11-17T01:32:27Z</time></trkpt><trkpt lat="-27.4424178712" lon="152.9067142960"><ele>112.13</ele><time>2016-11-17T01:32:37Z</time></trkpt><trkpt lat="-27.4424446095" lon="152.9067236837"><ele>110.69</ele><time>2016-11-17T01:32:44Z</time></trkpt><trkpt lat="-27.4424927216" lon="152.9067467339"><ele>110.21</ele><time>2016-11-17T01:32:51Z</time></trkpt><trkpt lat="-27.4425180349" lon="152.9067531042"><ele>109.73</ele><time>2016-11-17T01:32:59Z</time></trkpt><trkpt lat="-27.4425348826" lon="152.9067483265"><ele>109.25</ele><time>2016-11-17T01:33:05Z</time></trkpt><trkpt lat="-27.4425619561" lon="152.9067556188"><ele>108.77</ele><time>2016-11-17T01:33:11Z</time></trkpt><trkpt lat="-27.4425976630" lon="152.9067713767"><ele>106.84</ele><time>2016-11-17T01:33:18Z</time></trkpt><trkpt lat="-27.4426176120" lon="152.9067857936"><ele>106.84</ele><time>2016-11-17T01:33:26Z</time></trkpt><trkpt lat="-27.4425925501" lon="152.9067553673"><ele>106.84</ele><time>2016-11-17T01:33:33Z</time></trkpt><trkpt lat="-27.4426212162" lon="152.9068018030"><ele>106.84</ele><time>2016-11-17T01:33:44Z</time></trkpt><trkpt lat="-27.4426260777" lon="152.9067971930"><ele>106.36</ele><time>2016-11-17T01:33:51Z</time></trkpt><trkpt lat="-27.4426448531" lon="152.9068728816"><ele>104.92</ele><time>2016-11-17T01:33:59Z</time></trkpt><trkpt lat="-27.4426451046" lon="152.9069049004"><ele>104.44</ele><time>2016-11-17T01:34:06Z</time></trkpt><trkpt lat="-27.4426520616" lon="152.9069587123"><ele>103.48</ele><time>2016-11-17T01:34:13Z</time></trkpt><trkpt lat="-27.4426612817" lon="152.9069924075"><ele>102.52</ele><time>2016-11-17T01:34:21Z</time></trkpt><trkpt lat="-27.4426495470" lon="152.9070416931"><ele>102.04</ele><time>2016-11-17T01:34:30Z</time></trkpt><trkpt lat="-27.4426627904" lon="152.9070846085"><ele>100.60</ele><time>2016-11-17T01:34:38Z</time></trkpt><trkpt lat="-27.4426746927" lon="152.9070954211"><ele>100.60</ele><time>2016-11-17T01:34:48Z</time></trkpt><trkpt lat="-27.4427026045" lon="152.9071005341"><ele>100.11</ele><time>2016-11-17T01:34:54Z</time></trkpt><trkpt lat="-27.4427187815" lon="152.9070820101"><ele>100.11</ele><time>2016-11-17T01:35:00Z</time></trkpt><trkpt lat="-27.4427304324" lon="152.9070836026"><ele>101.56</ele><time>2016-11-17T01:35:02Z</time></trkpt><trkpt lat="-27.4427250680" lon="152.9070779867"><ele>101.56</ele><time>2016-11-17T01:35:12Z</time></trkpt><trkpt lat="-27.4427712522" lon="152.9070638213"><ele>101.56</ele><time>2016-11-17T01:35:19Z</time></trkpt><trkpt lat="-27.4428080488" lon="152.9070557747"><ele>101.56</ele><time>2016-11-17T01:35:25Z</time></trkpt><trkpt lat="-27.4428590946" lon="152.9070411064"><ele>100.60</ele><time>2016-11-17T01:35:34Z</time></trkpt><trkpt lat="-27.4429157563" lon="152.9070115183"><ele>100.60</ele><time>2016-11-17T01:35:43Z</time></trkpt><trkpt lat="-27.4429541454" lon="152.9070050642"><ele>101.56</ele><time>2016-11-17T01:35:52Z</time></trkpt><trkpt lat="-27.4429751839" lon="152.9069435410"><ele>102.04</ele><time>2016-11-17T01:35:58Z</time></trkpt><trkpt lat="-27.4430396408" lon="152.9068771563"><ele>102.04</ele><time>2016-11-17T01:36:08Z</time></trkpt><trkpt lat="-27.4430983979" lon="152.9068655055"><ele>103.00</ele><time>2016-11-17T01:36:17Z</time></trkpt><trkpt lat="-27.4431003258" lon="152.9068676010"><ele>103.48</ele><time>2016-11-17T01:36:28Z</time></trkpt><trkpt lat="-27.4431174248" lon="152.9068610631"><ele>103.48</ele><time>2016-11-17T01:36:35Z</time></trkpt><trkpt lat="-27.4431382120" lon="152.9068519268"><ele>103.48</ele><time>2016-11-17T01:36:44Z</time></trkpt><trkpt lat="-27.4431263935" lon="152.9068573751"><ele>103.48</ele><time>2016-11-17T01:36:51Z</time></trkpt><trkpt lat="-27.4431376252" lon="152.9068690259"><ele>103.96</ele><time>2016-11-17T01:37:00Z</time></trkpt><trkpt lat="-27.4431600887" lon="152.9068997875"><ele>104.92</ele><time>2016-11-17T01:37:06Z</time></trkpt><trkpt lat="-27.4431821331" lon="152.9068966862"><ele>106.36</ele><time>2016-11-17T01:37:15Z</time></trkpt><trkpt lat="-27.4431925267" lon="152.9069214966"><ele>106.84</ele><time>2016-11-17T01:37:23Z</time></trkpt><trkpt lat="-27.4432261381" lon="152.9069310520"><ele>106.84</ele><time>2016-11-17T01:37:35Z</time></trkpt><trkpt lat="-27.4432798661" lon="152.9069426190"><ele>107.32</ele><time>2016-11-17T01:37:42Z</time></trkpt><trkpt lat="-27.4433695525" lon="152.9069761466"><ele>108.29</ele><time>2016-11-17T01:37:51Z</time></trkpt><trkpt lat="-27.4434359372" lon="152.9070173856"><ele>109.73</ele><time>2016-11-17T01:38:01Z</time></trkpt><trkpt lat="-27.4434202630" lon="152.9070106801"><ele>109.73</ele><time>2016-11-17T01:38:10Z</time></trkpt><trkpt lat="-27.4434447382" lon="152.9070308805"><ele>109.73</ele><time>2016-11-17T01:38:21Z</time></trkpt><trkpt lat="-27.4433963746" lon="152.9070518352"><ele>110.69</ele><time>2016-11-17T01:38:31Z</time></trkpt><trkpt lat="-27.4433413055" lon="152.9070756398"><ele>112.13</ele><time>2016-11-17T01:38:38Z</time></trkpt><trkpt lat="-27.4432985578" lon="152.9071381688"><ele>114.05</ele><time>2016-11-17T01:38:47Z</time></trkpt><trkpt lat="-27.4433067720" lon="152.9072000273"><ele>115.50</ele><time>2016-11-17T01:38:56Z</time></trkpt><trkpt lat="-27.4432888348" lon="152.9071529210"><ele>115.50</ele><time>2016-11-17T01:39:04Z</time></trkpt><trkpt lat="-27.4432841409" lon="152.9071477242"><ele>114.53</ele><time>2016-11-17T01:39:16Z</time></trkpt><trkpt lat="-27.4432848953" lon="152.9071377497"><ele>114.05</ele><time>2016-11-17T01:39:25Z</time></trkpt><trkpt lat="-27.4432749208" lon="152.9071481433"><ele>114.05</ele><time>2016-11-17T01:39:39Z</time></trkpt><trkpt lat="-27.4432463385" lon="152.9071830120"><ele>114.05</ele><time>2016-11-17T01:40:03Z</time></trkpt><trkpt lat="-27.4432514515" lon="152.9071659129"><ele>114.05</ele><time>2016-11-17T01:40:27Z</time></trkpt><trkpt lat="-27.4432942830" lon="152.9070666712"><ele>114.53</ele><time>2016-11-17T01:40:34Z</time></trkpt><trkpt lat="-27.4433562253" lon="152.9070054833"><ele>112.13</ele><time>2016-11-17T01:40:43Z</time></trkpt><trkpt lat="-27.4434297346" lon="152.9070097581"><ele>110.69</ele><time>2016-11-17T01:40:51Z</time></trkpt><trkpt lat="-27.4434537906" lon="152.9070204869"><ele>110.69</ele><time>2016-11-17T01:40:59Z</time></trkpt><trkpt lat="-27.4434631784" lon="152.9070390947"><ele>110.69</ele><time>2016-11-17T01:41:09Z</time></trkpt><trkpt lat="-27.4434568919" lon="152.9070319701"><ele>110.69</ele><time>2016-11-17T01:41:21Z</time></trkpt><trkpt lat="-27.4434737395" lon="152.9070349038"><ele>110.69</ele><time>2016-11-17T01:41:29Z</time></trkpt><trkpt lat="-27.4434107076" lon="152.9070487339"><ele>110.21</ele><time>2016-11-17T01:41:37Z</time></trkpt><trkpt lat="-27.4433730729" lon="152.9070524219"><ele>111.17</ele><time>2016-11-17T01:41:44Z</time></trkpt><trkpt lat="-27.4433396291" lon="152.9070543498"><ele>111.65</ele><time>2016-11-17T01:41:52Z</time></trkpt><trkpt lat="-27.4433896691" lon="152.9070296232"><ele>111.65</ele><time>2016-11-17T01:42:04Z</time></trkpt><trkpt lat="-27.4434375297" lon="152.9070258513"><ele>110.21</ele><time>2016-11-17T01:42:10Z</time></trkpt><trkpt lat="-27.4434955325" lon="152.9070333950"><ele>110.21</ele><time>2016-11-17T01:42:18Z</time></trkpt><trkpt lat="-27.4435440637" lon="152.9070551042"><ele>109.25</ele><time>2016-11-17T01:42:26Z</time></trkpt><trkpt lat="-27.4435661919" lon="152.9070446268"><ele>108.77</ele><time>2016-11-17T01:42:41Z</time></trkpt><trkpt lat="-27.4436235242" lon="152.9070716165"><ele>107.81</ele><time>2016-11-17T01:42:49Z</time></trkpt><trkpt lat="-27.4436899088" lon="152.9071231652"><ele>106.36</ele><time>2016-11-17T01:42:57Z</time></trkpt><trkpt lat="-27.4437244423" lon="152.9072021227"><ele>105.40</ele><time>2016-11-17T01:43:05Z</time></trkpt><trkpt lat="-27.4437631667" lon="152.9072264303"><ele>104.44</ele><time>2016-11-17T01:43:12Z</time></trkpt><trkpt lat="-27.4438070878" lon="152.9072144441"><ele>103.00</ele><time>2016-11-17T01:43:20Z</time></trkpt><trkpt lat="-27.4438646715" lon="152.9072359856"><ele>100.60</ele><time>2016-11-17T01:43:28Z</time></trkpt><trkpt lat="-27.4439110234" lon="152.9072787333"><ele>98.67</ele><time>2016-11-17T01:43:37Z</time></trkpt><trkpt lat="-27.4439577945" lon="152.9072659090"><ele>97.71</ele><time>2016-11-17T01:43:43Z</time></trkpt><trkpt lat="-27.4440117739" lon="152.9072365724"><ele>95.79</ele><time>2016-11-17T01:43:50Z</time></trkpt><trkpt lat="-27.4440748058" lon="152.9072203115"><ele>94.35</ele><time>2016-11-17T01:43:59Z</time></trkpt><trkpt lat="-27.4441506620" lon="152.9072522465"><ele>92.90</ele><time>2016-11-17T01:44:07Z</time></trkpt><trkpt lat="-27.4442402646" lon="152.9072289448"><ele>91.94</ele><time>2016-11-17T01:44:15Z</time></trkpt><trkpt lat="-27.4442976806" lon="152.9072259273"><ele>91.94</ele><time>2016-11-17T01:44:21Z</time></trkpt><trkpt lat="-27.4443379976" lon="152.9072160367"><ele>93.39</ele><time>2016-11-17T01:44:25Z</time></trkpt><trkpt lat="-27.4444271810" lon="152.9071703553"><ele>93.39</ele><time>2016-11-17T01:44:33Z</time></trkpt><trkpt lat="-27.4444963317" lon="152.9071455449"><ele>91.46</ele><time>2016-11-17T01:44:40Z</time></trkpt><trkpt lat="-27.4446014408" lon="152.9070970137"><ele>90.02</ele><time>2016-11-17T01:44:49Z</time></trkpt><trkpt lat="-27.4446151871" lon="152.9070656653"><ele>89.54</ele><time>2016-11-17T01:44:55Z</time></trkpt><trkpt lat="-27.4446105771" lon="152.9070447106"><ele>89.54</ele><time>2016-11-17T01:44:58Z</time></trkpt><trkpt lat="-27.4445901252" lon="152.9069633223"><ele>89.06</ele><time>2016-11-17T01:45:06Z</time></trkpt><trkpt lat="-27.4446108285" lon="152.9068715405"><ele>89.06</ele><time>2016-11-17T01:45:14Z</time></trkpt><trkpt lat="-27.4445829168" lon="152.9068061616"><ele>89.06</ele><time>2016-11-17T01:45:22Z</time></trkpt><trkpt lat="-27.4446262512" lon="152.9067763221"><ele>89.06</ele><time>2016-11-17T01:45:29Z</time></trkpt><trkpt lat="-27.4446586892" lon="152.9067355022"><ele>89.06</ele><time>2016-11-17T01:45:36Z</time></trkpt><trkpt lat="-27.4446794763" lon="152.9067080095"><ele>88.58</ele><time>2016-11-17T01:45:44Z</time></trkpt><trkpt lat="-27.4446586054" lon="152.9067098536"><ele>88.58</ele><time>2016-11-17T01:45:51Z</time></trkpt><trkpt lat="-27.4446474575" lon="152.9067298863"><ele>88.58</ele><time>2016-11-17T01:45:58Z</time></trkpt><trkpt lat="-27.4446509778" lon="152.9067550320"><ele>88.58</ele><time>2016-11-17T01:46:11Z</time></trkpt><trkpt lat="-27.4446560070" lon="152.9067331553"><ele>88.10</ele><time>2016-11-17T01:46:17Z</time></trkpt><trkpt lat="-27.4446681608" lon="152.9067109432"><ele>88.10</ele><time>2016-11-17T01:46:24Z</time></trkpt><trkpt lat="-27.4446829967" lon="152.9067203309"><ele>88.10</ele><time>2016-11-17T01:46:32Z</time></trkpt><trkpt lat="-27.4447295163" lon="152.9066821933"><ele>88.10</ele><time>2016-11-17T01:46:40Z</time></trkpt><trkpt lat="-27.4447732698" lon="152.9066346679"><ele>88.10</ele><time>2016-11-17T01:46:47Z</time></trkpt><trkpt lat="-27.4448259920" lon="152.9066078458"><ele>88.10</ele><time>2016-11-17T01:46:54Z</time></trkpt><trkpt lat="-27.4448725116" lon="152.9065863043"><ele>88.10</ele><time>2016-11-17T01:46:59Z</time></trkpt><trkpt lat="-27.4449616950" lon="152.9065628350"><ele>87.62</ele><time>2016-11-17T01:47:08Z</time></trkpt><trkpt lat="-27.4450127408" lon="152.9065193329"><ele>87.14</ele><time>2016-11-17T01:47:14Z</time></trkpt><trkpt lat="-27.4450550694" lon="152.9065440595"><ele>86.66</ele><time>2016-11-17T01:47:23Z</time></trkpt><trkpt lat="-27.4450895190" lon="152.9065630026"><ele>87.62</ele><time>2016-11-17T01:47:29Z</time></trkpt><trkpt lat="-27.4451133236" lon="152.9065858014"><ele>89.06</ele><time>2016-11-17T01:47:36Z</time></trkpt><trkpt lat="-27.4450870045" lon="152.9065522738"><ele>87.62</ele><time>2016-11-17T01:47:43Z</time></trkpt><trkpt lat="-27.4450794607" lon="152.9065533634"><ele>87.62</ele><time>2016-11-17T01:47:44Z</time></trkpt><trkpt lat="-27.4450372159" lon="152.9065307323"><ele>87.14</ele><time>2016-11-17T01:47:50Z</time></trkpt><trkpt lat="-27.4450350367" lon="152.9064930975"><ele>87.14</ele><time>2016-11-17T01:47:57Z</time></trkpt><trkpt lat="-27.4450491183" lon="152.9064425547"><ele>87.14</ele><time>2016-11-17T01:48:04Z</time></trkpt><trkpt lat="-27.4450751860" lon="152.9063935205"><ele>87.14</ele><time>2016-11-17T01:48:10Z</time></trkpt><trkpt lat="-27.4451271538" lon="152.9064087756"><ele>87.14</ele><time>2016-11-17T01:48:18Z</time></trkpt><trkpt lat="-27.4451895989" lon="152.9064712208"><ele>89.06</ele><time>2016-11-17T01:48:27Z</time></trkpt><trkpt lat="-27.4452388845" lon="152.9064897448"><ele>90.50</ele><time>2016-11-17T01:48:34Z</time></trkpt><trkpt lat="-27.4452831410" lon="152.9064947739"><ele>90.50</ele><time>2016-11-17T01:48:42Z</time></trkpt><trkpt lat="-27.4452860747" lon="152.9064847156"><ele>90.98</ele><time>2016-11-17T01:48:51Z</time></trkpt><trkpt lat="-27.4452973902" lon="152.9065113701"><ele>90.50</ele><time>2016-11-17T01:49:04Z</time></trkpt><trkpt lat="-27.4453574885" lon="152.9065192491"><ele>90.50</ele><time>2016-11-17T01:49:10Z</time></trkpt><trkpt lat="-27.4454051815" lon="152.9065398686"><ele>90.50</ele><time>2016-11-17T01:49:13Z</time></trkpt><trkpt lat="-27.4454437383" lon="152.9066046607"><ele>90.50</ele><time>2016-11-17T01:49:18Z</time></trkpt><trkpt lat="-27.4454421457" lon="152.9066822771"><ele>90.02</ele><time>2016-11-17T01:49:26Z</time></trkpt><trkpt lat="-27.4453994818" lon="152.9067372624"><ele>90.02</ele><time>2016-11-17T01:49:33Z</time></trkpt><trkpt lat="-27.4453885015" lon="152.9067803454"><ele>90.02</ele><time>2016-11-17T01:49:40Z</time></trkpt><trkpt lat="-27.4453310855" lon="152.9067863803"><ele>90.02</ele><time>2016-11-17T01:49:47Z</time></trkpt><trkpt lat="-27.4453330133" lon="152.9067805968"><ele>90.02</ele><time>2016-11-17T01:49:53Z</time></trkpt><trkpt lat="-27.4453772698" lon="152.9067704547"><ele>90.02</ele><time>2016-11-17T01:50:00Z</time></trkpt><trkpt lat="-27.4453825504" lon="152.9067268688"><ele>91.94</ele><time>2016-11-17T01:50:08Z</time></trkpt><trkpt lat="-27.4454015773" lon="152.9066729732"><ele>89.54</ele><time>2016-11-17T01:50:15Z</time></trkpt><trkpt lat="-27.4454568978" lon="152.9066856299"><ele>89.06</ele><time>2016-11-17T01:50:23Z</time></trkpt><trkpt lat="-27.4454770982" lon="152.9066635855"><ele>89.06</ele><time>2016-11-17T01:50:29Z</time></trkpt><trkpt lat="-27.4455521163" lon="152.9066185746"><ele>89.06</ele><time>2016-11-17T01:50:38Z</time></trkpt><trkpt lat="-27.4455666170" lon="152.9066077620"><ele>88.58</ele><time>2016-11-17T01:50:46Z</time></trkpt><trkpt lat="-27.4456216861" lon="152.9065946862"><ele>88.58</ele><time>2016-11-17T01:50:53Z</time></trkpt><trkpt lat="-27.4457125459" lon="152.9065836221"><ele>88.10</ele><time>2016-11-17T01:51:01Z</time></trkpt><trkpt lat="-27.4457245320" lon="152.9065803532"><ele>88.10</ele><time>2016-11-17T01:51:02Z</time></trkpt><trkpt lat="-27.4457249511" lon="152.9065119568"><ele>87.62</ele><time>2016-11-17T01:51:08Z</time></trkpt><trkpt lat="-27.4456912559" lon="152.9063962866"><ele>87.62</ele><time>2016-11-17T01:51:17Z</time></trkpt><trkpt lat="-27.4456716422" lon="152.9063582327"><ele>87.62</ele><time>2016-11-17T01:51:21Z</time></trkpt><trkpt lat="-27.4456331693" lon="152.9062227812"><ele>87.62</ele><time>2016-11-17T01:51:31Z</time></trkpt><trkpt lat="-27.4455796089" lon="152.9060731642"><ele>87.62</ele><time>2016-11-17T01:51:42Z</time></trkpt><trkpt lat="-27.4455211032" lon="152.9059271514"><ele>87.62</ele><time>2016-11-17T01:51:52Z</time></trkpt><trkpt lat="-27.4454828817" lon="152.9057909455"><ele>85.21</ele><time>2016-11-17T01:52:03Z</time></trkpt><trkpt lat="-27.4454785232" lon="152.9057819769"><ele>84.73</ele><time>2016-11-17T01:52:04Z</time></trkpt><trkpt lat="-27.4454264715" lon="152.9057191126"><ele>84.25</ele><time>2016-11-17T01:52:12Z</time></trkpt><trkpt lat="-27.4453723244" lon="152.9056521412"><ele>84.25</ele><time>2016-11-17T01:52:22Z</time></trkpt><trkpt lat="-27.4453491066" lon="152.9056338686"><ele>83.29</ele><time>2016-11-17T01:52:27Z</time></trkpt><trkpt lat="-27.4452647846" lon="152.9055382311"><ele>85.21</ele><time>2016-11-17T01:52:35Z</time></trkpt><trkpt lat="-27.4452403933" lon="152.9054705054"><ele>84.73</ele><time>2016-11-17T01:52:40Z</time></trkpt><trkpt lat="-27.4452815484" lon="152.9053036217"><ele>83.77</ele><time>2016-11-17T01:52:52Z</time></trkpt><trkpt lat="-27.4453065265" lon="152.9052105825"><ele>82.33</ele><time>2016-11-17T01:53:01Z</time></trkpt><trkpt lat="-27.4453154951" lon="152.9052032903"><ele>82.33</ele><time>2016-11-17T01:53:09Z</time></trkpt><trkpt lat="-27.4453008268" lon="152.9051843472"><ele>82.33</ele><time>2016-11-17T01:53:16Z</time></trkpt><trkpt lat="-27.4453098793" lon="152.9051515739"><ele>82.33</ele><time>2016-11-17T01:53:28Z</time></trkpt><trkpt lat="-27.4452936184" lon="152.9051433597"><ele>82.33</ele><time>2016-11-17T01:53:38Z</time></trkpt><trkpt lat="-27.4452838954" lon="152.9051462933"><ele>81.85</ele><time>2016-11-17T01:53:50Z</time></trkpt><trkpt lat="-27.4452956300" lon="152.9051302839"><ele>81.85</ele><time>2016-11-17T01:54:01Z</time></trkpt><trkpt lat="-27.4452972226" lon="152.9051254224"><ele>81.85</ele><time>2016-11-17T01:54:12Z</time></trkpt><trkpt lat="-27.4452787824" lon="152.9051320441"><ele>81.85</ele><time>2016-11-17T01:54:26Z</time></trkpt><trkpt lat="-27.4452854879" lon="152.9051379114"><ele>81.85</ele><time>2016-11-17T01:54:36Z</time></trkpt><trkpt lat="-27.4452933669" lon="152.9051488917"><ele>81.85</ele><time>2016-11-17T01:54:47Z</time></trkpt><trkpt lat="-27.4452531338" lon="152.9051470477"><ele>81.85</ele><time>2016-11-17T01:55:00Z</time></trkpt><trkpt lat="-27.4452263955" lon="152.9051348101"><ele>82.33</ele><time>2016-11-17T01:55:08Z</time></trkpt><trkpt lat="-27.4452541396" lon="152.9051467124"><ele>82.33</ele><time>2016-11-17T01:55:15Z</time></trkpt><trkpt lat="-27.4452729151" lon="152.9051915556"><ele>82.33</ele><time>2016-11-17T01:55:21Z</time></trkpt><trkpt lat="-27.4452224560" lon="152.9052199703"><ele>82.33</ele><time>2016-11-17T01:55:28Z</time></trkpt><trkpt lat="-27.4451592565" lon="152.9052731954"><ele>82.33</ele><time>2016-11-17T01:55:36Z</time></trkpt><trkpt lat="-27.4450846575" lon="152.9053134285"><ele>82.33</ele><time>2016-11-17T01:55:44Z</time></trkpt><trkpt lat="-27.4450642895" lon="152.9053327069"><ele>82.33</ele><time>2016-11-17T01:55:46Z</time></trkpt><trkpt lat="-27.4449496251" lon="152.9054645542"><ele>82.33</ele><time>2016-11-17T01:55:58Z</time></trkpt><trkpt lat="-27.4448933825" lon="152.9055036139"><ele>82.33</ele><time>2016-11-17T01:56:03Z</time></trkpt><trkpt lat="-27.4448251538" lon="152.9056197871"><ele>82.33</ele><time>2016-11-17T01:56:13Z</time></trkpt><trkpt lat="-27.4447848368" lon="152.9057000857"><ele>82.33</ele><time>2016-11-17T01:56:20Z</time></trkpt><trkpt lat="-27.4447568413" lon="152.9057991598"><ele>82.33</ele><time>2016-11-17T01:56:28Z</time></trkpt><trkpt lat="-27.4447520636" lon="152.9058550671"><ele>83.29</ele><time>2016-11-17T01:56:32Z</time></trkpt><trkpt lat="-27.4447339587" lon="152.9059261456"><ele>83.77</ele><time>2016-11-17T01:56:39Z</time></trkpt><trkpt lat="-27.4447067175" lon="152.9059056100"><ele>84.25</ele><time>2016-11-17T01:56:45Z</time></trkpt><trkpt lat="-27.4446677417" lon="152.9059542250"><ele>84.25</ele><time>2016-11-17T01:56:52Z</time></trkpt><trkpt lat="-27.4446565937" lon="152.9059666302"><ele>84.25</ele><time>2016-11-17T01:56:58Z</time></trkpt><trkpt lat="-27.4446535762" lon="152.9060011636"><ele>84.25</ele><time>2016-11-17T01:57:05Z</time></trkpt><trkpt lat="-27.4446486309" lon="152.9060344398"><ele>84.25</ele><time>2016-11-17T01:57:15Z</time></trkpt><trkpt lat="-27.4446272571" lon="152.9060808755"><ele>84.25</ele><time>2016-11-17T01:57:20Z</time></trkpt><trkpt lat="-27.4446075596" lon="152.9061161634"><ele>82.81</ele><time>2016-11-17T01:57:24Z</time></trkpt><trkpt lat="-27.4445896223" lon="152.9061585758"><ele>82.81</ele><time>2016-11-17T01:57:31Z</time></trkpt><trkpt lat="-27.4445861019" lon="152.9061806202"><ele>82.81</ele><time>2016-11-17T01:57:40Z</time></trkpt><trkpt lat="-27.4445664883" lon="152.9062015750"><ele>82.81</ele><time>2016-11-17T01:57:50Z</time></trkpt><trkpt lat="-27.4445698410" lon="152.9062290676"><ele>82.81</ele><time>2016-11-17T01:57:57Z</time></trkpt><trkpt lat="-27.4445738643" lon="152.9062283970"><ele>82.81</ele><time>2016-11-17T01:58:04Z</time></trkpt><trkpt lat="-27.4445664044" lon="152.9062354378"><ele>82.81</ele><time>2016-11-17T01:58:12Z</time></trkpt><trkpt lat="-27.4445739482" lon="152.9062529560"><ele>82.81</ele><time>2016-11-17T01:58:20Z</time></trkpt><trkpt lat="-27.4445612077" lon="152.9062680434"><ele>82.81</ele><time>2016-11-17T01:58:28Z</time></trkpt><trkpt lat="-27.4445395824" lon="152.9063066002"><ele>82.81</ele><time>2016-11-17T01:58:35Z</time></trkpt><trkpt lat="-27.4445118383" lon="152.9063205142"><ele>82.81</ele><time>2016-11-17T01:58:43Z</time></trkpt><trkpt lat="-27.4444949906" lon="152.9063604958"><ele>82.81</ele><time>2016-11-17T01:58:50Z</time></trkpt><trkpt lat="-27.4444714375" lon="152.9063851386"><ele>82.81</ele><time>2016-11-17T01:58:57Z</time></trkpt><trkpt lat="-27.4444537517" lon="152.9063988850"><ele>82.81</ele><time>2016-11-17T01:59:05Z</time></trkpt><trkpt lat="-27.4444177095" lon="152.9064047523"><ele>82.81</ele><time>2016-11-17T01:59:13Z</time></trkpt><trkpt lat="-27.4444540031" lon="152.9063706379"><ele>82.81</ele><time>2016-11-17T01:59:21Z</time></trkpt><trkpt lat="-27.4444921408" lon="152.9063142277"><ele>82.81</ele><time>2016-11-17T01:59:29Z</time></trkpt><trkpt lat="-27.4444794841" lon="152.9063397925"><ele>82.33</ele><time>2016-11-17T01:59:38Z</time></trkpt><trkpt lat="-27.4444483034" lon="152.9063857254"><ele>82.33</ele><time>2016-11-17T01:59:45Z</time></trkpt><trkpt lat="-27.4443727825" lon="152.9064198397"><ele>82.33</ele><time>2016-11-17T01:59:54Z</time></trkpt><trkpt lat="-27.4443363212" lon="152.9064670298"><ele>82.33</ele><time>2016-11-17T02:00:01Z</time></trkpt><trkpt lat="-27.4443137739" lon="152.9064798541"><ele>82.33</ele><time>2016-11-17T02:00:10Z</time></trkpt><trkpt lat="-27.4442742113" lon="152.9064856376"><ele>81.37</ele><time>2016-11-17T02:00:25Z</time></trkpt><trkpt lat="-27.4442669190" lon="152.9064966179"><ele>83.29</ele><time>2016-11-17T02:00:34Z</time></trkpt><trkpt lat="-27.4442425277" lon="152.9065920878"><ele>82.33</ele><time>2016-11-17T02:00:43Z</time></trkpt><trkpt lat="-27.4442322180" lon="152.9066191614"><ele>82.33</ele><time>2016-11-17T02:00:53Z</time></trkpt><trkpt lat="-27.4442280270" lon="152.9066632502"><ele>82.33</ele><time>2016-11-17T02:01:00Z</time></trkpt><trkpt lat="-27.4442390911" lon="152.9066762421"><ele>82.33</ele><time>2016-11-17T02:01:07Z</time></trkpt><trkpt lat="-27.4442693498" lon="152.9066601489"><ele>83.29</ele><time>2016-11-17T02:01:15Z</time></trkpt><trkpt lat="-27.4442253448" lon="152.9066579696"><ele>83.29</ele><time>2016-11-17T02:01:26Z</time></trkpt><trkpt lat="-27.4442328047" lon="152.9066671059"><ele>83.29</ele><time>2016-11-17T02:01:33Z</time></trkpt><trkpt lat="-27.4442600459" lon="152.9066748172"><ele>83.29</ele><time>2016-11-17T02:01:45Z</time></trkpt><trkpt lat="-27.4442666676" lon="152.9066300578"><ele>83.29</ele><time>2016-11-17T02:01:52Z</time></trkpt><trkpt lat="-27.4442440365" lon="152.9066319857"><ele>83.29</ele><time>2016-11-17T02:02:04Z</time></trkpt><trkpt lat="-27.4442256801" lon="152.9066483304"><ele>83.29</ele><time>2016-11-17T02:02:09Z</time></trkpt><trkpt lat="-27.4442304578" lon="152.9066545330"><ele>83.29</ele><time>2016-11-17T02:02:17Z</time></trkpt><trkpt lat="-27.4442196451" lon="152.9066887312"><ele>83.29</ele><time>2016-11-17T02:02:24Z</time></trkpt><trkpt lat="-27.4442180526" lon="152.9066923354"><ele>78.00</ele><time>2016-11-17T02:02:26Z</time></trkpt><trkpt lat="-27.4442165438" lon="152.9066951014"><ele>85.69</ele><time>2016-11-17T02:02:27Z</time></trkpt><trkpt lat="-27.4442162085" lon="152.9066982865"><ele>85.69</ele><time>2016-11-17T02:02:28Z</time></trkpt><trkpt lat="-27.4442244228" lon="152.9066922516"><ele>82.81</ele><time>2016-11-17T02:02:30Z</time></trkpt><trkpt lat="-27.4442292005" lon="152.9066904914"><ele>82.81</ele><time>2016-11-17T02:02:40Z</time></trkpt><trkpt lat="-27.4442240875" lon="152.9066954367"><ele>85.21</ele><time>2016-11-17T02:02:51Z</time></trkpt><trkpt lat="-27.4441673420" lon="152.9066702910"><ele>83.29</ele><time>2016-11-17T02:02:59Z</time></trkpt><trkpt lat="-27.4441373348" lon="152.9066676088"><ele>83.29</ele><time>2016-11-17T02:03:06Z</time></trkpt><trkpt lat="-27.4440965988" lon="152.9066827800"><ele>83.29</ele><time>2016-11-17T02:03:17Z</time></trkpt><trkpt lat="-27.4440287054" lon="152.9066894855"><ele>82.81</ele><time>2016-11-17T02:03:24Z</time></trkpt><trkpt lat="-27.4439800903" lon="152.9067059979"><ele>82.81</ele><time>2016-11-17T02:03:32Z</time></trkpt><trkpt lat="-27.4439230096" lon="152.9067204148"><ele>82.81</ele><time>2016-11-17T02:03:38Z</time></trkpt><trkpt lat="-27.4438188225" lon="152.9067178164"><ele>82.81</ele><time>2016-11-17T02:03:48Z</time></trkpt><trkpt lat="-27.4437655136" lon="152.9067288805"><ele>83.77</ele><time>2016-11-17T02:03:55Z</time></trkpt><trkpt lat="-27.4437362608" lon="152.9067301378"><ele>83.77</ele><time>2016-11-17T02:04:01Z</time></trkpt><trkpt lat="-27.4436759949" lon="152.9067225102"><ele>83.77</ele><time>2016-11-17T02:04:08Z</time></trkpt><trkpt lat="-27.4436274637" lon="152.9067337420"><ele>83.77</ele><time>2016-11-17T02:04:14Z</time></trkpt><trkpt lat="-27.4435827043" lon="152.9067250248"><ele>83.77</ele><time>2016-11-17T02:04:21Z</time></trkpt><trkpt lat="-27.4434964545" lon="152.9066909943"><ele>83.77</ele><time>2016-11-17T02:04:29Z</time></trkpt><trkpt lat="-27.4434173293" lon="152.9066529404"><ele>83.77</ele><time>2016-11-17T02:04:37Z</time></trkpt><trkpt lat="-27.4433595780" lon="152.9066374339"><ele>82.81</ele><time>2016-11-17T02:04:45Z</time></trkpt><trkpt lat="-27.4433501903" lon="152.9066345841"><ele>82.33</ele><time>2016-11-17T02:04:46Z</time></trkpt><trkpt lat="-27.4432767648" lon="152.9065968655"><ele>82.81</ele><time>2016-11-17T02:04:54Z</time></trkpt><trkpt lat="-27.4432437401" lon="152.9066059180"><ele>82.81</ele><time>2016-11-17T02:05:02Z</time></trkpt><trkpt lat="-27.4432095420" lon="152.9065863881"><ele>82.33</ele><time>2016-11-17T02:05:10Z</time></trkpt><trkpt lat="-27.4431688059" lon="152.9065676965"><ele>82.81</ele><time>2016-11-17T02:05:17Z</time></trkpt><trkpt lat="-27.4431321770" lon="152.9065547045"><ele>82.81</ele><time>2016-11-17T02:05:25Z</time></trkpt><trkpt lat="-27.4431499466" lon="152.9065401200"><ele>82.33</ele><time>2016-11-17T02:05:35Z</time></trkpt><trkpt lat="-27.4431337696" lon="152.9065479990"><ele>82.81</ele><time>2016-11-17T02:05:44Z</time></trkpt><trkpt lat="-27.4430810474" lon="152.9065433051"><ele>82.81</ele><time>2016-11-17T02:05:51Z</time></trkpt><trkpt lat="-27.4430512078" lon="152.9065358452"><ele>84.25</ele><time>2016-11-17T02:05:58Z</time></trkpt><trkpt lat="-27.4430463463" lon="152.9065752402"><ele>84.73</ele><time>2016-11-17T02:06:05Z</time></trkpt><trkpt lat="-27.4430377129" lon="152.9065862205"><ele>84.25</ele><time>2016-11-17T02:06:14Z</time></trkpt><trkpt lat="-27.4430044368" lon="152.9065838736"><ele>84.25</ele><time>2016-11-17T02:06:22Z</time></trkpt><trkpt lat="-27.4429428298" lon="152.9065845441"><ele>84.73</ele><time>2016-11-17T02:06:30Z</time></trkpt><trkpt lat="-27.4429954682" lon="152.9065797664"><ele>84.73</ele><time>2016-11-17T02:06:38Z</time></trkpt><trkpt lat="-27.4430543929" lon="152.9065588117"><ele>84.73</ele><time>2016-11-17T02:06:46Z</time></trkpt><trkpt lat="-27.4431566522" lon="152.9065699596"><ele>84.73</ele><time>2016-11-17T02:06:56Z</time></trkpt><trkpt lat="-27.4431836419" lon="152.9065773357"><ele>83.77</ele><time>2016-11-17T02:07:03Z</time></trkpt><trkpt lat="-27.4432330951" lon="152.9065956920"><ele>83.77</ele><time>2016-11-17T02:07:14Z</time></trkpt><trkpt lat="-27.4432548881" lon="152.9065971170"><ele>83.77</ele><time>2016-11-17T02:07:16Z</time></trkpt><trkpt lat="-27.4433284812" lon="152.9065959435"><ele>83.29</ele><time>2016-11-17T02:07:24Z</time></trkpt><trkpt lat="-27.4433396291" lon="152.9066082649"><ele>83.29</ele><time>2016-11-17T02:07:32Z</time></trkpt><trkpt lat="-27.4433377013" lon="152.9066063371"><ele>83.29</ele><time>2016-11-17T02:07:34Z</time></trkpt><trkpt lat="-27.4433200154" lon="152.9065974522"><ele>83.29</ele><time>2016-11-17T02:07:36Z</time></trkpt><trkpt lat="-27.4432656169" lon="152.9065858852"><ele>82.81</ele><time>2016-11-17T02:07:43Z</time></trkpt><trkpt lat="-27.4431933649" lon="152.9065798502"><ele>82.81</ele><time>2016-11-17T02:07:51Z</time></trkpt><trkpt lat="-27.4431436602" lon="152.9065732285"><ele>83.77</ele><time>2016-11-17T02:07:59Z</time></trkpt><trkpt lat="-27.4431131501" lon="152.9065705463"><ele>83.77</ele><time>2016-11-17T02:08:06Z</time></trkpt><trkpt lat="-27.4430989847" lon="152.9065726418"><ele>83.77</ele><time>2016-11-17T02:08:12Z</time></trkpt><trkpt lat="-27.4430728331" lon="152.9065739829"><ele>84.25</ele><time>2016-11-17T02:08:20Z</time></trkpt><trkpt lat="-27.4430479389" lon="152.9065648466"><ele>84.73</ele><time>2016-11-17T02:08:28Z</time></trkpt><trkpt lat="-27.4430098012" lon="152.9065798502"><ele>84.73</ele><time>2016-11-17T02:08:35Z</time></trkpt><trkpt lat="-27.4429693166" lon="152.9065762460"><ele>84.73</ele><time>2016-11-17T02:08:41Z</time></trkpt><trkpt lat="-27.4429033510" lon="152.9065643437"><ele>85.21</ele><time>2016-11-17T02:08:49Z</time></trkpt><trkpt lat="-27.4428507965" lon="152.9065481666"><ele>85.21</ele><time>2016-11-17T02:08:55Z</time></trkpt><trkpt lat="-27.4428006727" lon="152.9065365158"><ele>85.21</ele><time>2016-11-17T02:09:03Z</time></trkpt><trkpt lat="-27.4427852500" lon="152.9065216798"><ele>85.21</ele><time>2016-11-17T02:09:09Z</time></trkpt><trkpt lat="-27.4427647982" lon="152.9065234400"><ele>85.21</ele><time>2016-11-17T02:09:16Z</time></trkpt><trkpt lat="-27.4427446816" lon="152.9065188300"><ele>85.21</ele><time>2016-11-17T02:09:23Z</time></trkpt><trkpt lat="-27.4427010957" lon="152.9065314028"><ele>85.21</ele><time>2016-11-17T02:09:30Z</time></trkpt><trkpt lat="-27.4426754471" lon="152.9065210931"><ele>85.69</ele><time>2016-11-17T02:09:36Z</time></trkpt><trkpt lat="-27.4426515587" lon="152.9065094423"><ele>85.69</ele><time>2016-11-17T02:09:43Z</time></trkpt><trkpt lat="-27.4426023569" lon="152.9064901639"><ele>85.69</ele><time>2016-11-17T02:09:50Z</time></trkpt><trkpt lat="-27.4425705895" lon="152.9064716399"><ele>85.69</ele><time>2016-11-17T02:09:56Z</time></trkpt><trkpt lat="-27.4425314460" lon="152.9064650182"><ele>85.69</ele><time>2016-11-17T02:10:05Z</time></trkpt><trkpt lat="-27.4425150175" lon="152.9064760823"><ele>85.69</ele><time>2016-11-17T02:10:14Z</time></trkpt><trkpt lat="-27.4424985051" lon="152.9064712208"><ele>86.18</ele><time>2016-11-17T02:10:24Z</time></trkpt><trkpt lat="-27.4424740300" lon="152.9064359330"><ele>86.18</ele><time>2016-11-17T02:10:32Z</time></trkpt><trkpt lat="-27.4424630497" lon="152.9064147267"><ele>84.73</ele><time>2016-11-17T02:10:39Z</time></trkpt><trkpt lat="-27.4424617924" lon="152.9064078536"><ele>84.73</ele><time>2016-11-17T02:10:40Z</time></trkpt><trkpt lat="-27.4424363114" lon="152.9063866474"><ele>84.73</ele><time>2016-11-17T02:10:47Z</time></trkpt><trkpt lat="-27.4424291868" lon="152.9063849710"><ele>84.73</ele><time>2016-11-17T02:10:56Z</time></trkpt><trkpt lat="-27.4424013589" lon="152.9063638486"><ele>84.73</ele><time>2016-11-17T02:11:03Z</time></trkpt><trkpt lat="-27.4423738662" lon="152.9063464142"><ele>84.73</ele><time>2016-11-17T02:11:10Z</time></trkpt><trkpt lat="-27.4423827510" lon="152.9063195083"><ele>84.73</ele><time>2016-11-17T02:11:16Z</time></trkpt><trkpt lat="-27.4423794821" lon="152.9062946979"><ele>84.73</ele><time>2016-11-17T02:11:30Z</time></trkpt><trkpt lat="-27.4423263408" lon="152.9062575661"><ele>84.73</ele><time>2016-11-17T02:11:39Z</time></trkpt><trkpt lat="-27.4423146900" lon="152.9062512796"><ele>85.21</ele><time>2016-11-17T02:11:47Z</time></trkpt><trkpt lat="-27.4423040450" lon="152.9062370304"><ele>85.21</ele><time>2016-11-17T02:11:58Z</time></trkpt><trkpt lat="-27.4422981776" lon="152.9062263854"><ele>85.21</ele><time>2016-11-17T02:12:10Z</time></trkpt><trkpt lat="-27.4422810785" lon="152.9062265530"><ele>87.14</ele><time>2016-11-17T02:12:16Z</time></trkpt><trkpt lat="-27.4422276020" lon="152.9061619285"><ele>87.14</ele><time>2016-11-17T02:12:25Z</time></trkpt><trkpt lat="-27.4422048032" lon="152.9061218631"><ele>87.14</ele><time>2016-11-17T02:12:32Z</time></trkpt><trkpt lat="-27.4421961699" lon="152.9061126430"><ele>87.14</ele><time>2016-11-17T02:12:37Z</time></trkpt><trkpt lat="-27.4421921466" lon="152.9060670454"><ele>86.18</ele><time>2016-11-17T02:12:41Z</time></trkpt><trkpt lat="-27.4421691801" lon="152.9060136527"><ele>86.18</ele><time>2016-11-17T02:12:48Z</time></trkpt><trkpt lat="-27.4421893805" lon="152.9060215317"><ele>85.69</ele><time>2016-11-17T02:12:57Z</time></trkpt><trkpt lat="-27.4421727005" lon="152.9060097132"><ele>85.69</ele><time>2016-11-17T02:13:06Z</time></trkpt><trkpt lat="-27.4421618041" lon="152.9059787840"><ele>87.14</ele><time>2016-11-17T02:13:09Z</time></trkpt><trkpt lat="-27.4421559367" lon="152.9059622716"><ele>84.25</ele><time>2016-11-17T02:13:16Z</time></trkpt><trkpt lat="-27.4421566911" lon="152.9059632774"><ele>91.46</ele><time>2016-11-17T02:13:17Z</time></trkpt><trkpt lat="-27.4421558529" lon="152.9059650376"><ele>87.14</ele><time>2016-11-17T02:13:18Z</time></trkpt><trkpt lat="-27.4421525840" lon="152.9060000740"><ele>87.14</ele><time>2016-11-17T02:13:40Z</time></trkpt><trkpt lat="-27.4421286117" lon="152.9059991520"><ele>88.10</ele><time>2016-11-17T02:13:53Z</time></trkpt><trkpt lat="-27.4421474710" lon="152.9060361162"><ele>86.66</ele><time>2016-11-17T02:13:59Z</time></trkpt><trkpt lat="-27.4421835970" lon="152.9060468450"><ele>85.69</ele><time>2016-11-17T02:14:05Z</time></trkpt><trkpt lat="-27.4421966728" lon="152.9060215317"><ele>85.21</ele><time>2016-11-17T02:14:12Z</time></trkpt><trkpt lat="-27.4421815854" lon="152.9059813824"><ele>85.21</ele><time>2016-11-17T02:14:20Z</time></trkpt><trkpt lat="-27.4421860278" lon="152.9059301689"><ele>85.21</ele><time>2016-11-17T02:14:27Z</time></trkpt><trkpt lat="-27.4422079045" lon="152.9059150815"><ele>85.21</ele><time>2016-11-17T02:14:35Z</time></trkpt><trkpt lat="-27.4422006123" lon="152.9059590027"><ele>85.21</ele><time>2016-11-17T02:14:42Z</time></trkpt><trkpt lat="-27.4421999417" lon="152.9060069472"><ele>85.21</ele><time>2016-11-17T02:14:50Z</time></trkpt><trkpt lat="-27.4422273505" lon="152.9060276505"><ele>85.21</ele><time>2016-11-17T02:14:58Z</time></trkpt><trkpt lat="-27.4422328826" lon="152.9060617648"><ele>85.21</ele><time>2016-11-17T02:15:04Z</time></trkpt><trkpt lat="-27.4422089942" lon="152.9060719069"><ele>86.18</ele><time>2016-11-17T02:15:08Z</time></trkpt><trkpt lat="-27.4422065634" lon="152.9060791992"><ele>86.18</ele><time>2016-11-17T02:15:17Z</time></trkpt><trkpt lat="-27.4421953317" lon="152.9060693923"><ele>86.66</ele><time>2016-11-17T02:15:29Z</time></trkpt><trkpt lat="-27.4421691801" lon="152.9060221184"><ele>87.14</ele><time>2016-11-17T02:15:36Z</time></trkpt><trkpt lat="-27.4421587028" lon="152.9060015827"><ele>87.14</ele><time>2016-11-17T02:15:45Z</time></trkpt><trkpt lat="-27.4421669170" lon="152.9060158320"><ele>87.14</ele><time>2016-11-17T02:15:54Z</time></trkpt><trkpt lat="-27.4421804119" lon="152.9060451686"><ele>87.14</ele><time>2016-11-17T02:16:05Z</time></trkpt><trkpt lat="-27.4421830941" lon="152.9060500301"><ele>85.69</ele><time>2016-11-17T02:16:08Z</time></trkpt><trkpt lat="-27.4421800766" lon="152.9060352780"><ele>85.69</ele><time>2016-11-17T02:16:15Z</time></trkpt><trkpt lat="-27.4421898834" lon="152.9060284048"><ele>85.69</ele><time>2016-11-17T02:16:23Z</time></trkpt><trkpt lat="-27.4421851058" lon="152.9059812985"><ele>85.21</ele><time>2016-11-17T02:16:33Z</time></trkpt><trkpt lat="-27.4421905540" lon="152.9059636127"><ele>85.21</ele><time>2016-11-17T02:16:42Z</time></trkpt><trkpt lat="-27.4422001932" lon="152.9059098847"><ele>85.69</ele><time>2016-11-17T02:16:52Z</time></trkpt><trkpt lat="-27.4422053061" lon="152.9058838170"><ele>85.69</ele><time>2016-11-17T02:16:58Z</time></trkpt><trkpt lat="-27.4422182143" lon="152.9058844876"><ele>85.69</ele><time>2016-11-17T02:17:06Z</time></trkpt><trkpt lat="-27.4422211479" lon="152.9058706574"><ele>85.69</ele><time>2016-11-17T02:17:12Z</time></trkpt><trkpt lat="-27.4422219023" lon="152.9058597609"><ele>85.69</ele><time>2016-11-17T02:17:17Z</time></trkpt><trkpt lat="-27.4422363192" lon="152.9058478586"><ele>85.69</ele><time>2016-11-17T02:17:24Z</time></trkpt><trkpt lat="-27.4422479700" lon="152.9058213718"><ele>85.69</ele><time>2016-11-17T02:17:33Z</time></trkpt><trkpt lat="-27.4422719423" lon="152.9058193602"><ele>85.69</ele><time>2016-11-17T02:17:44Z</time></trkpt><trkpt lat="-27.4422659911" lon="152.9058086313"><ele>85.69</ele><time>2016-11-17T02:17:50Z</time></trkpt><trkpt lat="-27.4422683381" lon="152.9057794623"><ele>85.69</ele><time>2016-11-17T02:18:02Z</time></trkpt><trkpt lat="-27.4422773905" lon="152.9057416599"><ele>85.69</ele><time>2016-11-17T02:18:09Z</time></trkpt><trkpt lat="-27.4422804918" lon="152.9057121556"><ele>86.66</ele><time>2016-11-17T02:18:12Z</time></trkpt><trkpt lat="-27.4423025362" lon="152.9057124909"><ele>86.66</ele><time>2016-11-17T02:18:22Z</time></trkpt><trkpt lat="-27.4423208088" lon="152.9056491237"><ele>87.14</ele><time>2016-11-17T02:18:30Z</time></trkpt><trkpt lat="-27.4423531629" lon="152.9055835772"><ele>87.14</ele><time>2016-11-17T02:18:38Z</time></trkpt><trkpt lat="-27.4423447810" lon="152.9055102356"><ele>88.10</ele><time>2016-11-17T02:18:47Z</time></trkpt><trkpt lat="-27.4423737824" lon="152.9053930566"><ele>88.58</ele><time>2016-11-17T02:18:57Z</time></trkpt><trkpt lat="-27.4424032029" lon="152.9053424299"><ele>88.58</ele><time>2016-11-17T02:19:04Z</time></trkpt><trkpt lat="-27.4424430169" lon="152.9053032864"><ele>88.58</ele><time>2016-11-17T02:19:15Z</time></trkpt><trkpt lat="-27.4424740300" lon="152.9052750394"><ele>88.58</ele><time>2016-11-17T02:19:21Z</time></trkpt><trkpt lat="-27.4425355531" lon="152.9052438587"><ele>88.58</ele><time>2016-11-17T02:19:28Z</time></trkpt><trkpt lat="-27.4425656442" lon="152.9051967524"><ele>88.58</ele><time>2016-11-17T02:19:38Z</time></trkpt><trkpt lat="-27.4425969925" lon="152.9051493108"><ele>88.58</ele><time>2016-11-17T02:19:42Z</time></trkpt><trkpt lat="-27.4426738545" lon="152.9050864466"><ele>88.58</ele><time>2016-11-17T02:19:52Z</time></trkpt><trkpt lat="-27.4426791351" lon="152.9050549306"><ele>88.58</ele><time>2016-11-17T02:20:01Z</time></trkpt><trkpt lat="-27.4427046999" lon="152.9050456267"><ele>88.58</ele><time>2016-11-17T02:20:15Z</time></trkpt><trkpt lat="-27.4427511357" lon="152.9050041363"><ele>88.58</ele><time>2016-11-17T02:20:22Z</time></trkpt><trkpt lat="-27.4427678157" lon="152.9049908929"><ele>88.58</ele><time>2016-11-17T02:20:31Z</time></trkpt><trkpt lat="-27.4427706655" lon="152.9049719498"><ele>88.58</ele><time>2016-11-17T02:20:37Z</time></trkpt><trkpt lat="-27.4427826516" lon="152.9049639869"><ele>88.58</ele><time>2016-11-17T02:20:43Z</time></trkpt><trkpt lat="-27.4427886028" lon="152.9049303755"><ele>88.58</ele><time>2016-11-17T02:20:53Z</time></trkpt><trkpt lat="-27.4428108148" lon="152.9048903938"><ele>88.58</ele><time>2016-11-17T02:20:59Z</time></trkpt><trkpt lat="-27.4428214598" lon="152.9048662540"><ele>88.58</ele><time>2016-11-17T02:21:05Z</time></trkpt><trkpt lat="-27.4428550713" lon="152.9048183095"><ele>88.58</ele><time>2016-11-17T02:21:16Z</time></trkpt><trkpt lat="-27.4428389780" lon="152.9048142862"><ele>88.58</ele><time>2016-11-17T02:21:26Z</time></trkpt><trkpt lat="-27.4428611901" lon="152.9047993664"><ele>88.58</ele><time>2016-11-17T02:21:34Z</time></trkpt><trkpt lat="-27.4428931251" lon="152.9048076645"><ele>88.58</ele><time>2016-11-17T02:21:41Z</time></trkpt><trkpt lat="-27.4429388903" lon="152.9048588779"><ele>88.58</ele><time>2016-11-17T02:21:49Z</time></trkpt><trkpt lat="-27.4429275747" lon="152.9049127735"><ele>88.58</ele><time>2016-11-17T02:21:58Z</time></trkpt><trkpt lat="-27.4429166783" lon="152.9049110133"><ele>88.58</ele><time>2016-11-17T02:22:04Z</time></trkpt><trkpt lat="-27.4429037701" lon="152.9049278609"><ele>88.58</ele><time>2016-11-17T02:22:09Z</time></trkpt><trkpt lat="-27.4428863358" lon="152.9049127735"><ele>88.58</ele><time>2016-11-17T02:22:15Z</time></trkpt><trkpt lat="-27.4428986572" lon="152.9049180541"><ele>88.58</ele><time>2016-11-17T02:22:22Z</time></trkpt><trkpt lat="-27.4429138284" lon="152.9048996139"><ele>88.58</ele><time>2016-11-17T02:22:27Z</time></trkpt><trkpt lat="-27.4429252278" lon="152.9048453830"><ele>89.06</ele><time>2016-11-17T02:22:34Z</time></trkpt><trkpt lat="-27.4429062847" lon="152.9048143700"><ele>89.06</ele><time>2016-11-17T02:22:41Z</time></trkpt><trkpt lat="-27.4428875931" lon="152.9047732148"><ele>89.06</ele><time>2016-11-17T02:22:47Z</time></trkpt><trkpt lat="-27.4428863358" lon="152.9047682695"><ele>89.06</ele><time>2016-11-17T02:22:57Z</time></trkpt><trkpt lat="-27.4428911973" lon="152.9047365021"><ele>89.06</ele><time>2016-11-17T02:23:06Z</time></trkpt><trkpt lat="-27.4428874254" lon="152.9046959337"><ele>89.06</ele><time>2016-11-17T02:23:13Z</time></trkpt><trkpt lat="-27.4428735115" lon="152.9046632443"><ele>87.62</ele><time>2016-11-17T02:23:19Z</time></trkpt><trkpt lat="-27.4428709969" lon="152.9046094324"><ele>87.62</ele><time>2016-11-17T02:23:26Z</time></trkpt><trkpt lat="-27.4428756908" lon="152.9045719653"><ele>89.54</ele><time>2016-11-17T02:23:33Z</time></trkpt><trkpt lat="-27.4429028481" lon="152.9045417067"><ele>89.54</ele><time>2016-11-17T02:23:41Z</time></trkpt><trkpt lat="-27.4429073744" lon="152.9045093525"><ele>89.54</ele><time>2016-11-17T02:23:52Z</time></trkpt><trkpt lat="-27.4429045245" lon="152.9044651799"><ele>90.50</ele><time>2016-11-17T02:24:00Z</time></trkpt><trkpt lat="-27.4429183546" lon="152.9044458177"><ele>91.94</ele><time>2016-11-17T02:24:02Z</time></trkpt><trkpt lat="-27.4429034349" lon="152.9043889046"><ele>91.94</ele><time>2016-11-17T02:24:10Z</time></trkpt><trkpt lat="-27.4428981543" lon="152.9043656867"><ele>91.94</ele><time>2016-11-17T02:24:18Z</time></trkpt><trkpt lat="-27.4429038540" lon="152.9043484200"><ele>91.94</ele><time>2016-11-17T02:24:29Z</time></trkpt><trkpt lat="-27.4428409897" lon="152.9043150600"><ele>90.50</ele><time>2016-11-17T02:24:37Z</time></trkpt><trkpt lat="-27.4427638762" lon="152.9042628407"><ele>90.50</ele><time>2016-11-17T02:24:45Z</time></trkpt><trkpt lat="-27.4427009281" lon="152.9042084422"><ele>90.02</ele><time>2016-11-17T02:24:53Z</time></trkpt><trkpt lat="-27.4426927976" lon="152.9041869007"><ele>90.02</ele><time>2016-11-17T02:25:01Z</time></trkpt><trkpt lat="-27.4427179433" lon="152.9042269662"><ele>90.02</ele><time>2016-11-17T02:25:09Z</time></trkpt><trkpt lat="-27.4427530635" lon="152.9042487592"><ele>90.02</ele><time>2016-11-17T02:25:18Z</time></trkpt><trkpt lat="-27.4427521415" lon="152.9042639304"><ele>90.02</ele><time>2016-11-17T02:25:28Z</time></trkpt><trkpt lat="-27.4427251518" lon="152.9042623378"><ele>90.02</ele><time>2016-11-17T02:25:37Z</time></trkpt><trkpt lat="-27.4427122436" lon="152.9042483401"><ele>90.02</ele><time>2016-11-17T02:25:45Z</time></trkpt><trkpt lat="-27.4427031912" lon="152.9042371083"><ele>90.02</ele><time>2016-11-17T02:26:02Z</time></trkpt><trkpt lat="-27.4427098967" lon="152.9042497650"><ele>90.02</ele><time>2016-11-17T02:26:14Z</time></trkpt><trkpt lat="-27.4427187815" lon="152.9042469990"><ele>90.02</ele><time>2016-11-17T02:26:25Z</time></trkpt><trkpt lat="-27.4427199550" lon="152.9042504355"><ele>92.42</ele><time>2016-11-17T02:26:37Z</time></trkpt><trkpt lat="-27.4428044446" lon="152.9042937700"><ele>90.50</ele><time>2016-11-17T02:26:46Z</time></trkpt><trkpt lat="-27.4428609386" lon="152.9043132998"><ele>90.50</ele><time>2016-11-17T02:26:53Z</time></trkpt><trkpt lat="-27.4429108948" lon="152.9042979609"><ele>90.50</ele><time>2016-11-17T02:27:03Z</time></trkpt><trkpt lat="-27.4428963941" lon="152.9042113759"><ele>90.50</ele><time>2016-11-17T02:27:13Z</time></trkpt><trkpt lat="-27.4428866711" lon="152.9041397944"><ele>90.50</ele><time>2016-11-17T02:27:21Z</time></trkpt><trkpt lat="-27.4428904429" lon="152.9041616712"><ele>90.50</ele><time>2016-11-17T02:27:29Z</time></trkpt><trkpt lat="-27.4429119844" lon="152.9041423928"><ele>90.50</ele><time>2016-11-17T02:27:37Z</time></trkpt><trkpt lat="-27.4429326039" lon="152.9041293170"><ele>90.50</ele><time>2016-11-17T02:27:46Z</time></trkpt><trkpt lat="-27.4429906067" lon="152.9040888324"><ele>90.50</ele><time>2016-11-17T02:27:53Z</time></trkpt><trkpt lat="-27.4430582486" lon="152.9040527903"><ele>90.50</ele><time>2016-11-17T02:28:01Z</time></trkpt><trkpt lat="-27.4430857413" lon="152.9040287342"><ele>90.50</ele><time>2016-11-17T02:28:07Z</time></trkpt><trkpt lat="-27.4431325961" lon="152.9039741680"><ele>90.50</ele><time>2016-11-17T02:28:15Z</time></trkpt><trkpt lat="-27.4431918561" lon="152.9039646965"><ele>91.94</ele><time>2016-11-17T02:28:22Z</time></trkpt><trkpt lat="-27.4432663713" lon="152.9039097950"><ele>91.46</ele><time>2016-11-17T02:28:31Z</time></trkpt><trkpt lat="-27.4432940315" lon="152.9038566537"><ele>91.46</ele><time>2016-11-17T02:28:39Z</time></trkpt><trkpt lat="-27.4433055986" lon="152.9038338549"><ele>91.46</ele><time>2016-11-17T02:28:47Z</time></trkpt><trkpt lat="-27.4433346838" lon="152.9038029257"><ele>91.46</ele><time>2016-11-17T02:29:00Z</time></trkpt><trkpt lat="-27.4433207698" lon="152.9038270656"><ele>92.42</ele><time>2016-11-17T02:29:12Z</time></trkpt><trkpt lat="-27.4432812072" lon="152.9038817156"><ele>92.42</ele><time>2016-11-17T02:29:19Z</time></trkpt><trkpt lat="-27.4432216957" lon="152.9039178416"><ele>92.42</ele><time>2016-11-17T02:29:27Z</time></trkpt><trkpt lat="-27.4431822170" lon="152.9039285704"><ele>90.98</ele><time>2016-11-17T02:29:35Z</time></trkpt><trkpt lat="-27.4431836419" lon="152.9039374553"><ele>90.98</ele><time>2016-11-17T02:29:48Z</time></trkpt><trkpt lat="-27.4432523735" lon="152.9039096273"><ele>90.98</ele><time>2016-11-17T02:29:56Z</time></trkpt><trkpt lat="-27.4433133937" lon="152.9038482718"><ele>90.98</ele><time>2016-11-17T02:30:04Z</time></trkpt><trkpt lat="-27.4433440715" lon="152.9037792049"><ele>90.98</ele><time>2016-11-17T02:30:12Z</time></trkpt><trkpt lat="-27.4433501903" lon="152.9037811328"><ele>90.98</ele><time>2016-11-17T02:30:18Z</time></trkpt><trkpt lat="-27.4433762580" lon="152.9037453420"><ele>90.98</ele><time>2016-11-17T02:30:25Z</time></trkpt><trkpt lat="-27.4433991406" lon="152.9036813043"><ele>90.98</ele><time>2016-11-17T02:30:33Z</time></trkpt><trkpt lat="-27.4434094504" lon="152.9036712460"><ele>90.98</ele><time>2016-11-17T02:30:41Z</time></trkpt><trkpt lat="-27.4434085283" lon="152.9036345333"><ele>90.98</ele><time>2016-11-17T02:30:51Z</time></trkpt><trkpt lat="-27.4434077740" lon="152.9035608564"><ele>91.94</ele><time>2016-11-17T02:30:59Z</time></trkpt><trkpt lat="-27.4434069358" lon="152.9035337828"><ele>91.94</ele><time>2016-11-17T02:31:06Z</time></trkpt><trkpt lat="-27.4433965422" lon="152.9035244789"><ele>95.31</ele><time>2016-11-17T02:31:12Z</time></trkpt><trkpt lat="-27.4433900882" lon="152.9035118222"><ele>92.42</ele><time>2016-11-17T02:31:13Z</time></trkpt><trkpt lat="-27.4433634337" lon="152.9034612793"><ele>92.42</ele><time>2016-11-17T02:31:21Z</time></trkpt><trkpt lat="-27.4433384556" lon="152.9034098145"><ele>92.42</ele><time>2016-11-17T02:31:31Z</time></trkpt><trkpt lat="-27.4432775192" lon="152.9033386521"><ele>92.42</ele><time>2016-11-17T02:31:39Z</time></trkpt><trkpt lat="-27.4432685506" lon="152.9033320304"><ele>93.87</ele><time>2016-11-17T02:31:44Z</time></trkpt><trkpt lat="-27.4432632700" lon="152.9032992572"><ele>93.87</ele><time>2016-11-17T02:31:52Z</time></trkpt><trkpt lat="-27.4432782736" lon="152.9032564256"><ele>93.87</ele><time>2016-11-17T02:32:00Z</time></trkpt><trkpt lat="-27.4432942830" lon="152.9032374825"><ele>93.39</ele><time>2016-11-17T02:32:09Z</time></trkpt><trkpt lat="-27.4433006532" lon="152.9031446110"><ele>93.39</ele><time>2016-11-17T02:32:17Z</time></trkpt><trkpt lat="-27.4433057662" lon="152.9030784778"><ele>93.39</ele><time>2016-11-17T02:32:25Z</time></trkpt><trkpt lat="-27.4432825483" lon="152.9030080698"><ele>93.39</ele><time>2016-11-17T02:32:32Z</time></trkpt><trkpt lat="-27.4432601687" lon="152.9029234126"><ele>93.39</ele><time>2016-11-17T02:32:41Z</time></trkpt><trkpt lat="-27.4432197679" lon="152.9028461315"><ele>93.87</ele><time>2016-11-17T02:32:48Z</time></trkpt><trkpt lat="-27.4431854859" lon="152.9028001986"><ele>93.87</ele><time>2016-11-17T02:32:53Z</time></trkpt><trkpt lat="-27.4431112222" lon="152.9027718678"><ele>93.87</ele><time>2016-11-17T02:33:02Z</time></trkpt><trkpt lat="-27.4430842325" lon="152.9027355742"><ele>93.87</ele><time>2016-11-17T02:33:12Z</time></trkpt><trkpt lat="-27.4430469330" lon="152.9026950058"><ele>94.35</ele><time>2016-11-17T02:33:19Z</time></trkpt><trkpt lat="-27.4430098012" lon="152.9026512522"><ele>94.83</ele><time>2016-11-17T02:33:24Z</time></trkpt><trkpt lat="-27.4429860804" lon="152.9025971051"><ele>94.83</ele><time>2016-11-17T02:33:31Z</time></trkpt><trkpt lat="-27.4429860804" lon="152.9025942553"><ele>94.83</ele><time>2016-11-17T02:33:38Z</time></trkpt><trkpt lat="-27.4429978989" lon="152.9026027210"><ele>94.83</ele><time>2016-11-17T02:33:49Z</time></trkpt><trkpt lat="-27.4430071190" lon="152.9026338179"><ele>94.83</ele><time>2016-11-17T02:33:56Z</time></trkpt><trkpt lat="-27.4430221226" lon="152.9026590474"><ele>94.83</ele><time>2016-11-17T02:34:05Z</time></trkpt><trkpt lat="-27.4430030119" lon="152.9026022181"><ele>94.83</ele><time>2016-11-17T02:34:13Z</time></trkpt><trkpt lat="-27.4429715797" lon="152.9025949258"><ele>94.83</ele><time>2016-11-17T02:34:19Z</time></trkpt><trkpt lat="-27.4429413211" lon="152.9026211612"><ele>95.31</ele><time>2016-11-17T02:34:28Z</time></trkpt><trkpt lat="-27.4429124035" lon="152.9026313033"><ele>96.27</ele><time>2016-11-17T02:34:40Z</time></trkpt><trkpt lat="-27.4428677280" lon="152.9026390985"><ele>96.75</ele><time>2016-11-17T02:34:46Z</time></trkpt><trkpt lat="-27.4428295065" lon="152.9026465584"><ele>97.23</ele><time>2016-11-17T02:34:56Z</time></trkpt><trkpt lat="-27.4428067915" lon="152.9026390985"><ele>98.67</ele><time>2016-11-17T02:35:03Z</time></trkpt><trkpt lat="-27.4427558295" lon="152.9026332311"><ele>99.63</ele><time>2016-11-17T02:35:10Z</time></trkpt><trkpt lat="-27.4426624551" lon="152.9026266094"><ele>100.11</ele><time>2016-11-17T02:35:19Z</time></trkpt><trkpt lat="-27.4426181149" lon="152.9026306327"><ele>100.60</ele><time>2016-11-17T02:35:27Z</time></trkpt><trkpt lat="-27.4425801449" lon="152.9026020505"><ele>100.60</ele><time>2016-11-17T02:35:37Z</time></trkpt><trkpt lat="-27.4425272550" lon="152.9026013799"><ele>101.08</ele><time>2016-11-17T02:35:43Z</time></trkpt><trkpt lat="-27.4424917158" lon="152.9025939200"><ele>101.56</ele><time>2016-11-17T02:35:50Z</time></trkpt><trkpt lat="-27.4424609542" lon="152.9025664274"><ele>101.56</ele><time>2016-11-17T02:35:59Z</time></trkpt><trkpt lat="-27.4424200505" lon="152.9025448021"><ele>103.00</ele><time>2016-11-17T02:36:06Z</time></trkpt><trkpt lat="-27.4424172007" lon="152.9025509208"><ele>103.00</ele><time>2016-11-17T02:36:14Z</time></trkpt><trkpt lat="-27.4424144346" lon="152.9025482386"><ele>104.44</ele><time>2016-11-17T02:36:23Z</time></trkpt><trkpt lat="-27.4423567671" lon="152.9025476519"><ele>104.44</ele><time>2016-11-17T02:36:32Z</time></trkpt><trkpt lat="-27.4423495587" lon="152.9025475681"><ele>104.44</ele><time>2016-11-17T02:36:33Z</time></trkpt><trkpt lat="-27.4422993511" lon="152.9025668465"><ele>105.40</ele><time>2016-11-17T02:36:40Z</time></trkpt><trkpt lat="-27.4422765523" lon="152.9025619011"><ele>104.92</ele><time>2016-11-17T02:36:47Z</time></trkpt><trkpt lat="-27.4422771391" lon="152.9025645833"><ele>108.29</ele><time>2016-11-17T02:36:49Z</time></trkpt><trkpt lat="-27.4422749598" lon="152.9025613982"><ele>105.40</ele><time>2016-11-17T02:36:52Z</time></trkpt><trkpt lat="-27.4422605429" lon="152.9025598895"><ele>106.36</ele><time>2016-11-17T02:37:01Z</time></trkpt><trkpt lat="-27.4422676675" lon="152.9025464784"><ele>106.84</ele><time>2016-11-17T02:37:17Z</time></trkpt><trkpt lat="-27.4422535021" lon="152.9025593027"><ele>106.84</ele><time>2016-11-17T02:37:26Z</time></trkpt><trkpt lat="-27.4422110058" lon="152.9025523458"><ele>106.84</ele><time>2016-11-17T02:37:33Z</time></trkpt><trkpt lat="-27.4421939068" lon="152.9025424551"><ele>108.29</ele><time>2016-11-17T02:37:36Z</time></trkpt><trkpt lat="-27.4421715271" lon="152.9025326483"><ele>109.73</ele><time>2016-11-17T02:37:46Z</time></trkpt><trkpt lat="-27.4421704374" lon="152.9025221709"><ele>109.73</ele><time>2016-11-17T02:37:55Z</time></trkpt><trkpt lat="-27.4421792384" lon="152.9025141243"><ele>109.73</ele><time>2016-11-17T02:38:06Z</time></trkpt><trkpt lat="-27.4421846028" lon="152.9025155492"><ele>109.73</ele><time>2016-11-17T02:38:21Z</time></trkpt><trkpt lat="-27.4421972595" lon="152.9025153816"><ele>109.73</ele><time>2016-11-17T02:38:29Z</time></trkpt><trkpt lat="-27.4422303680" lon="152.9025305528"><ele>108.77</ele><time>2016-11-17T02:38:37Z</time></trkpt><trkpt lat="-27.4422011990" lon="152.9025292955"><ele>108.29</ele><time>2016-11-17T02:38:45Z</time></trkpt><trkpt lat="-27.4421758018" lon="152.9025517590"><ele>109.25</ele><time>2016-11-17T02:38:55Z</time></trkpt><trkpt lat="-27.4421789031" lon="152.9024978634"><ele>109.73</ele><time>2016-11-17T02:39:06Z</time></trkpt><trkpt lat="-27.4421507400" lon="152.9024245217"><ele>111.17</ele><time>2016-11-17T02:39:16Z</time></trkpt><trkpt lat="-27.4421299528" lon="152.9023961071"><ele>112.13</ele><time>2016-11-17T02:39:27Z</time></trkpt><trkpt lat="-27.4420763087" lon="152.9023039900"><ele>114.53</ele><time>2016-11-17T02:39:37Z</time></trkpt><trkpt lat="-27.4420288671" lon="152.9022452328"><ele>115.98</ele><time>2016-11-17T02:39:46Z</time></trkpt><trkpt lat="-27.4420280289" lon="152.9021976236"><ele>116.46</ele><time>2016-11-17T02:39:52Z</time></trkpt><trkpt lat="-27.4420218263" lon="152.9021495953"><ele>115.98</ele><time>2016-11-17T02:40:00Z</time></trkpt><trkpt lat="-27.4420343153" lon="152.9021198396"><ele>115.98</ele><time>2016-11-17T02:40:11Z</time></trkpt><trkpt lat="-27.4420595448" lon="152.9020668659"><ele>113.09</ele><time>2016-11-17T02:40:18Z</time></trkpt><trkpt lat="-27.4420644902" lon="152.9020501859"><ele>112.13</ele><time>2016-11-17T02:40:20Z</time></trkpt><trkpt lat="-27.4420490675" lon="152.9020120483"><ele>110.69</ele><time>2016-11-17T02:40:27Z</time></trkpt><trkpt lat="-27.4420524202" lon="152.9019647744"><ele>110.69</ele><time>2016-11-17T02:40:33Z</time></trkpt><trkpt lat="-27.4420756381" lon="152.9018903431"><ele>107.81</ele><time>2016-11-17T02:40:41Z</time></trkpt><trkpt lat="-27.4420768116" lon="152.9018298257"><ele>105.88</ele><time>2016-11-17T02:40:49Z</time></trkpt><trkpt lat="-27.4421115126" lon="152.9017980583"><ele>103.48</ele><time>2016-11-17T02:40:56Z</time></trkpt><trkpt lat="-27.4420954194" lon="152.9017496109"><ele>102.52</ele><time>2016-11-17T02:41:03Z</time></trkpt><trkpt lat="-27.4421054777" lon="152.9016999900"><ele>100.11</ele><time>2016-11-17T02:41:11Z</time></trkpt><trkpt lat="-27.4421126861" lon="152.9016779456"><ele>98.67</ele><time>2016-11-17T02:41:18Z</time></trkpt><trkpt lat="-27.4421328865" lon="152.9016472679"><ele>97.23</ele><time>2016-11-17T02:41:26Z</time></trkpt><trkpt lat="-27.4421675876" lon="152.9016387183"><ele>94.83</ele><time>2016-11-17T02:41:33Z</time></trkpt><trkpt lat="-27.4421990197" lon="152.9016063642"><ele>92.90</ele><time>2016-11-17T02:41:41Z</time></trkpt><trkpt lat="-27.4422189686" lon="152.9015341960"><ele>91.94</ele><time>2016-11-17T02:41:49Z</time></trkpt><trkpt lat="-27.4422210641" lon="152.9015060328"><ele>91.46</ele><time>2016-11-17T02:41:52Z</time></trkpt><trkpt lat="-27.4422496464" lon="152.9014771152"><ele>90.02</ele><time>2016-11-17T02:41:58Z</time></trkpt><trkpt lat="-27.4422801565" lon="152.9014319368"><ele>89.54</ele><time>2016-11-17T02:42:05Z</time></trkpt><trkpt lat="-27.4423082359" lon="152.9014144186"><ele>89.54</ele><time>2016-11-17T02:42:12Z</time></trkpt><trkpt lat="-27.4423157796" lon="152.9013632890"><ele>89.54</ele><time>2016-11-17T02:42:19Z</time></trkpt><trkpt lat="-27.4423465412" lon="152.9012772907"><ele>89.54</ele><time>2016-11-17T02:42:27Z</time></trkpt><trkpt lat="-27.4423810747" lon="152.9012032785"><ele>89.06</ele><time>2016-11-17T02:42:35Z</time></trkpt><trkpt lat="-27.4423812423" lon="152.9011686612"><ele>89.06</ele><time>2016-11-17T02:42:41Z</time></trkpt><trkpt lat="-27.4424042087" lon="152.9011117481"><ele>89.06</ele><time>2016-11-17T02:42:49Z</time></trkpt><trkpt lat="-27.4424436036" lon="152.9010398313"><ele>89.06</ele><time>2016-11-17T02:42:56Z</time></trkpt><trkpt lat="-27.4424744491" lon="152.9009685013"><ele>89.06</ele><time>2016-11-17T02:43:04Z</time></trkpt><trkpt lat="-27.4425193761" lon="152.9008871969"><ele>89.06</ele><time>2016-11-17T02:43:12Z</time></trkpt><trkpt lat="-27.4425467849" lon="152.9008683376"><ele>89.06</ele><time>2016-11-17T02:43:19Z</time></trkpt><trkpt lat="-27.4425535742" lon="152.9008590337"><ele>89.06</ele><time>2016-11-17T02:43:30Z</time></trkpt><trkpt lat="-27.4425827432" lon="152.9008162022"><ele>88.58</ele><time>2016-11-17T02:43:38Z</time></trkpt><trkpt lat="-27.4426111579" lon="152.9007431120"><ele>88.58</ele><time>2016-11-17T02:43:46Z</time></trkpt><trkpt lat="-27.4426464457" lon="152.9006849416"><ele>88.58</ele><time>2016-11-17T02:43:54Z</time></trkpt><trkpt lat="-27.4426561687" lon="152.9006424453"><ele>90.02</ele><time>2016-11-17T02:44:00Z</time></trkpt><trkpt lat="-27.4426563364" lon="152.9005948361"><ele>91.46</ele><time>2016-11-17T02:44:08Z</time></trkpt><trkpt lat="-27.4426296819" lon="152.9005756415"><ele>92.42</ele><time>2016-11-17T02:44:16Z</time></trkpt><trkpt lat="-27.4426291790" lon="152.9005194828"><ele>92.42</ele><time>2016-11-17T02:44:22Z</time></trkpt><trkpt lat="-27.4426500499" lon="152.9004626535"><ele>92.42</ele><time>2016-11-17T02:44:29Z</time></trkpt><trkpt lat="-27.4426633772" lon="152.9004257731"><ele>92.42</ele><time>2016-11-17T02:44:38Z</time></trkpt><trkpt lat="-27.4426684901" lon="152.9003427085"><ele>92.90</ele><time>2016-11-17T02:44:45Z</time></trkpt><trkpt lat="-27.4426665623" lon="152.9002806824"><ele>92.90</ele><time>2016-11-17T02:44:51Z</time></trkpt><trkpt lat="-27.4426976591" lon="152.9002461489"><ele>93.39</ele><time>2016-11-17T02:44:59Z</time></trkpt><trkpt lat="-27.4426880199" lon="152.9001814406"><ele>93.39</ele><time>2016-11-17T02:45:06Z</time></trkpt><trkpt lat="-27.4426964018" lon="152.9000935145"><ele>93.39</ele><time>2016-11-17T02:45:14Z</time></trkpt><trkpt lat="-27.4427202065" lon="152.9000374395"><ele>92.90</ele><time>2016-11-17T02:45:20Z</time></trkpt><trkpt lat="-27.4427525606" lon="152.8999711387"><ele>92.90</ele><time>2016-11-17T02:45:27Z</time></trkpt><trkpt lat="-27.4428277463" lon="152.8999005631"><ele>92.90</ele><time>2016-11-17T02:45:36Z</time></trkpt><trkpt lat="-27.4428799655" lon="152.8998546302"><ele>92.90</ele><time>2016-11-17T02:45:42Z</time></trkpt><trkpt lat="-27.4429053627" lon="152.8998138104"><ele>92.90</ele><time>2016-11-17T02:45:51Z</time></trkpt><trkpt lat="-27.4429450929" lon="152.8997889999"><ele>92.90</ele><time>2016-11-17T02:45:57Z</time></trkpt><trkpt lat="-27.4429683946" lon="152.8997404687"><ele>92.90</ele><time>2016-11-17T02:46:03Z</time></trkpt><trkpt lat="-27.4430284929" lon="152.8996828850"><ele>92.90</ele><time>2016-11-17T02:46:11Z</time></trkpt><trkpt lat="-27.4430419877" lon="152.8996636067"><ele>92.90</ele><time>2016-11-17T02:46:13Z</time></trkpt><trkpt lat="-27.4430822209" lon="152.8996192664"><ele>92.90</ele><time>2016-11-17T02:46:21Z</time></trkpt><trkpt lat="-27.4431103002" lon="152.8995821346"><ele>92.90</ele><time>2016-11-17T02:46:33Z</time></trkpt><trkpt lat="-27.4431292433" lon="152.8995328490"><ele>92.90</ele><time>2016-11-17T02:46:40Z</time></trkpt><trkpt lat="-27.4431548920" lon="152.8995113075"><ele>92.90</ele><time>2016-11-17T02:46:50Z</time></trkpt><trkpt lat="-27.4431802053" lon="152.8994874191"><ele>93.39</ele><time>2016-11-17T02:47:01Z</time></trkpt><trkpt lat="-27.4432026688" lon="152.8994311765"><ele>93.39</ele><time>2016-11-17T02:47:09Z</time></trkpt><trkpt lat="-27.4432141520" lon="152.8994329367"><ele>93.39</ele><time>2016-11-17T02:47:15Z</time></trkpt><trkpt lat="-27.4432537146" lon="152.8994118143"><ele>93.39</ele><time>2016-11-17T02:47:23Z</time></trkpt><trkpt lat="-27.4432879966" lon="152.8993703239"><ele>93.39</ele><time>2016-11-17T02:47:30Z</time></trkpt><trkpt lat="-27.4433050957" lon="152.8993421607"><ele>93.39</ele><time>2016-11-17T02:47:38Z</time></trkpt><trkpt lat="-27.4433014914" lon="152.8992995806"><ele>93.39</ele><time>2016-11-17T02:47:44Z</time></trkpt><trkpt lat="-27.4433175009" lon="152.8992552403"><ele>93.39</ele><time>2016-11-17T02:47:51Z</time></trkpt><trkpt lat="-27.4433263857" lon="152.8992598504"><ele>93.39</ele><time>2016-11-17T02:48:00Z</time></trkpt><trkpt lat="-27.4433464184" lon="152.8992217127"><ele>93.39</ele><time>2016-11-17T02:48:09Z</time></trkpt><trkpt lat="-27.4433439039" lon="152.8991853353"><ele>93.39</ele><time>2016-11-17T02:48:12Z</time></trkpt><trkpt lat="-27.4433474243" lon="152.8991477843"><ele>93.39</ele><time>2016-11-17T02:48:19Z</time></trkpt><trkpt lat="-27.4433501903" lon="152.8991499636"><ele>93.39</ele><time>2016-11-17T02:48:26Z</time></trkpt><trkpt lat="-27.4433594942" lon="152.8990849201"><ele>93.39</ele><time>2016-11-17T02:48:35Z</time></trkpt><trkpt lat="-27.4433775153" lon="152.8990425915"><ele>93.39</ele><time>2016-11-17T02:48:41Z</time></trkpt><trkpt lat="-27.4433921836" lon="152.8990316112"><ele>93.39</ele><time>2016-11-17T02:48:52Z</time></trkpt><trkpt lat="-27.4434070196" lon="152.8989781346"><ele>93.39</ele><time>2016-11-17T02:48:59Z</time></trkpt><trkpt lat="-27.4434157368" lon="152.8989337943"><ele>93.39</ele><time>2016-11-17T02:49:05Z</time></trkpt><trkpt lat="-27.4434547964" lon="152.8988915496"><ele>94.35</ele><time>2016-11-17T02:49:12Z</time></trkpt><trkpt lat="-27.4434641842" lon="152.8988809884"><ele>94.35</ele><time>2016-11-17T02:49:18Z</time></trkpt><trkpt lat="-27.4434760027" lon="152.8988435213"><ele>94.83</ele><time>2016-11-17T02:49:26Z</time></trkpt><trkpt lat="-27.4434682075" lon="152.8988234047"><ele>94.83</ele><time>2016-11-17T02:49:32Z</time></trkpt><trkpt lat="-27.4434356019" lon="152.8987737000"><ele>94.83</ele><time>2016-11-17T02:49:39Z</time></trkpt><trkpt lat="-27.4434223585" lon="152.8987317067"><ele>95.31</ele><time>2016-11-17T02:49:46Z</time></trkpt><trkpt lat="-27.4434412178" lon="152.8986965027"><ele>95.31</ele><time>2016-11-17T02:49:55Z</time></trkpt><trkpt lat="-27.4434793554" lon="152.8986367397"><ele>95.79</ele><time>2016-11-17T02:50:03Z</time></trkpt><trkpt lat="-27.4435113743" lon="152.8986023739"><ele>95.79</ele><time>2016-11-17T02:50:10Z</time></trkpt><trkpt lat="-27.4435110390" lon="152.8985934053"><ele>95.79</ele><time>2016-11-17T02:50:19Z</time></trkpt><trkpt lat="-27.4435486738" lon="152.8985620569"><ele>95.79</ele><time>2016-11-17T02:50:27Z</time></trkpt><trkpt lat="-27.4436024856" lon="152.8985139448"><ele>95.79</ele><time>2016-11-17T02:50:33Z</time></trkpt><trkpt lat="-27.4436225183" lon="152.8984497394"><ele>95.79</ele><time>2016-11-17T02:50:41Z</time></trkpt><trkpt lat="-27.4436457362" lon="152.8984038066"><ele>95.79</ele><time>2016-11-17T02:50:48Z</time></trkpt><trkpt lat="-27.4436604045" lon="152.8983797505"><ele>95.79</ele><time>2016-11-17T02:50:58Z</time></trkpt><trkpt lat="-27.4436709657" lon="152.8983608074"><ele>95.79</ele><time>2016-11-17T02:51:08Z</time></trkpt><trkpt lat="-27.4436903279" lon="152.8982929140"><ele>94.35</ele><time>2016-11-17T02:51:17Z</time></trkpt><trkpt lat="-27.4437192455" lon="152.8982898127"><ele>95.79</ele><time>2016-11-17T02:51:27Z</time></trkpt><trkpt lat="-27.4437049124" lon="152.8982884716"><ele>95.79</ele><time>2016-11-17T02:51:34Z</time></trkpt><trkpt lat="-27.4437024817" lon="152.8982846998"><ele>94.35</ele><time>2016-11-17T02:51:38Z</time></trkpt><trkpt lat="-27.4436895736" lon="152.8982643317"><ele>94.35</ele><time>2016-11-17T02:51:49Z</time></trkpt><trkpt lat="-27.4436376896" lon="152.8982507531"><ele>94.35</ele><time>2016-11-17T02:52:03Z</time></trkpt><trkpt lat="-27.4436056707" lon="152.8982551116"><ele>94.35</ele><time>2016-11-17T02:52:19Z</time></trkpt><trkpt lat="-27.4436005577" lon="152.8982564528"><ele>94.35</ele><time>2016-11-17T02:52:34Z</time></trkpt><trkpt lat="-27.4435744900" lon="152.8982748929"><ele>93.87</ele><time>2016-11-17T02:52:47Z</time></trkpt><trkpt lat="-27.4435824528" lon="152.8982814308"><ele>93.87</ele><time>2016-11-17T02:53:01Z</time></trkpt><trkpt lat="-27.4435657728" lon="152.8982424550"><ele>93.39</ele><time>2016-11-17T02:53:19Z</time></trkpt><trkpt lat="-27.4435433093" lon="152.8982260264"><ele>93.39</ele><time>2016-11-17T02:53:36Z</time></trkpt><trkpt lat="-27.4435403757" lon="152.8982305527"><ele>93.39</ele><time>2016-11-17T02:53:51Z</time></trkpt><trkpt lat="-27.4435463268" lon="152.8982344083"><ele>93.39</ele><time>2016-11-17T02:54:02Z</time></trkpt><trkpt lat="-27.4435463268" lon="152.8982267808"><ele>90.02</ele><time>2016-11-17T02:54:12Z</time></trkpt><trkpt lat="-27.4435454048" lon="152.8982271999"><ele>97.71</ele><time>2016-11-17T02:54:13Z</time></trkpt><trkpt lat="-27.4435449857" lon="152.8982309718"><ele>93.87</ele><time>2016-11-17T02:54:14Z</time></trkpt><trkpt lat="-27.4435350951" lon="152.8982817661"><ele>93.87</ele><time>2016-11-17T02:54:28Z</time></trkpt><trkpt lat="-27.4435368553" lon="152.8982696962"><ele>93.87</ele><time>2016-11-17T02:54:44Z</time></trkpt><trkpt lat="-27.4434998073" lon="152.8982863761"><ele>93.87</ele><time>2016-11-17T02:55:00Z</time></trkpt><trkpt lat="-27.4435073510" lon="152.8982759826"><ele>94.35</ele><time>2016-11-17T02:55:16Z</time></trkpt><trkpt lat="-27.4435002264" lon="152.8982614819"><ele>94.35</ele><time>2016-11-17T02:55:28Z</time></trkpt><trkpt lat="-27.4435095303" lon="152.8982644994"><ele>94.35</ele><time>2016-11-17T02:55:42Z</time></trkpt><trkpt lat="-27.4435281381" lon="152.8982712887"><ele>94.35</ele><time>2016-11-17T02:55:58Z</time></trkpt><trkpt lat="-27.4435274675" lon="152.8982735518"><ele>95.79</ele><time>2016-11-17T02:56:04Z</time></trkpt><trkpt lat="-27.4436409585" lon="152.8982928302"><ele>95.79</ele><time>2016-11-17T02:56:16Z</time></trkpt><trkpt lat="-27.4436613265" lon="152.8983134497"><ele>96.27</ele><time>2016-11-17T02:56:33Z</time></trkpt><trkpt lat="-27.4436692055" lon="152.8983121924"><ele>96.27</ele><time>2016-11-17T02:56:54Z</time></trkpt><trkpt lat="-27.4436590634" lon="152.8983268607"><ele>96.27</ele><time>2016-11-17T02:57:11Z</time></trkpt><trkpt lat="-27.4436574709" lon="152.8983002063"><ele>96.27</ele><time>2016-11-17T02:57:18Z</time></trkpt><trkpt lat="-27.4436519388" lon="152.8982577100"><ele>96.27</ele><time>2016-11-17T02:57:25Z</time></trkpt><trkpt lat="-27.4436616618" lon="152.8982625715"><ele>96.27</ele><time>2016-11-17T02:57:32Z</time></trkpt><trkpt lat="-27.4436538666" lon="152.8983162157"><ele>96.27</ele><time>2016-11-17T02:57:39Z</time></trkpt><trkpt lat="-27.4436705466" lon="152.8983204905"><ele>96.27</ele><time>2016-11-17T02:57:41Z</time></trkpt><trkpt lat="-27.4437730573" lon="152.8983075824"><ele>95.79</ele><time>2016-11-17T02:57:51Z</time></trkpt><trkpt lat="-27.4437904917" lon="152.8982463945"><ele>95.31</ele><time>2016-11-17T02:57:58Z</time></trkpt><trkpt lat="-27.4438019749" lon="152.8982241824"><ele>95.31</ele><time>2016-11-17T02:58:06Z</time></trkpt><trkpt lat="-27.4438088480" lon="152.8982122801"><ele>95.79</ele><time>2016-11-17T02:58:14Z</time></trkpt><trkpt lat="-27.4438162241" lon="152.8981816024"><ele>95.79</ele><time>2016-11-17T02:58:26Z</time></trkpt><trkpt lat="-27.4438417051" lon="152.8981256951"><ele>95.79</ele><time>2016-11-17T02:58:33Z</time></trkpt><trkpt lat="-27.4438584689" lon="152.8980544489"><ele>95.79</ele><time>2016-11-17T02:58:39Z</time></trkpt><trkpt lat="-27.4438765738" lon="152.8979376052"><ele>95.79</ele><time>2016-11-17T02:58:49Z</time></trkpt><trkpt lat="-27.4438595586" lon="152.8979053348"><ele>94.83</ele><time>2016-11-17T02:58:56Z</time></trkpt><trkpt lat="-27.4438592233" lon="152.8978982940"><ele>94.35</ele><time>2016-11-17T02:58:59Z</time></trkpt><trkpt lat="-27.4438381847" lon="152.8978541214"><ele>94.35</ele><time>2016-11-17T02:59:06Z</time></trkpt><trkpt lat="-27.4438320659" lon="152.8978412971"><ele>95.79</ele><time>2016-11-17T02:59:08Z</time></trkpt><trkpt lat="-27.4438478239" lon="152.8977835458"><ele>97.71</ele><time>2016-11-17T02:59:15Z</time></trkpt><trkpt lat="-27.4438381009" lon="152.8977283090"><ele>97.71</ele><time>2016-11-17T02:59:20Z</time></trkpt><trkpt lat="-27.4438484106" lon="152.8976182546"><ele>97.23</ele><time>2016-11-17T02:59:29Z</time></trkpt><trkpt lat="-27.4438650068" lon="152.8975265566"><ele>97.71</ele><time>2016-11-17T02:59:38Z</time></trkpt><trkpt lat="-27.4438939244" lon="152.8974524606"><ele>98.19</ele><time>2016-11-17T02:59:46Z</time></trkpt><trkpt lat="-27.4439148791" lon="152.8974033426"><ele>98.19</ele><time>2016-11-17T02:59:54Z</time></trkpt><trkpt lat="-27.4439308885" lon="152.8973424900"><ele>97.71</ele><time>2016-11-17T03:00:00Z</time></trkpt><trkpt lat="-27.4439496640" lon="152.8972152527"><ele>97.71</ele><time>2016-11-17T03:00:08Z</time></trkpt><trkpt lat="-27.4439605605" lon="152.8971433360"><ele>97.71</ele><time>2016-11-17T03:00:14Z</time></trkpt><trkpt lat="-27.4439719599" lon="152.8971193638"><ele>97.71</ele><time>2016-11-17T03:00:16Z</time></trkpt><trkpt lat="-27.4439970218" lon="152.8970146738"><ele>97.71</ele><time>2016-11-17T03:00:25Z</time></trkpt><trkpt lat="-27.4439909030" lon="152.8969893605"><ele>97.71</ele><time>2016-11-17T03:00:32Z</time></trkpt><trkpt lat="-27.4439872149" lon="152.8969466127"><ele>97.71</ele><time>2016-11-17T03:00:41Z</time></trkpt><trkpt lat="-27.4439769052" lon="152.8969099838"><ele>97.71</ele><time>2016-11-17T03:00:46Z</time></trkpt><trkpt lat="-27.4439712055" lon="152.8969019372"><ele>97.71</ele><time>2016-11-17T03:00:47Z</time></trkpt><trkpt lat="-27.4439140409" lon="152.8968482930"><ele>98.67</ele><time>2016-11-17T03:00:55Z</time></trkpt><trkpt lat="-27.4438359216" lon="152.8968341276"><ele>100.11</ele><time>2016-11-17T03:01:04Z</time></trkpt><trkpt lat="-27.4437925033" lon="152.8967939783"><ele>101.56</ele><time>2016-11-17T03:01:10Z</time></trkpt><trkpt lat="-27.4437736440" lon="152.8967475425"><ele>102.04</ele><time>2016-11-17T03:01:16Z</time></trkpt><trkpt lat="-27.4437623285" lon="152.8966739494"><ele>102.04</ele><time>2016-11-17T03:01:23Z</time></trkpt><trkpt lat="-27.4437293876" lon="152.8966193832"><ele>102.04</ele><time>2016-11-17T03:01:30Z</time></trkpt><trkpt lat="-27.4437235203" lon="152.8966105822"><ele>102.52</ele><time>2016-11-17T03:01:40Z</time></trkpt><trkpt lat="-27.4437210057" lon="152.8966003563"><ele>102.52</ele><time>2016-11-17T03:01:42Z</time></trkpt><trkpt lat="-27.4437088519" lon="152.8965092450"><ele>102.52</ele><time>2016-11-17T03:01:50Z</time></trkpt><trkpt lat="-27.4437257834" lon="152.8964658268"><ele>102.52</ele><time>2016-11-17T03:01:54Z</time></trkpt><trkpt lat="-27.4437101930" lon="152.8963400144"><ele>102.52</ele><time>2016-11-17T03:02:03Z</time></trkpt><trkpt lat="-27.4436899927" lon="152.8962793294"><ele>101.08</ele><time>2016-11-17T03:02:10Z</time></trkpt><trkpt lat="-27.4436662719" lon="152.8962720372"><ele>101.08</ele><time>2016-11-17T03:02:13Z</time></trkpt><trkpt lat="-27.4436079338" lon="152.8962442093"><ele>101.08</ele><time>2016-11-17T03:02:21Z</time></trkpt><trkpt lat="-27.4435664434" lon="152.8962196503"><ele>102.52</ele><time>2016-11-17T03:02:27Z</time></trkpt><trkpt lat="-27.4435104523" lon="152.8961857874"><ele>102.52</ele><time>2016-11-17T03:02:33Z</time></trkpt><trkpt lat="-27.4434377812" lon="152.8961682692"><ele>102.52</ele><time>2016-11-17T03:02:40Z</time></trkpt><trkpt lat="-27.4433677085" lon="152.8961673472"><ele>102.52</ele><time>2016-11-17T03:02:47Z</time></trkpt><trkpt lat="-27.4432964623" lon="152.8961651679"><ele>102.52</ele><time>2016-11-17T03:02:54Z</time></trkpt><trkpt lat="-27.4432568159" lon="152.8961751424"><ele>103.96</ele><time>2016-11-17T03:03:01Z</time></trkpt><trkpt lat="-27.4431809597" lon="152.8961700294"><ele>105.40</ele><time>2016-11-17T03:03:10Z</time></trkpt><trkpt lat="-27.4431196880" lon="152.8961691912"><ele>106.36</ele><time>2016-11-17T03:03:17Z</time></trkpt><trkpt lat="-27.4430357851" lon="152.8961518407"><ele>106.84</ele><time>2016-11-17T03:03:26Z</time></trkpt><trkpt lat="-27.4429645389" lon="152.8961375915"><ele>106.84</ele><time>2016-11-17T03:03:33Z</time></trkpt><trkpt lat="-27.4429281615" lon="152.8961328976"><ele>105.40</ele><time>2016-11-17T03:03:37Z</time></trkpt><trkpt lat="-27.4428647105" lon="152.8961360827"><ele>105.40</ele><time>2016-11-17T03:03:45Z</time></trkpt><trkpt lat="-27.4428310152" lon="152.8961081710"><ele>106.84</ele><time>2016-11-17T03:03:52Z</time></trkpt><trkpt lat="-27.4428339489" lon="152.8961000405"><ele>106.84</ele><time>2016-11-17T03:03:59Z</time></trkpt><trkpt lat="-27.4428341165" lon="152.8961117752"><ele>106.84</ele><time>2016-11-17T03:04:06Z</time></trkpt><trkpt lat="-27.4428140000" lon="152.8960950114"><ele>106.84</ele><time>2016-11-17T03:04:13Z</time></trkpt><trkpt lat="-27.4427998345" lon="152.8960552812"><ele>105.40</ele><time>2016-11-17T03:04:20Z</time></trkpt><trkpt lat="-27.4428000022" lon="152.8960479051"><ele>105.40</ele><time>2016-11-17T03:04:27Z</time></trkpt><trkpt lat="-27.4427841604" lon="152.8960329015"><ele>104.44</ele><time>2016-11-17T03:04:37Z</time></trkpt><trkpt lat="-27.4427599367" lon="152.8960119467"><ele>103.48</ele><time>2016-11-17T03:04:45Z</time></trkpt><trkpt lat="-27.4427443463" lon="152.8959928360"><ele>102.52</ele><time>2016-11-17T03:04:54Z</time></trkpt><trkpt lat="-27.4427431729" lon="152.8959839512"><ele>101.08</ele><time>2016-11-17T03:05:02Z</time></trkpt><trkpt lat="-27.4427331984" lon="152.8959633317"><ele>99.63</ele><time>2016-11-17T03:05:11Z</time></trkpt><trkpt lat="-27.4427224696" lon="152.8959447239"><ele>98.19</ele><time>2016-11-17T03:05:20Z</time></trkpt><trkpt lat="-27.4427184463" lon="152.8959259484"><ele>97.23</ele><time>2016-11-17T03:05:26Z</time></trkpt><trkpt lat="-27.4427083880" lon="152.8959187400"><ele>96.75</ele><time>2016-11-17T03:05:33Z</time></trkpt><trkpt lat="-27.4427347071" lon="152.8959242720"><ele>96.75</ele><time>2016-11-17T03:05:43Z</time></trkpt><trkpt lat="-27.4427508842" lon="152.8959258646"><ele>98.19</ele><time>2016-11-17T03:05:53Z</time></trkpt><trkpt lat="-27.4427311867" lon="152.8959065862"><ele>96.75</ele><time>2016-11-17T03:06:01Z</time></trkpt><trkpt lat="-27.4427122436" lon="152.8959011380"><ele>96.27</ele><time>2016-11-17T03:06:08Z</time></trkpt><trkpt lat="-27.4427018501" lon="152.8958653472"><ele>95.31</ele><time>2016-11-17T03:06:15Z</time></trkpt><trkpt lat="-27.4427017663" lon="152.8958514333"><ele>94.83</ele><time>2016-11-17T03:06:21Z</time></trkpt><trkpt lat="-27.4427047838" lon="152.8958583903"><ele>95.31</ele><time>2016-11-17T03:06:29Z</time></trkpt><trkpt lat="-27.4427131657" lon="152.8958575521"><ele>93.87</ele><time>2016-11-17T03:06:35Z</time></trkpt><trkpt lat="-27.4427191168" lon="152.8958429676"><ele>93.87</ele><time>2016-11-17T03:06:48Z</time></trkpt><trkpt lat="-27.4427115731" lon="152.8958639223"><ele>93.87</ele><time>2016-11-17T03:06:59Z</time></trkpt><trkpt lat="-27.4426969048" lon="152.8958718851"><ele>95.31</ele><time>2016-11-17T03:07:04Z</time></trkpt><trkpt lat="-27.4426969048" lon="152.8958545346"><ele>95.31</ele><time>2016-11-17T03:07:18Z</time></trkpt><trkpt lat="-27.4427266605" lon="152.8958460689"><ele>95.31</ele><time>2016-11-17T03:07:31Z</time></trkpt><trkpt lat="-27.4427458551" lon="152.8958380222"><ele>94.35</ele><time>2016-11-17T03:07:45Z</time></trkpt><trkpt lat="-27.4427450169" lon="152.8958381061"><ele>94.35</ele><time>2016-11-17T03:07:58Z</time></trkpt><trkpt lat="-27.4427374732" lon="152.8958360106"><ele>94.35</ele><time>2016-11-17T03:08:05Z</time></trkpt><trkpt lat="-27.4427577574" lon="152.8958293889"><ele>94.35</ele><time>2016-11-17T03:08:20Z</time></trkpt><trkpt lat="-27.4427546561" lon="152.8958300594"><ele>96.27</ele><time>2016-11-17T03:08:23Z</time></trkpt><trkpt lat="-27.4427328631" lon="152.8958225995"><ele>96.27</ele><time>2016-11-17T03:08:31Z</time></trkpt><trkpt lat="-27.4426912051" lon="152.8958227672"><ele>96.27</ele><time>2016-11-17T03:08:37Z</time></trkpt><trkpt lat="-27.4426753633" lon="152.8958344180"><ele>96.27</ele><time>2016-11-17T03:08:46Z</time></trkpt><trkpt lat="-27.4426584318" lon="152.8958186600"><ele>96.27</ele><time>2016-11-17T03:08:54Z</time></trkpt><trkpt lat="-27.4426628742" lon="152.8958143014"><ele>96.27</ele><time>2016-11-17T03:09:02Z</time></trkpt><trkpt lat="-27.4426337052" lon="152.8958194144"><ele>96.27</ele><time>2016-11-17T03:09:10Z</time></trkpt><trkpt lat="-27.4425846711" lon="152.8958086856"><ele>96.27</ele><time>2016-11-17T03:09:17Z</time></trkpt><trkpt lat="-27.4425786361" lon="152.8958060034"><ele>96.27</ele><time>2016-11-17T03:09:18Z</time></trkpt><trkpt lat="-27.4425386544" lon="152.8958238568"><ele>96.27</ele><time>2016-11-17T03:09:24Z</time></trkpt><trkpt lat="-27.4425166100" lon="152.8958239406"><ele>96.75</ele><time>2016-11-17T03:09:31Z</time></trkpt><trkpt lat="-27.4424907099" lon="152.8958228510"><ele>97.23</ele><time>2016-11-17T03:09:39Z</time></trkpt><trkpt lat="-27.4424838368" lon="152.8958086018"><ele>97.23</ele><time>2016-11-17T03:09:46Z</time></trkpt><trkpt lat="-27.4424587749" lon="152.8958034050"><ele>97.23</ele><time>2016-11-17T03:09:53Z</time></trkpt><trkpt lat="-27.4424036220" lon="152.8958013095"><ele>97.71</ele><time>2016-11-17T03:10:01Z</time></trkpt><trkpt lat="-27.4423849303" lon="152.8957708832"><ele>97.71</ele><time>2016-11-17T03:10:08Z</time></trkpt><trkpt lat="-27.4423720222" lon="152.8957599867"><ele>97.71</ele><time>2016-11-17T03:10:14Z</time></trkpt><trkpt lat="-27.4423648138" lon="152.8957577236"><ele>97.71</ele><time>2016-11-17T03:10:20Z</time></trkpt><trkpt lat="-27.4423391651" lon="152.8957329132"><ele>97.71</ele><time>2016-11-17T03:10:33Z</time></trkpt><trkpt lat="-27.4422889575" lon="152.8957068454"><ele>97.71</ele><time>2016-11-17T03:10:41Z</time></trkpt><trkpt lat="-27.4422608782" lon="152.8956764191"><ele>97.71</ele><time>2016-11-17T03:10:49Z</time></trkpt><trkpt lat="-27.4422224890" lon="152.8956352640"><ele>97.71</ele><time>2016-11-17T03:10:57Z</time></trkpt><trkpt lat="-27.4421788193" lon="152.8955946118"><ele>97.71</ele><time>2016-11-17T03:11:04Z</time></trkpt><trkpt lat="-27.4421235826" lon="152.8955382854"><ele>97.71</ele><time>2016-11-17T03:11:12Z</time></trkpt><trkpt lat="-27.4420773983" lon="152.8954660334"><ele>97.71</ele><time>2016-11-17T03:11:21Z</time></trkpt><trkpt lat="-27.4420640711" lon="152.8954331763"><ele>97.71</ele><time>2016-11-17T03:11:24Z</time></trkpt><trkpt lat="-27.4420247599" lon="152.8953557275"><ele>97.71</ele><time>2016-11-17T03:11:32Z</time></trkpt><trkpt lat="-27.4420112651" lon="152.8953415621"><ele>97.71</ele><time>2016-11-17T03:11:34Z</time></trkpt><trkpt lat="-27.4419714510" lon="152.8952827211"><ele>96.27</ele><time>2016-11-17T03:11:42Z</time></trkpt><trkpt lat="-27.4419647455" lon="152.8952732496"><ele>97.71</ele><time>2016-11-17T03:11:44Z</time></trkpt><trkpt lat="-27.4419827666" lon="152.8952914383"><ele>96.27</ele><time>2016-11-17T03:11:52Z</time></trkpt><trkpt lat="-27.4419899751" lon="152.8952963836"><ele>96.27</ele><time>2016-11-17T03:11:53Z</time></trkpt><trkpt lat="-27.4420293700" lon="152.8953436576"><ele>96.27</ele><time>2016-11-17T03:12:01Z</time></trkpt><trkpt lat="-27.4420535099" lon="152.8953753412"><ele>96.27</ele><time>2016-11-17T03:12:07Z</time></trkpt><trkpt lat="-27.4420272745" lon="152.8953429870"><ele>96.27</ele><time>2016-11-17T03:12:17Z</time></trkpt><trkpt lat="-27.4419993628" lon="152.8953012452"><ele>96.27</ele><time>2016-11-17T03:12:23Z</time></trkpt><trkpt lat="-27.4420069065" lon="152.8952752613"><ele>96.27</ele><time>2016-11-17T03:12:31Z</time></trkpt><trkpt lat="-27.4419871252" lon="152.8952882532"><ele>95.31</ele><time>2016-11-17T03:12:39Z</time></trkpt><trkpt lat="-27.4419833533" lon="152.8952847328"><ele>95.31</ele><time>2016-11-17T03:12:54Z</time></trkpt><trkpt lat="-27.4419693556" lon="152.8952802066"><ele>95.79</ele><time>2016-11-17T03:13:07Z</time></trkpt><trkpt lat="-27.4419305474" lon="152.8951884247"><ele>97.23</ele><time>2016-11-17T03:13:14Z</time></trkpt><trkpt lat="-27.4419136997" lon="152.8950958047"><ele>98.19</ele><time>2016-11-17T03:13:23Z</time></trkpt><trkpt lat="-27.4419264402" lon="152.8950473573"><ele>98.19</ele><time>2016-11-17T03:13:32Z</time></trkpt><trkpt lat="-27.4419368338" lon="152.8949793801"><ele>98.67</ele><time>2016-11-17T03:13:39Z</time></trkpt><trkpt lat="-27.4419271946" lon="152.8949147556"><ele>99.63</ele><time>2016-11-17T03:13:45Z</time></trkpt><trkpt lat="-27.4419287033" lon="152.8947946429"><ele>99.63</ele><time>2016-11-17T03:13:54Z</time></trkpt><trkpt lat="-27.4419305474" lon="152.8947205469"><ele>99.63</ele><time>2016-11-17T03:14:01Z</time></trkpt><trkpt lat="-27.4419302959" lon="152.8946493007"><ele>99.63</ele><time>2016-11-17T03:14:07Z</time></trkpt><trkpt lat="-27.4419329781" lon="152.8946420085"><ele>99.63</ele><time>2016-11-17T03:14:08Z</time></trkpt><trkpt lat="-27.4419328105" lon="152.8945915494"><ele>98.19</ele><time>2016-11-17T03:14:13Z</time></trkpt><trkpt lat="-27.4419267755" lon="152.8945203032"><ele>97.71</ele><time>2016-11-17T03:14:21Z</time></trkpt><trkpt lat="-27.4419253506" lon="152.8945014440"><ele>99.15</ele><time>2016-11-17T03:14:23Z</time></trkpt><trkpt lat="-27.4419325590" lon="152.8944353946"><ele>99.63</ele><time>2016-11-17T03:14:31Z</time></trkpt><trkpt lat="-27.4419344869" lon="152.8943785653"><ele>97.71</ele><time>2016-11-17T03:14:38Z</time></trkpt><trkpt lat="-27.4419309665" lon="152.8943074867"><ele>95.79</ele><time>2016-11-17T03:14:47Z</time></trkpt><trkpt lat="-27.4419161305" lon="152.8942237515"><ele>95.79</ele><time>2016-11-17T03:14:54Z</time></trkpt><trkpt lat="-27.4419111852" lon="152.8941814229"><ele>97.23</ele><time>2016-11-17T03:15:00Z</time></trkpt><trkpt lat="-27.4419127777" lon="152.8941716161"><ele>97.23</ele><time>2016-11-17T03:15:01Z</time></trkpt><trkpt lat="-27.4418976903" lon="152.8940663394"><ele>96.75</ele><time>2016-11-17T03:15:10Z</time></trkpt><trkpt lat="-27.4418588821" lon="152.8939992841"><ele>98.67</ele><time>2016-11-17T03:15:19Z</time></trkpt><trkpt lat="-27.4418265279" lon="152.8939229250"><ele>100.11</ele><time>2016-11-17T03:15:27Z</time></trkpt><trkpt lat="-27.4418069981" lon="152.8938718792"><ele>99.63</ele><time>2016-11-17T03:15:34Z</time></trkpt><trkpt lat="-27.4417692795" lon="152.8938170616"><ele>100.60</ele><time>2016-11-17T03:15:44Z</time></trkpt><trkpt lat="-27.4417262804" lon="152.8937434684"><ele>102.04</ele><time>2016-11-17T03:15:52Z</time></trkpt><trkpt lat="-27.4416977819" lon="152.8936572187"><ele>101.56</ele><time>2016-11-17T03:16:00Z</time></trkpt><trkpt lat="-27.4416691158" lon="152.8935714718"><ele>101.56</ele><time>2016-11-17T03:16:09Z</time></trkpt><trkpt lat="-27.4416497536" lon="152.8935092781"><ele>101.56</ele><time>2016-11-17T03:16:17Z</time></trkpt><trkpt lat="-27.4416469876" lon="152.8934783489"><ele>101.56</ele><time>2016-11-17T03:16:24Z</time></trkpt><trkpt lat="-27.4416425452" lon="152.8934595734"><ele>101.56</ele><time>2016-11-17T03:16:26Z</time></trkpt><trkpt lat="-27.4416169804" lon="152.8933998104"><ele>100.11</ele><time>2016-11-17T03:16:33Z</time></trkpt><trkpt lat="-27.4416154716" lon="152.8933228645"><ele>99.63</ele><time>2016-11-17T03:16:40Z</time></trkpt><trkpt lat="-27.4416027311" lon="152.8932567313"><ele>98.67</ele><time>2016-11-17T03:16:49Z</time></trkpt><trkpt lat="-27.4415975343" lon="152.8931933641"><ele>97.23</ele><time>2016-11-17T03:16:57Z</time></trkpt><trkpt lat="-27.4415967800" lon="152.8931819648"><ele>97.23</ele><time>2016-11-17T03:16:58Z</time></trkpt><trkpt lat="-27.4416150525" lon="152.8930782806"><ele>96.75</ele><time>2016-11-17T03:17:05Z</time></trkpt><trkpt lat="-27.4416056648" lon="152.8930268995"><ele>96.75</ele><time>2016-11-17T03:17:10Z</time></trkpt><trkpt lat="-27.4415965285" lon="152.8929609340"><ele>96.27</ele><time>2016-11-17T03:17:17Z</time></trkpt><trkpt lat="-27.4415834527" lon="152.8928594291"><ele>96.27</ele><time>2016-11-17T03:17:25Z</time></trkpt><trkpt lat="-27.4415682815" lon="152.8927973192"><ele>96.27</ele><time>2016-11-17T03:17:31Z</time></trkpt><trkpt lat="-27.4415632524" lon="152.8927183617"><ele>96.27</ele><time>2016-11-17T03:17:37Z</time></trkpt><trkpt lat="-27.4415526073" lon="152.8926136717"><ele>96.27</ele><time>2016-11-17T03:17:46Z</time></trkpt><trkpt lat="-27.4415469915" lon="152.8925442696"><ele>96.27</ele><time>2016-11-17T03:17:52Z</time></trkpt><trkpt lat="-27.4415312335" lon="152.8925121669"><ele>97.71</ele><time>2016-11-17T03:17:55Z</time></trkpt><trkpt lat="-27.4415043276" lon="152.8924447764"><ele>97.71</ele><time>2016-11-17T03:18:02Z</time></trkpt><trkpt lat="-27.4414931796" lon="152.8924445249"><ele>98.19</ele><time>2016-11-17T03:18:13Z</time></trkpt><trkpt lat="-27.4414772540" lon="152.8923617117"><ele>98.19</ele><time>2016-11-17T03:18:20Z</time></trkpt><trkpt lat="-27.4414403737" lon="152.8922778089"><ele>98.19</ele><time>2016-11-17T03:18:27Z</time></trkpt><trkpt lat="-27.4414154794" lon="152.8921742924"><ele>98.67</ele><time>2016-11-17T03:18:35Z</time></trkpt><trkpt lat="-27.4413909204" lon="152.8921016213"><ele>98.67</ele><time>2016-11-17T03:18:42Z</time></trkpt><trkpt lat="-27.4413526990" lon="152.8920659143"><ele>98.67</ele><time>2016-11-17T03:18:48Z</time></trkpt><trkpt lat="-27.4413127173" lon="152.8920296207"><ele>98.67</ele><time>2016-11-17T03:18:55Z</time></trkpt><trkpt lat="-27.4412542954" lon="152.8919950034"><ele>98.67</ele><time>2016-11-17T03:19:03Z</time></trkpt><trkpt lat="-27.4412115477" lon="152.8919624817"><ele>98.67</ele><time>2016-11-17T03:19:10Z</time></trkpt><trkpt lat="-27.4411719013" lon="152.8919122741"><ele>99.15</ele><time>2016-11-17T03:19:19Z</time></trkpt><trkpt lat="-27.4411425646" lon="152.8918633237"><ele>99.15</ele><time>2016-11-17T03:19:26Z</time></trkpt><trkpt lat="-27.4410944525" lon="152.8918227553"><ele>98.67</ele><time>2016-11-17T03:19:33Z</time></trkpt><trkpt lat="-27.4410676304" lon="152.8917906526"><ele>98.67</ele><time>2016-11-17T03:19:37Z</time></trkpt><trkpt lat="-27.4409869965" lon="152.8917269502"><ele>98.67</ele><time>2016-11-17T03:19:46Z</time></trkpt><trkpt lat="-27.4408950470" lon="152.8916811850"><ele>98.67</ele><time>2016-11-17T03:19:54Z</time></trkpt><trkpt lat="-27.4408569094" lon="152.8916151356"><ele>98.67</ele><time>2016-11-17T03:20:01Z</time></trkpt><trkpt lat="-27.4407992419" lon="152.8915658500"><ele>98.67</ele><time>2016-11-17T03:20:09Z</time></trkpt><trkpt lat="-27.4407530576" lon="152.8915251140"><ele>98.67</ele><time>2016-11-17T03:20:16Z</time></trkpt><trkpt lat="-27.4407051969" lon="152.8914955258"><ele>99.63</ele><time>2016-11-17T03:20:24Z</time></trkpt><trkpt lat="-27.4406842422" lon="152.8914556280"><ele>98.19</ele><time>2016-11-17T03:20:30Z</time></trkpt><trkpt lat="-27.4406652991" lon="152.8914480004"><ele>98.19</ele><time>2016-11-17T03:20:37Z</time></trkpt><trkpt lat="-27.4406458531" lon="152.8914341703"><ele>98.19</ele><time>2016-11-17T03:20:50Z</time></trkpt><trkpt lat="-27.4406519718" lon="152.8913814481"><ele>97.71</ele><time>2016-11-17T03:21:02Z</time></trkpt><trkpt lat="-27.4406720884" lon="152.8913581464"><ele>97.71</ele><time>2016-11-17T03:21:08Z</time></trkpt><trkpt lat="-27.4406787101" lon="152.8913401254"><ele>97.71</ele><time>2016-11-17T03:21:16Z</time></trkpt><trkpt lat="-27.4406976532" lon="152.8913280554"><ele>97.71</ele><time>2016-11-17T03:21:27Z</time></trkpt><trkpt lat="-27.4407073762" lon="152.8913095314"><ele>97.71</ele><time>2016-11-17T03:21:33Z</time></trkpt><trkpt lat="-27.4406778719" lon="152.8912955336"><ele>97.71</ele><time>2016-11-17T03:21:40Z</time></trkpt><trkpt lat="-27.4406381417" lon="152.8912610840"><ele>97.71</ele><time>2016-11-17T03:21:46Z</time></trkpt><trkpt lat="-27.4406046979" lon="152.8912446555"><ele>97.23</ele><time>2016-11-17T03:21:53Z</time></trkpt><trkpt lat="-27.4405570887" lon="152.8912197612"><ele>97.23</ele><time>2016-11-17T03:21:59Z</time></trkpt><trkpt lat="-27.4405164365" lon="152.8911703918"><ele>97.23</ele><time>2016-11-17T03:22:06Z</time></trkpt><trkpt lat="-27.4404986668" lon="152.8911533765"><ele>97.23</ele><time>2016-11-17T03:22:13Z</time></trkpt><trkpt lat="-27.4404655583" lon="152.8911416419"><ele>96.75</ele><time>2016-11-17T03:22:22Z</time></trkpt><trkpt lat="-27.4404001795" lon="152.8911190107"><ele>96.75</ele><time>2016-11-17T03:22:30Z</time></trkpt><trkpt lat="-27.4403463677" lon="152.8910657857"><ele>98.19</ele><time>2016-11-17T03:22:39Z</time></trkpt><trkpt lat="-27.4403026141" lon="152.8910408076"><ele>98.19</ele><time>2016-11-17T03:22:47Z</time></trkpt><trkpt lat="-27.4403018598" lon="152.8910300788"><ele>98.19</ele><time>2016-11-17T03:22:54Z</time></trkpt><trkpt lat="-27.4403154384" lon="152.8910007421"><ele>98.19</ele><time>2016-11-17T03:23:00Z</time></trkpt><trkpt lat="-27.4403214734" lon="152.8909367882"><ele>98.19</ele><time>2016-11-17T03:23:07Z</time></trkpt><trkpt lat="-27.4403389916" lon="152.8909203596"><ele>97.71</ele><time>2016-11-17T03:23:14Z</time></trkpt><trkpt lat="-27.4403498881" lon="152.8909001593"><ele>97.71</ele><time>2016-11-17T03:23:20Z</time></trkpt><trkpt lat="-27.4403654784" lon="152.8908721637"><ele>97.71</ele><time>2016-11-17T03:23:26Z</time></trkpt><trkpt lat="-27.4403565936" lon="152.8908681404"><ele>97.71</ele><time>2016-11-17T03:23:33Z</time></trkpt><trkpt lat="-27.4403589405" lon="152.8909010813"><ele>97.71</ele><time>2016-11-17T03:23:39Z</time></trkpt><trkpt lat="-27.4403450266" lon="152.8909141570"><ele>97.71</ele><time>2016-11-17T03:23:46Z</time></trkpt><trkpt lat="-27.4403519835" lon="152.8909319267"><ele>97.71</ele><time>2016-11-17T03:23:58Z</time></trkpt><trkpt lat="-27.4403282627" lon="152.8909916896"><ele>97.71</ele><time>2016-11-17T03:24:07Z</time></trkpt><trkpt lat="-27.4403244071" lon="152.8910211101"><ele>97.71</ele><time>2016-11-17T03:24:17Z</time></trkpt><trkpt lat="-27.4403555878" lon="152.8910712339"><ele>98.19</ele><time>2016-11-17T03:24:24Z</time></trkpt><trkpt lat="-27.4404044542" lon="152.8911235370"><ele>96.75</ele><time>2016-11-17T03:24:33Z</time></trkpt><trkpt lat="-27.4404720962" lon="152.8911713138"><ele>96.27</ele><time>2016-11-17T03:24:42Z</time></trkpt><trkpt lat="-27.4404771253" lon="152.8911936935"><ele>96.27</ele><time>2016-11-17T03:24:48Z</time></trkpt><trkpt lat="-27.4404980801" lon="152.8912122175"><ele>96.27</ele><time>2016-11-17T03:24:54Z</time></trkpt><trkpt lat="-27.4405408278" lon="152.8912388720"><ele>96.27</ele><time>2016-11-17T03:25:00Z</time></trkpt><trkpt lat="-27.4405700807" lon="152.8912511934"><ele>96.27</ele><time>2016-11-17T03:25:07Z</time></trkpt><trkpt lat="-27.4405464437" lon="152.8912460804"><ele>96.27</ele><time>2016-11-17T03:25:18Z</time></trkpt><trkpt lat="-27.4404999241" lon="152.8912009858"><ele>96.27</ele><time>2016-11-17T03:25:25Z</time></trkpt><trkpt lat="-27.4404829927" lon="152.8911815397"><ele>96.27</ele><time>2016-11-17T03:25:33Z</time></trkpt><trkpt lat="-27.4404461961" lon="152.8911512811"><ele>96.27</ele><time>2016-11-17T03:25:40Z</time></trkpt><trkpt lat="-27.4404031970" lon="152.8911218606"><ele>96.27</ele><time>2016-11-17T03:25:47Z</time></trkpt><trkpt lat="-27.4404137582" lon="152.8911165800"><ele>97.71</ele><time>2016-11-17T03:25:55Z</time></trkpt><trkpt lat="-27.4403635506" lon="152.8910760116"><ele>97.71</ele><time>2016-11-17T03:26:05Z</time></trkpt><trkpt lat="-27.4403316155" lon="152.8910677973"><ele>97.71</ele><time>2016-11-17T03:26:14Z</time></trkpt><trkpt lat="-27.4403378181" lon="152.8910099622"><ele>97.71</ele><time>2016-11-17T03:26:21Z</time></trkpt><trkpt lat="-27.4403498881" lon="152.8909545578"><ele>97.71</ele><time>2016-11-17T03:26:28Z</time></trkpt><trkpt lat="-27.4403670710" lon="152.8909123130"><ele>97.71</ele><time>2016-11-17T03:26:37Z</time></trkpt><trkpt lat="-27.4403752852" lon="152.8908693977"><ele>98.19</ele><time>2016-11-17T03:26:43Z</time></trkpt><trkpt lat="-27.4404206313" lon="152.8908807132"><ele>98.19</ele><time>2016-11-17T03:26:50Z</time></trkpt><trkpt lat="-27.4404363055" lon="152.8908829764"><ele>98.19</ele><time>2016-11-17T03:26:56Z</time></trkpt><trkpt lat="-27.4404472020" lon="152.8908969741"><ele>98.19</ele><time>2016-11-17T03:27:04Z</time></trkpt><trkpt lat="-27.4404604454" lon="152.8908791207"><ele>98.19</ele><time>2016-11-17T03:27:12Z</time></trkpt><trkpt lat="-27.4404893629" lon="152.8908481076"><ele>98.19</ele><time>2016-11-17T03:27:18Z</time></trkpt><trkpt lat="-27.4405194540" lon="152.8907812200"><ele>98.19</ele><time>2016-11-17T03:27:24Z</time></trkpt><trkpt lat="-27.4405010976" lon="152.8907323536"><ele>98.19</ele><time>2016-11-17T03:27:30Z</time></trkpt><trkpt lat="-27.4404092319" lon="152.8906880133"><ele>98.19</ele><time>2016-11-17T03:27:39Z</time></trkpt><trkpt lat="-27.4403234851" lon="152.8906367160"><ele>100.11</ele><time>2016-11-17T03:27:48Z</time></trkpt><trkpt lat="-27.4402990937" lon="152.8906146716"><ele>100.60</ele><time>2016-11-17T03:27:51Z</time></trkpt><trkpt lat="-27.4402817432" lon="152.8905890230"><ele>100.60</ele><time>2016-11-17T03:27:56Z</time></trkpt><trkpt lat="-27.4403361417" lon="152.8906304296"><ele>101.08</ele><time>2016-11-17T03:28:04Z</time></trkpt><trkpt lat="-27.4403356388" lon="152.8906263225"><ele>99.15</ele><time>2016-11-17T03:28:10Z</time></trkpt><trkpt lat="-27.4403384048" lon="152.8906211257"><ele>100.60</ele><time>2016-11-17T03:28:16Z</time></trkpt><trkpt lat="-27.4403698370" lon="152.8906357102"><ele>99.15</ele><time>2016-11-17T03:28:25Z</time></trkpt><trkpt lat="-27.4404665641" lon="152.8906931262"><ele>98.19</ele><time>2016-11-17T03:28:33Z</time></trkpt><trkpt lat="-27.4405215494" lon="152.8907037713"><ele>98.19</ele><time>2016-11-17T03:28:37Z</time></trkpt><trkpt lat="-27.4405929632" lon="152.8907036874"><ele>97.23</ele><time>2016-11-17T03:28:43Z</time></trkpt><trkpt lat="-27.4406544864" lon="152.8907225467"><ele>97.23</ele><time>2016-11-17T03:28:51Z</time></trkpt><trkpt lat="-27.4406969827" lon="152.8907271568"><ele>97.23</ele><time>2016-11-17T03:28:56Z</time></trkpt><trkpt lat="-27.4406618625" lon="152.8907325212"><ele>97.23</ele><time>2016-11-17T03:28:59Z</time></trkpt><trkpt lat="-27.4406008422" lon="152.8907546494"><ele>97.23</ele><time>2016-11-17T03:29:07Z</time></trkpt><trkpt lat="-27.4405782111" lon="152.8907362930"><ele>97.23</ele><time>2016-11-17T03:29:17Z</time></trkpt><trkpt lat="-27.4405855034" lon="152.8906825650"><ele>97.23</ele><time>2016-11-17T03:29:25Z</time></trkpt><trkpt lat="-27.4406040274" lon="152.8906411584"><ele>97.23</ele><time>2016-11-17T03:29:32Z</time></trkpt><trkpt lat="-27.4406253174" lon="152.8906150907"><ele>97.23</ele><time>2016-11-17T03:29:39Z</time></trkpt><trkpt lat="-27.4406454340" lon="152.8905845806"><ele>97.23</ele><time>2016-11-17T03:29:46Z</time></trkpt><trkpt lat="-27.4406378902" lon="152.8905762825"><ele>98.19</ele><time>2016-11-17T03:29:48Z</time></trkpt><trkpt lat="-27.4406265747" lon="152.8905352112"><ele>99.15</ele><time>2016-11-17T03:29:56Z</time></trkpt><trkpt lat="-27.4406186119" lon="152.8904946428"><ele>99.15</ele><time>2016-11-17T03:30:04Z</time></trkpt><trkpt lat="-27.4406373035" lon="152.8904706705"><ele>99.63</ele><time>2016-11-17T03:30:11Z</time></trkpt><trkpt lat="-27.4406572524" lon="152.8904374782"><ele>99.63</ele><time>2016-11-17T03:30:19Z</time></trkpt><trkpt lat="-27.4407018442" lon="152.8904275037"><ele>99.63</ele><time>2016-11-17T03:30:26Z</time></trkpt><trkpt lat="-27.4407025147" lon="152.8903946467"><ele>99.63</ele><time>2016-11-17T03:30:34Z</time></trkpt><trkpt lat="-27.4407049455" lon="152.8903778829"><ele>99.15</ele><time>2016-11-17T03:30:44Z</time></trkpt><trkpt lat="-27.4407258164" lon="152.8903778829"><ele>99.15</ele><time>2016-11-17T03:30:53Z</time></trkpt><trkpt lat="-27.4407623615" lon="152.8903783020"><ele>99.15</ele><time>2016-11-17T03:30:59Z</time></trkpt><trkpt lat="-27.4408333562" lon="152.8903700039"><ele>99.15</ele><time>2016-11-17T03:31:06Z</time></trkpt><trkpt lat="-27.4408766069" lon="152.8903580178"><ele>99.63</ele><time>2016-11-17T03:31:14Z</time></trkpt><trkpt lat="-27.4409063626" lon="152.8903366439"><ele>99.63</ele><time>2016-11-17T03:31:20Z</time></trkpt><trkpt lat="-27.4409170076" lon="152.8902781382"><ele>99.63</ele><time>2016-11-17T03:31:29Z</time></trkpt><trkpt lat="-27.4409108888" lon="152.8902363963"><ele>99.63</ele><time>2016-11-17T03:31:36Z</time></trkpt><trkpt lat="-27.4408974778" lon="152.8901871946"><ele>99.63</ele><time>2016-11-17T03:31:44Z</time></trkpt><trkpt lat="-27.4408897664" lon="152.8901632223"><ele>99.63</ele><time>2016-11-17T03:31:51Z</time></trkpt><trkpt lat="-27.4408870004" lon="152.8901383281"><ele>99.63</ele><time>2016-11-17T03:32:00Z</time></trkpt><trkpt lat="-27.4408859108" lon="152.8901110031"><ele>99.63</ele><time>2016-11-17T03:32:07Z</time></trkpt><trkpt lat="-27.4408671353" lon="152.8900865279"><ele>99.63</ele><time>2016-11-17T03:32:14Z</time></trkpt><trkpt lat="-27.4408601783" lon="152.8900421038"><ele>99.63</ele><time>2016-11-17T03:32:21Z</time></trkpt><trkpt lat="-27.4408706557" lon="152.8899995238"><ele>99.63</ele><time>2016-11-17T03:32:28Z</time></trkpt><trkpt lat="-27.4408455938" lon="152.8899910580"><ele>99.63</ele><time>2016-11-17T03:32:35Z</time></trkpt><trkpt lat="-27.4408071209" lon="152.8899851069"><ele>99.63</ele><time>2016-11-17T03:32:40Z</time></trkpt><trkpt lat="-27.4407852441" lon="152.8900082409"><ele>99.63</ele><time>2016-11-17T03:32:44Z</time></trkpt><trkpt lat="-27.4407841545" lon="152.8900442831"><ele>99.63</ele><time>2016-11-17T03:32:51Z</time></trkpt><trkpt lat="-27.4407773651" lon="152.8900821693"><ele>99.63</ele><time>2016-11-17T03:32:59Z</time></trkpt><trkpt lat="-27.4407614395" lon="152.8900895454"><ele>99.63</ele><time>2016-11-17T03:33:07Z</time></trkpt><trkpt lat="-27.4407227989" lon="152.8901004419"><ele>99.63</ele><time>2016-11-17T03:33:14Z</time></trkpt><trkpt lat="-27.4406931270" lon="152.8901088238"><ele>99.63</ele><time>2016-11-17T03:33:23Z</time></trkpt><trkpt lat="-27.4406666402" lon="152.8901234083"><ele>99.63</ele><time>2016-11-17T03:33:33Z</time></trkpt><trkpt lat="-27.4406698253" lon="152.8901385795"><ele>96.27</ele><time>2016-11-17T03:33:44Z</time></trkpt><trkpt lat="-27.4406671431" lon="152.8901436087"><ele>100.11</ele><time>2016-11-17T03:33:45Z</time></trkpt><trkpt lat="-27.4406353757" lon="152.8902286850"><ele>99.15</ele><time>2016-11-17T03:33:53Z</time></trkpt><trkpt lat="-27.4406226352" lon="152.8902966622"><ele>99.15</ele><time>2016-11-17T03:34:05Z</time></trkpt><trkpt lat="-27.4406000879" lon="152.8903394938"><ele>99.15</ele><time>2016-11-17T03:34:13Z</time></trkpt><trkpt lat="-27.4405957293" lon="152.8903324530"><ele>99.15</ele><time>2016-11-17T03:34:18Z</time></trkpt><trkpt lat="-27.4405842461" lon="152.8903267533"><ele>99.15</ele><time>2016-11-17T03:34:26Z</time></trkpt><trkpt lat="-27.4405340385" lon="152.8903694171"><ele>98.67</ele><time>2016-11-17T03:34:34Z</time></trkpt><trkpt lat="-27.4405072164" lon="152.8903753683"><ele>98.67</ele><time>2016-11-17T03:34:39Z</time></trkpt><trkpt lat="-27.4404668994" lon="152.8903922159"><ele>98.67</ele><time>2016-11-17T03:34:47Z</time></trkpt><trkpt lat="-27.4404855911" lon="152.8904061299"><ele>98.67</ele><time>2016-11-17T03:34:53Z</time></trkpt><trkpt lat="-27.4404942244" lon="152.8904136736"><ele>98.67</ele><time>2016-11-17T03:35:00Z</time></trkpt><trkpt lat="-27.4405119102" lon="152.8903968260"><ele>98.67</ele><time>2016-11-17T03:35:06Z</time></trkpt><trkpt lat="-27.4405563343" lon="152.8903854266"><ele>98.67</ele><time>2016-11-17T03:35:13Z</time></trkpt><trkpt lat="-27.4405970704" lon="152.8904187027"><ele>98.67</ele><time>2016-11-17T03:35:22Z</time></trkpt><trkpt lat="-27.4406201206" lon="152.8904435970"><ele>98.67</ele><time>2016-11-17T03:35:29Z</time></trkpt><trkpt lat="-27.4406523909" lon="152.8904597741"><ele>98.67</ele><time>2016-11-17T03:35:37Z</time></trkpt><trkpt lat="-27.4406717531" lon="152.8904854227"><ele>98.67</ele><time>2016-11-17T03:35:44Z</time></trkpt><trkpt lat="-27.4406807218" lon="152.8905163519"><ele>98.67</ele><time>2016-11-17T03:35:51Z</time></trkpt><trkpt lat="-27.4406747706" lon="152.8905319422"><ele>97.71</ele><time>2016-11-17T03:36:00Z</time></trkpt><trkpt lat="-27.4406720884" lon="152.8905531485"><ele>97.23</ele><time>2016-11-17T03:36:09Z</time></trkpt><trkpt lat="-27.4406691547" lon="152.8905606922"><ele>96.75</ele><time>2016-11-17T03:36:14Z</time></trkpt><trkpt lat="-27.4406425003" lon="152.8905882686"><ele>96.27</ele><time>2016-11-17T03:36:23Z</time></trkpt><trkpt lat="-27.4406446796" lon="152.8905980755"><ele>96.27</ele><time>2016-11-17T03:36:32Z</time></trkpt><trkpt lat="-27.4406344537" lon="152.8906078823"><ele>96.27</ele><time>2016-11-17T03:36:40Z</time></trkpt><trkpt lat="-27.4406573363" lon="152.8905872628"><ele>95.79</ele><time>2016-11-17T03:36:47Z</time></trkpt><trkpt lat="-27.4406564143" lon="152.8905726783"><ele>95.31</ele><time>2016-11-17T03:36:53Z</time></trkpt><trkpt lat="-27.4406398181" lon="152.8905340377"><ele>96.75</ele><time>2016-11-17T03:37:04Z</time></trkpt><trkpt lat="-27.4406562466" lon="152.8904853389"><ele>98.19</ele><time>2016-11-17T03:37:12Z</time></trkpt><trkpt lat="-27.4406574201" lon="152.8904640488"><ele>97.71</ele><time>2016-11-17T03:37:21Z</time></trkpt><trkpt lat="-27.4406559113" lon="152.8904296830"><ele>97.71</ele><time>2016-11-17T03:37:33Z</time></trkpt><trkpt lat="-27.4406271614" lon="152.8904042859"><ele>97.71</ele><time>2016-11-17T03:37:39Z</time></trkpt><trkpt lat="-27.4406043626" lon="152.8903436009"><ele>97.71</ele><time>2016-11-17T03:37:47Z</time></trkpt><trkpt lat="-27.4406060390" lon="152.8903070558"><ele>97.71</ele><time>2016-11-17T03:37:57Z</time></trkpt><trkpt lat="-27.4405996688" lon="152.8903179523"><ele>97.71</ele><time>2016-11-17T03:38:09Z</time></trkpt><trkpt lat="-27.4405751936" lon="152.8903363086"><ele>97.71</ele><time>2016-11-17T03:38:16Z</time></trkpt><trkpt lat="-27.4405308533" lon="152.8903687466"><ele>97.71</ele><time>2016-11-17T03:38:23Z</time></trkpt><trkpt lat="-27.4405053724" lon="152.8903853428"><ele>97.71</ele><time>2016-11-17T03:38:31Z</time></trkpt><trkpt lat="-27.4404959008" lon="152.8903769609"><ele>97.71</ele><time>2016-11-17T03:38:41Z</time></trkpt><trkpt lat="-27.4404475372" lon="152.8903944790"><ele>97.71</ele><time>2016-11-17T03:38:49Z</time></trkpt><trkpt lat="-27.4404207990" lon="152.8903344646"><ele>97.71</ele><time>2016-11-17T03:38:57Z</time></trkpt><trkpt lat="-27.4404109921" lon="152.8902901243"><ele>98.19</ele><time>2016-11-17T03:39:03Z</time></trkpt><trkpt lat="-27.4404074717" lon="152.8902536631"><ele>98.19</ele><time>2016-11-17T03:39:10Z</time></trkpt><trkpt lat="-27.4403894506" lon="152.8902278468"><ele>98.67</ele><time>2016-11-17T03:39:18Z</time></trkpt><trkpt lat="-27.4403442722" lon="152.8901765496"><ele>99.15</ele><time>2016-11-17T03:39:27Z</time></trkpt><trkpt lat="-27.4403130915" lon="152.8901032917"><ele>99.63</ele><time>2016-11-17T03:39:34Z</time></trkpt><trkpt lat="-27.4403014407" lon="152.8900730330"><ele>100.11</ele><time>2016-11-17T03:39:38Z</time></trkpt><trkpt lat="-27.4402975850" lon="152.8900383320"><ele>100.60</ele><time>2016-11-17T03:39:46Z</time></trkpt><trkpt lat="-27.4402881972" lon="152.8900079057"><ele>101.56</ele><time>2016-11-17T03:39:54Z</time></trkpt><trkpt lat="-27.4402870238" lon="152.8899916448"><ele>102.52</ele><time>2016-11-17T03:40:01Z</time></trkpt><trkpt lat="-27.4403026141" lon="152.8900091629"><ele>101.08</ele><time>2016-11-17T03:40:05Z</time></trkpt><trkpt lat="-27.4403111637" lon="152.8899951652"><ele>100.60</ele><time>2016-11-17T03:40:13Z</time></trkpt><trkpt lat="-27.4403228145" lon="152.8899764735"><ele>102.04</ele><time>2016-11-17T03:40:21Z</time></trkpt><trkpt lat="-27.4403124209" lon="152.8900198080"><ele>102.04</ele><time>2016-11-17T03:40:28Z</time></trkpt><trkpt lat="-27.4403026141" lon="152.8900250047"><ele>102.04</ele><time>2016-11-17T03:40:34Z</time></trkpt><trkpt lat="-27.4402934778" lon="152.8899882082"><ele>102.52</ele><time>2016-11-17T03:40:43Z</time></trkpt><trkpt lat="-27.4402617104" lon="152.8899415210"><ele>104.44</ele><time>2016-11-17T03:40:51Z</time></trkpt><trkpt lat="-27.4402316194" lon="152.8898904752"><ele>105.40</ele><time>2016-11-17T03:40:58Z</time></trkpt><trkpt lat="-27.4402120896" lon="152.8898390941"><ele>105.88</ele><time>2016-11-17T03:41:06Z</time></trkpt><trkpt lat="-27.4402218964" lon="152.8897997830"><ele>106.36</ele><time>2016-11-17T03:41:15Z</time></trkpt><trkpt lat="-27.4402400851" lon="152.8897576220"><ele>106.84</ele><time>2016-11-17T03:41:22Z</time></trkpt><trkpt lat="-27.4402523227" lon="152.8897168022"><ele>107.32</ele><time>2016-11-17T03:41:30Z</time></trkpt><trkpt lat="-27.4402545858" lon="152.8897232562"><ele>107.32</ele><time>2016-11-17T03:41:33Z</time></trkpt><trkpt lat="-27.4402340502" lon="152.8897410259"><ele>106.84</ele><time>2016-11-17T03:41:41Z</time></trkpt><trkpt lat="-27.4402319547" lon="152.8897321410"><ele>106.36</ele><time>2016-11-17T03:41:53Z</time></trkpt><trkpt lat="-27.4402425159" lon="152.8897170536"><ele>106.36</ele><time>2016-11-17T03:42:09Z</time></trkpt><trkpt lat="-27.4402481318" lon="152.8896936681"><ele>107.81</ele><time>2016-11-17T03:42:19Z</time></trkpt><trkpt lat="-27.4402635545" lon="152.8896883037"><ele>107.81</ele><time>2016-11-17T03:42:27Z</time></trkpt><trkpt lat="-27.4402696732" lon="152.8896324802"><ele>107.81</ele><time>2016-11-17T03:42:34Z</time></trkpt><trkpt lat="-27.4402705953" lon="152.8895503376"><ele>107.81</ele><time>2016-11-17T03:42:43Z</time></trkpt><trkpt lat="-27.4402562622" lon="152.8895048238"><ele>108.77</ele><time>2016-11-17T03:42:47Z</time></trkpt><trkpt lat="-27.4402460363" lon="152.8894609865"><ele>109.73</ele><time>2016-11-17T03:42:54Z</time></trkpt><trkpt lat="-27.4402225669" lon="152.8894127067"><ele>110.69</ele><time>2016-11-17T03:43:02Z</time></trkpt><trkpt lat="-27.4401902966" lon="152.8893615771"><ele>112.61</ele><time>2016-11-17T03:43:11Z</time></trkpt><trkpt lat="-27.4401971698" lon="152.8892660234"><ele>114.53</ele><time>2016-11-17T03:43:21Z</time></trkpt><trkpt lat="-27.4401904643" lon="152.8891967051"><ele>115.98</ele><time>2016-11-17T03:43:29Z</time></trkpt><trkpt lat="-27.4401915539" lon="152.8891547117"><ele>116.46</ele><time>2016-11-17T03:43:33Z</time></trkpt><trkpt lat="-27.4401882850" lon="152.8890979663"><ele>116.46</ele><time>2016-11-17T03:43:40Z</time></trkpt><trkpt lat="-27.4401705991" lon="152.8890489321"><ele>117.42</ele><time>2016-11-17T03:43:47Z</time></trkpt><trkpt lat="-27.4401283544" lon="152.8890076932"><ele>118.38</ele><time>2016-11-17T03:43:55Z</time></trkpt><trkpt lat="-27.4400669988" lon="152.8889533784"><ele>119.82</ele><time>2016-11-17T03:44:04Z</time></trkpt><trkpt lat="-27.4400582816" lon="152.8889162466"><ele>119.82</ele><time>2016-11-17T03:44:11Z</time></trkpt><trkpt lat="-27.4400894623" lon="152.8888660390"><ele>119.82</ele><time>2016-11-17T03:44:18Z</time></trkpt><trkpt lat="-27.4401250854" lon="152.8888142388"><ele>120.78</ele><time>2016-11-17T03:44:26Z</time></trkpt><trkpt lat="-27.4401087407" lon="152.8887458425"><ele>123.19</ele><time>2016-11-17T03:44:35Z</time></trkpt><trkpt lat="-27.4400974251" lon="152.8886952996"><ele>124.63</ele><time>2016-11-17T03:44:42Z</time></trkpt><trkpt lat="-27.4401234090" lon="152.8886703216"><ele>125.11</ele><time>2016-11-17T03:44:49Z</time></trkpt><trkpt lat="-27.4401566014" lon="152.8886759374"><ele>123.67</ele><time>2016-11-17T03:44:56Z</time></trkpt><trkpt lat="-27.4401566014" lon="152.8886727523"><ele>119.82</ele><time>2016-11-17T03:44:59Z</time></trkpt><trkpt lat="-27.4401566852" lon="152.8886714950"><ele>126.55</ele><time>2016-11-17T03:45:00Z</time></trkpt><trkpt lat="-27.4401554279" lon="152.8886691481"><ele>122.22</ele><time>2016-11-17T03:45:05Z</time></trkpt><trkpt lat="-27.4401535001" lon="152.8886683937"><ele>126.07</ele><time>2016-11-17T03:45:06Z</time></trkpt><trkpt lat="-27.4401842616" lon="152.8886926174"><ele>123.19</ele><time>2016-11-17T03:45:14Z</time></trkpt><trkpt lat="-27.4401850160" lon="152.8886694834"><ele>123.67</ele><time>2016-11-17T03:45:25Z</time></trkpt><trkpt lat="-27.4401704315" lon="152.8886548150"><ele>123.67</ele><time>2016-11-17T03:45:31Z</time></trkpt><trkpt lat="-27.4401605409" lon="152.8886329383"><ele>123.67</ele><time>2016-11-17T03:45:34Z</time></trkpt><trkpt lat="-27.4401433580" lon="152.8886018414"><ele>123.19</ele><time>2016-11-17T03:45:42Z</time></trkpt><trkpt lat="-27.4401275162" lon="152.8885403182"><ele>122.71</ele><time>2016-11-17T03:45:50Z</time></trkpt><trkpt lat="-27.4400926474" lon="152.8884973191"><ele>122.22</ele><time>2016-11-17T03:45:58Z</time></trkpt><trkpt lat="-27.4400700163" lon="152.8884672280"><ele>121.74</ele><time>2016-11-17T03:46:05Z</time></trkpt><trkpt lat="-27.4400738720" lon="152.8884492069"><ele>122.22</ele><time>2016-11-17T03:46:13Z</time></trkpt><trkpt lat="-27.4400679208" lon="152.8884374723"><ele>121.74</ele><time>2016-11-17T03:46:23Z</time></trkpt><trkpt lat="-27.4400324654" lon="152.8883982450"><ele>121.74</ele><time>2016-11-17T03:46:32Z</time></trkpt><trkpt lat="-27.4400214013" lon="152.8883825708"><ele>121.74</ele><time>2016-11-17T03:46:35Z</time></trkpt><trkpt lat="-27.4399854429" lon="152.8883295972"><ele>121.74</ele><time>2016-11-17T03:46:42Z</time></trkpt><trkpt lat="-27.4399357382" lon="152.8882932197"><ele>121.74</ele><time>2016-11-17T03:46:49Z</time></trkpt><trkpt lat="-27.4398405198" lon="152.8882205486"><ele>121.74</ele><time>2016-11-17T03:47:00Z</time></trkpt><trkpt lat="-27.4397979397" lon="152.8882121667"><ele>121.74</ele><time>2016-11-17T03:47:07Z</time></trkpt><trkpt lat="-27.4397698604" lon="152.8881563433"><ele>121.74</ele><time>2016-11-17T03:47:15Z</time></trkpt><trkpt lat="-27.4397679325" lon="152.8881456144"><ele>121.74</ele><time>2016-11-17T03:47:23Z</time></trkpt><trkpt lat="-27.4397589639" lon="152.8881261684"><ele>121.26</ele><time>2016-11-17T03:47:25Z</time></trkpt><trkpt lat="-27.4397212453" lon="152.8880468756"><ele>120.78</ele><time>2016-11-17T03:47:32Z</time></trkpt><trkpt lat="-27.4397088401" lon="152.8880265914"><ele>120.78</ele><time>2016-11-17T03:47:34Z</time></trkpt><trkpt lat="-27.4396618176" lon="152.8879593685"><ele>122.22</ele><time>2016-11-17T03:47:43Z</time></trkpt><trkpt lat="-27.4396528490" lon="152.8879202250"><ele>122.22</ele><time>2016-11-17T03:47:50Z</time></trkpt><trkpt lat="-27.4396442156" lon="152.8878858592"><ele>122.22</ele><time>2016-11-17T03:47:57Z</time></trkpt><trkpt lat="-27.4396254402" lon="152.8878627252"><ele>120.78</ele><time>2016-11-17T03:48:04Z</time></trkpt><trkpt lat="-27.4396177288" lon="152.8878538404"><ele>120.78</ele><time>2016-11-17T03:48:13Z</time></trkpt><trkpt lat="-27.4395700358" lon="152.8877908923"><ele>120.78</ele><time>2016-11-17T03:48:20Z</time></trkpt><trkpt lat="-27.4395007174" lon="152.8877701052"><ele>120.78</ele><time>2016-11-17T03:48:28Z</time></trkpt><trkpt lat="-27.4394405354" lon="152.8877546825"><ele>124.15</ele><time>2016-11-17T03:48:35Z</time></trkpt><trkpt lat="-27.4393914174" lon="152.8877547663"><ele>121.26</ele><time>2016-11-17T03:48:43Z</time></trkpt><trkpt lat="-27.4393687025" lon="152.8877505753"><ele>122.22</ele><time>2016-11-17T03:48:48Z</time></trkpt><trkpt lat="-27.4393076822" lon="152.8877124377"><ele>120.30</ele><time>2016-11-17T03:48:56Z</time></trkpt><trkpt lat="-27.4392715562" lon="152.8877102584"><ele>120.30</ele><time>2016-11-17T03:48:59Z</time></trkpt><trkpt lat="-27.4391966220" lon="152.8876792453"><ele>119.34</ele><time>2016-11-17T03:49:07Z</time></trkpt><trkpt lat="-27.4391478393" lon="152.8876079991"><ele>117.90</ele><time>2016-11-17T03:49:14Z</time></trkpt><trkpt lat="-27.4391018227" lon="152.8875432909"><ele>117.42</ele><time>2016-11-17T03:49:21Z</time></trkpt><trkpt lat="-27.4390801135" lon="152.8874799237"><ele>116.94</ele><time>2016-11-17T03:49:28Z</time></trkpt><trkpt lat="-27.4390154891" lon="152.8873893991"><ele>116.94</ele><time>2016-11-17T03:49:36Z</time></trkpt><trkpt lat="-27.4389704783" lon="152.8872998804"><ele>116.94</ele><time>2016-11-17T03:49:43Z</time></trkpt><trkpt lat="-27.4389482662" lon="152.8872339148"><ele>116.94</ele><time>2016-11-17T03:49:48Z</time></trkpt><trkpt lat="-27.4388846476" lon="152.8871397022"><ele>116.46</ele><time>2016-11-17T03:49:56Z</time></trkpt><trkpt lat="-27.4388513714" lon="152.8870681208"><ele>115.01</ele><time>2016-11-17T03:50:04Z</time></trkpt><trkpt lat="-27.4388161674" lon="152.8870236129"><ele>113.09</ele><time>2016-11-17T03:50:11Z</time></trkpt><trkpt lat="-27.4387942068" lon="152.8869986348"><ele>113.57</ele><time>2016-11-17T03:50:20Z</time></trkpt><trkpt lat="-27.4387872498" lon="152.8869863972"><ele>113.57</ele><time>2016-11-17T03:50:21Z</time></trkpt><trkpt lat="-27.4387775268" lon="152.8869659454"><ele>112.13</ele><time>2016-11-17T03:50:23Z</time></trkpt><trkpt lat="-27.4387509562" lon="152.8869030811"><ele>111.65</ele><time>2016-11-17T03:50:31Z</time></trkpt><trkpt lat="-27.4387684744" lon="152.8869359381"><ele>111.17</ele><time>2016-11-17T03:50:38Z</time></trkpt><trkpt lat="-27.4388017505" lon="152.8869521990"><ele>113.09</ele><time>2016-11-17T03:50:45Z</time></trkpt><trkpt lat="-27.4388391338" lon="152.8869827092"><ele>113.57</ele><time>2016-11-17T03:50:53Z</time></trkpt><trkpt lat="-27.4388587475" lon="152.8870086931"><ele>114.05</ele><time>2016-11-17T03:51:00Z</time></trkpt><trkpt lat="-27.4388809595" lon="152.8870345093"><ele>114.53</ele><time>2016-11-17T03:51:09Z</time></trkpt><trkpt lat="-27.4388955440" lon="152.8870923445"><ele>115.01</ele><time>2016-11-17T03:51:21Z</time></trkpt><trkpt lat="-27.4389007408" lon="152.8871002235"><ele>115.01</ele><time>2016-11-17T03:51:22Z</time></trkpt><trkpt lat="-27.4389330950" lon="152.8871669434"><ele>115.98</ele><time>2016-11-17T03:51:29Z</time></trkpt><trkpt lat="-27.4389714003" lon="152.8872007225"><ele>116.46</ele><time>2016-11-17T03:51:36Z</time></trkpt><trkpt lat="-27.4389753398" lon="152.8872542828"><ele>117.42</ele><time>2016-11-17T03:51:46Z</time></trkpt><trkpt lat="-27.4389800336" lon="152.8872733936"><ele>117.42</ele><time>2016-11-17T03:51:48Z</time></trkpt><trkpt lat="-27.4390325043" lon="152.8873931710"><ele>117.90</ele><time>2016-11-17T03:51:57Z</time></trkpt><trkpt lat="-27.4390716478" lon="152.8874480724"><ele>117.42</ele><time>2016-11-17T03:52:04Z</time></trkpt><trkpt lat="-27.4390852265" lon="152.8874976095"><ele>117.42</ele><time>2016-11-17T03:52:15Z</time></trkpt><trkpt lat="-27.4391247053" lon="152.8875815962"><ele>117.42</ele><time>2016-11-17T03:52:23Z</time></trkpt><trkpt lat="-27.4391676206" lon="152.8876411077"><ele>118.38</ele><time>2016-11-17T03:52:31Z</time></trkpt><trkpt lat="-27.4391996395" lon="152.8876696061"><ele>119.34</ele><time>2016-11-17T03:52:39Z</time></trkpt><trkpt lat="-27.4392423872" lon="152.8877074085"><ele>119.82</ele><time>2016-11-17T03:52:48Z</time></trkpt><trkpt lat="-27.4392751604" lon="152.8877152037"><ele>120.30</ele><time>2016-11-17T03:52:58Z</time></trkpt><trkpt lat="-27.4393273797" lon="152.8877292853"><ele>120.78</ele><time>2016-11-17T03:53:05Z</time></trkpt><trkpt lat="-27.4393770844" lon="152.8877514135"><ele>121.74</ele><time>2016-11-17T03:53:13Z</time></trkpt><trkpt lat="-27.4394032359" lon="152.8877531737"><ele>121.74</ele><time>2016-11-17T03:53:20Z</time></trkpt><trkpt lat="-27.4394694529" lon="152.8877564427"><ele>121.74</ele><time>2016-11-17T03:53:27Z</time></trkpt><trkpt lat="-27.4394920003" lon="152.8877486475"><ele>121.74</ele><time>2016-11-17T03:53:31Z</time></trkpt><trkpt lat="-27.4395271204" lon="152.8877801634"><ele>121.74</ele><time>2016-11-17T03:53:36Z</time></trkpt><trkpt lat="-27.4395795073" lon="152.8878098354"><ele>121.74</ele><time>2016-11-17T03:53:42Z</time></trkpt><trkpt lat="-27.4396525975" lon="152.8878524154"><ele>121.74</ele><time>2016-11-17T03:53:53Z</time></trkpt><trkpt lat="-27.4396592192" lon="152.8878970910"><ele>122.71</ele><time>2016-11-17T03:53:59Z</time></trkpt><trkpt lat="-27.4396758992" lon="152.8878931515"><ele>122.22</ele><time>2016-11-17T03:54:06Z</time></trkpt><trkpt lat="-27.4396828562" lon="152.8878962528"><ele>122.22</ele><time>2016-11-17T03:54:07Z</time></trkpt><trkpt lat="-27.4397382606" lon="152.8879737016"><ele>121.26</ele><time>2016-11-17T03:54:15Z</time></trkpt><trkpt lat="-27.4397482350" lon="152.8880135156"><ele>120.78</ele><time>2016-11-17T03:54:18Z</time></trkpt><trkpt lat="-27.4397737999" lon="152.8880783916"><ele>122.22</ele><time>2016-11-17T03:54:25Z</time></trkpt><trkpt lat="-27.4398235045" lon="152.8881349694"><ele>122.22</ele><time>2016-11-17T03:54:32Z</time></trkpt><trkpt lat="-27.4398539308" lon="152.8881544992"><ele>122.22</ele><time>2016-11-17T03:54:36Z</time></trkpt><trkpt lat="-27.4399058986" lon="152.8882468678"><ele>122.22</ele><time>2016-11-17T03:54:45Z</time></trkpt><trkpt lat="-27.4399584532" lon="152.8882946447"><ele>122.22</ele><time>2016-11-17T03:54:52Z</time></trkpt><trkpt lat="-27.4400004465" lon="152.8883363865"><ele>122.22</ele><time>2016-11-17T03:54:59Z</time></trkpt><trkpt lat="-27.4400347285" lon="152.8883589339"><ele>122.22</ele><time>2016-11-17T03:55:05Z</time></trkpt><trkpt lat="-27.4400834274" lon="152.8883901145"><ele>122.22</ele><time>2016-11-17T03:55:11Z</time></trkpt><trkpt lat="-27.4401074834" lon="152.8884305153"><ele>122.22</ele><time>2016-11-17T03:55:18Z</time></trkpt><trkpt lat="-27.4401308689" lon="152.8884629533"><ele>122.22</ele><time>2016-11-17T03:55:24Z</time></trkpt><trkpt lat="-27.4401634745" lon="152.8885081317"><ele>122.22</ele><time>2016-11-17T03:55:30Z</time></trkpt><trkpt lat="-27.4401782267" lon="152.8885510471"><ele>123.19</ele><time>2016-11-17T03:55:36Z</time></trkpt><trkpt lat="-27.4401949905" lon="152.8886027634"><ele>123.67</ele><time>2016-11-17T03:55:43Z</time></trkpt><trkpt lat="-27.4401949067" lon="152.8886165936"><ele>123.67</ele><time>2016-11-17T03:55:50Z</time></trkpt><trkpt lat="-27.4402003549" lon="152.8886395600"><ele>123.67</ele><time>2016-11-17T03:55:57Z</time></trkpt><trkpt lat="-27.4401723593" lon="152.8886581678"><ele>124.15</ele><time>2016-11-17T03:56:11Z</time></trkpt><trkpt lat="-27.4401635583" lon="152.8886708245"><ele>124.15</ele><time>2016-11-17T03:56:16Z</time></trkpt><trkpt lat="-27.4401339702" lon="152.8886766080"><ele>124.63</ele><time>2016-11-17T03:56:23Z</time></trkpt><trkpt lat="-27.4401597027" lon="152.8886823915"><ele>124.63</ele><time>2016-11-17T03:56:29Z</time></trkpt><trkpt lat="-27.4401847646" lon="152.8886989038"><ele>123.19</ele><time>2016-11-17T03:56:35Z</time></trkpt><trkpt lat="-27.4402501434" lon="152.8887233790"><ele>122.71</ele><time>2016-11-17T03:56:42Z</time></trkpt><trkpt lat="-27.4402978364" lon="152.8887612652"><ele>121.74</ele><time>2016-11-17T03:56:50Z</time></trkpt><trkpt lat="-27.4403430987" lon="152.8887704853"><ele>120.78</ele><time>2016-11-17T03:56:58Z</time></trkpt><trkpt lat="-27.4403572641" lon="152.8887840640"><ele>119.82</ele><time>2016-11-17T03:57:11Z</time></trkpt><trkpt lat="-27.4404049572" lon="152.8888220340"><ele>119.34</ele><time>2016-11-17T03:57:18Z</time></trkpt><trkpt lat="-27.4404586852" lon="152.8888381273"><ele>117.42</ele><time>2016-11-17T03:57:25Z</time></trkpt><trkpt lat="-27.4405351281" lon="152.8888729122"><ele>115.98</ele><time>2016-11-17T03:57:34Z</time></trkpt><trkpt lat="-27.4405473657" lon="152.8888926934"><ele>115.50</ele><time>2016-11-17T03:57:43Z</time></trkpt><trkpt lat="-27.4405830726" lon="152.8888982255"><ele>114.53</ele><time>2016-11-17T03:57:51Z</time></trkpt><trkpt lat="-27.4406064581" lon="152.8889160790"><ele>113.57</ele><time>2016-11-17T03:57:58Z</time></trkpt><trkpt lat="-27.4405785464" lon="152.8888969682"><ele>113.57</ele><time>2016-11-17T03:58:06Z</time></trkpt><trkpt lat="-27.4405720923" lon="152.8888828866"><ele>113.57</ele><time>2016-11-17T03:58:13Z</time></trkpt><trkpt lat="-27.4405842461" lon="152.8889049310"><ele>113.57</ele><time>2016-11-17T03:58:22Z</time></trkpt><trkpt lat="-27.4406022672" lon="152.8889089543"><ele>113.57</ele><time>2016-11-17T03:58:29Z</time></trkpt><trkpt lat="-27.4406159297" lon="152.8889060207"><ele>112.61</ele><time>2016-11-17T03:58:36Z</time></trkpt><trkpt lat="-27.4406171031" lon="152.8889013268"><ele>111.65</ele><time>2016-11-17T03:58:48Z</time></trkpt><trkpt lat="-27.4406581745" lon="152.8889311664"><ele>109.73</ele><time>2016-11-17T03:58:56Z</time></trkpt><trkpt lat="-27.4407176860" lon="152.8889489360"><ele>109.25</ele><time>2016-11-17T03:59:03Z</time></trkpt><trkpt lat="-27.4407877587" lon="152.8889890853"><ele>107.81</ele><time>2016-11-17T03:59:11Z</time></trkpt><trkpt lat="-27.4408075400" lon="152.8890004009"><ele>107.32</ele><time>2016-11-17T03:59:19Z</time></trkpt><trkpt lat="-27.4408579152" lon="152.8890402149"><ele>106.84</ele><time>2016-11-17T03:59:27Z</time></trkpt><trkpt lat="-27.4409274850" lon="152.8890853934"><ele>106.36</ele><time>2016-11-17T03:59:36Z</time></trkpt><trkpt lat="-27.4409592524" lon="152.8891079407"><ele>106.36</ele><time>2016-11-17T03:59:45Z</time></trkpt><trkpt lat="-27.4409692269" lon="152.8891181666"><ele>106.36</ele><time>2016-11-17T04:00:01Z</time></trkpt><trkpt lat="-27.4410207756" lon="152.8891173285"><ele>105.88</ele><time>2016-11-17T04:00:08Z</time></trkpt><trkpt lat="-27.4410624336" lon="152.8891117126"><ele>105.40</ele><time>2016-11-17T04:00:16Z</time></trkpt><trkpt lat="-27.4410980567" lon="152.8891081922"><ele>105.40</ele><time>2016-11-17T04:00:27Z</time></trkpt><trkpt lat="-27.4411485996" lon="152.8891345114"><ele>104.92</ele><time>2016-11-17T04:00:34Z</time></trkpt><trkpt lat="-27.4412008189" lon="152.8892031591"><ele>104.44</ele><time>2016-11-17T04:00:42Z</time></trkpt><trkpt lat="-27.4412579834" lon="152.8892702144"><ele>103.96</ele><time>2016-11-17T04:00:52Z</time></trkpt><trkpt lat="-27.4413096160" lon="152.8893061727"><ele>103.00</ele><time>2016-11-17T04:00:59Z</time></trkpt><trkpt lat="-27.4413180817" lon="152.8893205058"><ele>103.48</ele><time>2016-11-17T04:01:07Z</time></trkpt><trkpt lat="-27.4413117953" lon="152.8893288039"><ele>103.48</ele><time>2016-11-17T04:01:20Z</time></trkpt><trkpt lat="-27.4413520284" lon="152.8893882316"><ele>102.52</ele><time>2016-11-17T04:01:27Z</time></trkpt><trkpt lat="-27.4413540401" lon="152.8894484974"><ele>102.52</ele><time>2016-11-17T04:01:34Z</time></trkpt><trkpt lat="-27.4413585663" lon="152.8894624114"><ele>102.04</ele><time>2016-11-17T04:01:41Z</time></trkpt><trkpt lat="-27.4413630925" lon="152.8894911613"><ele>102.04</ele><time>2016-11-17T04:01:49Z</time></trkpt><trkpt lat="-27.4413650203" lon="152.8894899879"><ele>102.04</ele><time>2016-11-17T04:01:54Z</time></trkpt><trkpt lat="-27.4413599074" lon="152.8895226773"><ele>101.56</ele><time>2016-11-17T04:02:04Z</time></trkpt><trkpt lat="-27.4413951114" lon="152.8895619046"><ele>101.56</ele><time>2016-11-17T04:02:12Z</time></trkpt><trkpt lat="-27.4414319918" lon="152.8896130342"><ele>100.60</ele><time>2016-11-17T04:02:19Z</time></trkpt><trkpt lat="-27.4414378591" lon="152.8896054067"><ele>100.11</ele><time>2016-11-17T04:02:28Z</time></trkpt><trkpt lat="-27.4414811935" lon="152.8896474838"><ele>100.11</ele><time>2016-11-17T04:02:35Z</time></trkpt><trkpt lat="-27.4415387772" lon="152.8896959312"><ele>99.63</ele><time>2016-11-17T04:02:42Z</time></trkpt><trkpt lat="-27.4416080955" lon="152.8897649143"><ele>99.63</ele><time>2016-11-17T04:02:50Z</time></trkpt><trkpt lat="-27.4416489992" lon="152.8897953406"><ele>99.63</ele><time>2016-11-17T04:02:59Z</time></trkpt><trkpt lat="-27.4416765757" lon="152.8898500744"><ele>99.63</ele><time>2016-11-17T04:03:07Z</time></trkpt><trkpt lat="-27.4417303037" lon="152.8898705263"><ele>99.63</ele><time>2016-11-17T04:03:13Z</time></trkpt><trkpt lat="-27.4417660944" lon="152.8898939956"><ele>99.63</ele><time>2016-11-17T04:03:19Z</time></trkpt><trkpt lat="-27.4417926650" lon="152.8899057303"><ele>99.63</ele><time>2016-11-17T04:03:25Z</time></trkpt><trkpt lat="-27.4418023881" lon="152.8899416886"><ele>99.15</ele><time>2016-11-17T04:03:35Z</time></trkpt><trkpt lat="-27.4418116082" lon="152.8899853583"><ele>99.15</ele><time>2016-11-17T04:03:41Z</time></trkpt><trkpt lat="-27.4418330658" lon="152.8900174610"><ele>99.15</ele><time>2016-11-17T04:03:48Z</time></trkpt><trkpt lat="-27.4418325629" lon="152.8900350630"><ele>99.15</ele><time>2016-11-17T04:03:54Z</time></trkpt><trkpt lat="-27.4418376759" lon="152.8900824208"><ele>99.15</ele><time>2016-11-17T04:04:02Z</time></trkpt><trkpt lat="-27.4418326467" lon="152.8901164513"><ele>99.15</ele><time>2016-11-17T04:04:09Z</time></trkpt><trkpt lat="-27.4418238457" lon="152.8901371546"><ele>99.15</ele><time>2016-11-17T04:04:18Z</time></trkpt><trkpt lat="-27.4418072496" lon="152.8901472967"><ele>100.60</ele><time>2016-11-17T04:04:20Z</time></trkpt><trkpt lat="-27.4418099318" lon="152.8901816625"><ele>97.23</ele><time>2016-11-17T04:04:24Z</time></trkpt><trkpt lat="-27.4418091774" lon="152.8901855182"><ele>100.11</ele><time>2016-11-17T04:04:25Z</time></trkpt><trkpt lat="-27.4417914078" lon="152.8902189620"><ele>98.67</ele><time>2016-11-17T04:04:32Z</time></trkpt><trkpt lat="-27.4417624064" lon="152.8902319539"><ele>98.19</ele><time>2016-11-17T04:04:39Z</time></trkpt><trkpt lat="-27.4417236820" lon="152.8902534954"><ele>98.19</ele><time>2016-11-17T04:04:48Z</time></trkpt><trkpt lat="-27.4416618235" lon="152.8902215604"><ele>97.71</ele><time>2016-11-17T04:04:55Z</time></trkpt><trkpt lat="-27.4416285474" lon="152.8902030364"><ele>97.71</ele><time>2016-11-17T04:05:03Z</time></trkpt><trkpt lat="-27.4415668566" lon="152.8902030364"><ele>97.71</ele><time>2016-11-17T04:05:11Z</time></trkpt><trkpt lat="-27.4415184930" lon="152.8902104124"><ele>97.71</ele><time>2016-11-17T04:05:17Z</time></trkpt><trkpt lat="-27.4414656870" lon="152.8901888710"><ele>97.71</ele><time>2016-11-17T04:05:24Z</time></trkpt><trkpt lat="-27.4414310697" lon="152.8901992645"><ele>97.71</ele><time>2016-11-17T04:05:34Z</time></trkpt><trkpt lat="-27.4414046668" lon="152.8901988454"><ele>97.23</ele><time>2016-11-17T04:05:41Z</time></trkpt><trkpt lat="-27.4413779285" lon="152.8901975881"><ele>97.23</ele><time>2016-11-17T04:05:52Z</time></trkpt><trkpt lat="-27.4413571414" lon="152.8902002703"><ele>97.23</ele><time>2016-11-17T04:06:08Z</time></trkpt><trkpt lat="-27.4413489271" lon="152.8902128432"><ele>97.23</ele><time>2016-11-17T04:06:23Z</time></trkpt><trkpt lat="-27.4413527828" lon="152.8901866078"><ele>97.23</ele><time>2016-11-17T04:06:35Z</time></trkpt><trkpt lat="-27.4413526990" lon="152.8901821654"><ele>100.60</ele><time>2016-11-17T04:06:44Z</time></trkpt><trkpt lat="-27.4413463287" lon="152.8901866917"><ele>97.71</ele><time>2016-11-17T04:06:45Z</time></trkpt><trkpt lat="-27.4413369410" lon="152.8901882004"><ele>97.71</ele><time>2016-11-17T04:06:46Z</time></trkpt><trkpt lat="-27.4412876554" lon="152.8901538346"><ele>97.71</ele><time>2016-11-17T04:06:53Z</time></trkpt><trkpt lat="-27.4412810337" lon="152.8901302814"><ele>96.75</ele><time>2016-11-17T04:07:00Z</time></trkpt><trkpt lat="-27.4412676226" lon="152.8901176248"><ele>96.75</ele><time>2016-11-17T04:07:02Z</time></trkpt><trkpt lat="-27.4411996454" lon="152.8900700156"><ele>96.75</ele><time>2016-11-17T04:07:11Z</time></trkpt><trkpt lat="-27.4411719013" lon="152.8900694288"><ele>96.75</ele><time>2016-11-17T04:07:14Z</time></trkpt><trkpt lat="-27.4411168322" lon="152.8900810797"><ele>96.75</ele><time>2016-11-17T04:07:20Z</time></trkpt><trkpt lat="-27.4410882499" lon="152.8900985979"><ele>96.75</ele><time>2016-11-17T04:07:27Z</time></trkpt><trkpt lat="-27.4410304148" lon="152.8900856897"><ele>96.75</ele><time>2016-11-17T04:07:34Z</time></trkpt><trkpt lat="-27.4410331808" lon="152.8901007771"><ele>96.75</ele><time>2016-11-17T04:07:44Z</time></trkpt><trkpt lat="-27.4410038441" lon="152.8901306167"><ele>96.75</ele><time>2016-11-17T04:07:54Z</time></trkpt><trkpt lat="-27.4409606773" lon="152.8900942393"><ele>96.27</ele><time>2016-11-17T04:08:02Z</time></trkpt><trkpt lat="-27.4409175944" lon="152.8900628071"><ele>95.79</ele><time>2016-11-17T04:08:12Z</time></trkpt><trkpt lat="-27.4408912752" lon="152.8900353983"><ele>95.79</ele><time>2016-11-17T04:08:22Z</time></trkpt><trkpt lat="-27.4408284947" lon="152.8900660761"><ele>95.79</ele><time>2016-11-17T04:08:31Z</time></trkpt><trkpt lat="-27.4408259802" lon="152.8900782298"><ele>96.27</ele><time>2016-11-17T04:08:39Z</time></trkpt><trkpt lat="-27.4408138264" lon="152.8900825884"><ele>96.27</ele><time>2016-11-17T04:08:46Z</time></trkpt><trkpt lat="-27.4407916982" lon="152.8900944907"><ele>96.27</ele><time>2016-11-17T04:08:53Z</time></trkpt><trkpt lat="-27.4407982361" lon="152.8901053872"><ele>96.27</ele><time>2016-11-17T04:09:00Z</time></trkpt><trkpt lat="-27.4407955538" lon="152.8901296947"><ele>96.27</ele><time>2016-11-17T04:09:07Z</time></trkpt><trkpt lat="-27.4407829810" lon="152.8901127633"><ele>96.27</ele><time>2016-11-17T04:09:20Z</time></trkpt><trkpt lat="-27.4407510459" lon="152.8901161160"><ele>96.27</ele><time>2016-11-17T04:09:26Z</time></trkpt><trkpt lat="-27.4407614395" lon="152.8901161999"><ele>96.27</ele><time>2016-11-17T04:09:37Z</time></trkpt><trkpt lat="-27.4407402333" lon="152.8901481349"><ele>96.27</ele><time>2016-11-17T04:09:43Z</time></trkpt><trkpt lat="-27.4406921212" lon="152.8902386595"><ele>96.27</ele><time>2016-11-17T04:09:51Z</time></trkpt><trkpt lat="-27.4406566657" lon="152.8903353866"><ele>96.27</ele><time>2016-11-17T04:09:58Z</time></trkpt><trkpt lat="-27.4406383093" lon="152.8903995920"><ele>96.27</ele><time>2016-11-17T04:10:04Z</time></trkpt><trkpt lat="-27.4406471942" lon="152.8904346284"><ele>96.27</ele><time>2016-11-17T04:10:11Z</time></trkpt><trkpt lat="-27.4406464398" lon="152.8904737718"><ele>96.27</ele><time>2016-11-17T04:10:20Z</time></trkpt><trkpt lat="-27.4406689871" lon="152.8905121610"><ele>96.27</ele><time>2016-11-17T04:10:28Z</time></trkpt><trkpt lat="-27.4406818952" lon="152.8905454371"><ele>96.27</ele><time>2016-11-17T04:10:35Z</time></trkpt><trkpt lat="-27.4406734295" lon="152.8905692417"><ele>96.27</ele><time>2016-11-17T04:10:43Z</time></trkpt><trkpt lat="-27.4406709149" lon="152.8906068765"><ele>94.83</ele><time>2016-11-17T04:10:50Z</time></trkpt><trkpt lat="-27.4406582583" lon="152.8906305134"><ele>94.35</ele><time>2016-11-17T04:10:54Z</time></trkpt><trkpt lat="-27.4406329449" lon="152.8906767815"><ele>93.87</ele><time>2016-11-17T04:11:00Z</time></trkpt><trkpt lat="-27.4406369682" lon="152.8907095548"><ele>93.87</ele><time>2016-11-17T04:11:06Z</time></trkpt><trkpt lat="-27.4406093918" lon="152.8907517996"><ele>93.87</ele><time>2016-11-17T04:11:12Z</time></trkpt><trkpt lat="-27.4405959807" lon="152.8907844890"><ele>93.87</ele><time>2016-11-17T04:11:20Z</time></trkpt><trkpt lat="-27.4406019319" lon="152.8907881770"><ele>97.23</ele><time>2016-11-17T04:11:24Z</time></trkpt><trkpt lat="-27.4405998364" lon="152.8907875903"><ele>93.87</ele><time>2016-11-17T04:11:29Z</time></trkpt><trkpt lat="-27.4406006746" lon="152.8907409869"><ele>94.83</ele><time>2016-11-17T04:11:40Z</time></trkpt><trkpt lat="-27.4406544026" lon="152.8907392267"><ele>94.83</ele><time>2016-11-17T04:11:49Z</time></trkpt><trkpt lat="-27.4406113196" lon="152.8907213733"><ele>95.31</ele><time>2016-11-17T04:12:07Z</time></trkpt><trkpt lat="-27.4406035244" lon="152.8907070402"><ele>95.31</ele><time>2016-11-17T04:12:17Z</time></trkpt><trkpt lat="-27.4405904487" lon="152.8906925395"><ele>95.31</ele><time>2016-11-17T04:12:34Z</time></trkpt><trkpt lat="-27.4405756965" lon="152.8906690702"><ele>95.31</ele><time>2016-11-17T04:12:52Z</time></trkpt><trkpt lat="-27.4405648839" lon="152.8906642087"><ele>95.31</ele><time>2016-11-17T04:13:08Z</time></trkpt><trkpt lat="-27.4405582622" lon="152.8906826489"><ele>95.79</ele><time>2016-11-17T04:13:25Z</time></trkpt><trkpt lat="-27.4405632075" lon="152.8907126561"><ele>95.79</ele><time>2016-11-17T04:13:39Z</time></trkpt><trkpt lat="-27.4405506346" lon="152.8907347005"><ele>95.79</ele><time>2016-11-17T04:13:57Z</time></trkpt><trkpt lat="-27.4406225514" lon="152.8907853272"><ele>95.79</ele><time>2016-11-17T04:14:15Z</time></trkpt><trkpt lat="-27.4406228028" lon="152.8907756042"><ele>96.27</ele><time>2016-11-17T04:14:22Z</time></trkpt><trkpt lat="-27.4406254012" lon="152.8907576669"><ele>96.27</ele><time>2016-11-17T04:14:35Z</time></trkpt><trkpt lat="-27.4406009261" lon="152.8907512128"><ele>96.27</ele><time>2016-11-17T04:14:43Z</time></trkpt><trkpt lat="-27.4406026024" lon="152.8907502908"><ele>96.27</ele><time>2016-11-17T04:14:58Z</time></trkpt><trkpt lat="-27.4405992497" lon="152.8907292522"><ele>96.27</ele><time>2016-11-17T04:15:09Z</time></trkpt><trkpt lat="-27.4406159297" lon="152.8907740116"><ele>96.75</ele><time>2016-11-17T04:15:22Z</time></trkpt><trkpt lat="-27.4406309333" lon="152.8907857463"><ele>96.75</ele><time>2016-11-17T04:15:40Z</time></trkpt><trkpt lat="-27.4406302627" lon="152.8908256441"><ele>96.75</ele><time>2016-11-17T04:16:05Z</time></trkpt><trkpt lat="-27.4406403210" lon="152.8908322658"><ele>96.75</ele><time>2016-11-17T04:16:27Z</time></trkpt><trkpt lat="-27.4406524748" lon="152.8907985706"><ele>96.75</ele><time>2016-11-17T04:16:44Z</time></trkpt><trkpt lat="-27.4406459369" lon="152.8907757718"><ele>96.75</ele><time>2016-11-17T04:16:52Z</time></trkpt><trkpt lat="-27.4406371359" lon="152.8907725029"><ele>96.75</ele><time>2016-11-17T04:17:00Z</time></trkpt><trkpt lat="-27.4406041112" lon="152.8907822259"><ele>96.75</ele><time>2016-11-17T04:17:04Z</time></trkpt><trkpt lat="-27.4405323621" lon="152.8907993250"><ele>96.75</ele><time>2016-11-17T04:17:13Z</time></trkpt><trkpt lat="-27.4405485392" lon="152.8908126522"><ele>96.75</ele><time>2016-11-17T04:17:19Z</time></trkpt><trkpt lat="-27.4405010976" lon="152.8907724191"><ele>96.75</ele><time>2016-11-17T04:17:24Z</time></trkpt><trkpt lat="-27.4404316116" lon="152.8907495365"><ele>97.23</ele><time>2016-11-17T04:17:31Z</time></trkpt><trkpt lat="-27.4404223077" lon="152.8907452617"><ele>97.23</ele><time>2016-11-17T04:17:43Z</time></trkpt><trkpt lat="-27.4403624609" lon="152.8906968981"><ele>98.19</ele><time>2016-11-17T04:17:51Z</time></trkpt><trkpt lat="-27.4402964115" lon="152.8906794637"><ele>99.63</ele><time>2016-11-17T04:17:58Z</time></trkpt><trkpt lat="-27.4402943999" lon="152.8906894382"><ele>99.63</ele><time>2016-11-17T04:18:07Z</time></trkpt><trkpt lat="-27.4402959086" lon="152.8906803019"><ele>100.11</ele><time>2016-11-17T04:18:22Z</time></trkpt><trkpt lat="-27.4403076433" lon="152.8906401526"><ele>100.11</ele><time>2016-11-17T04:18:41Z</time></trkpt><trkpt lat="-27.4403052963" lon="152.8906509653"><ele>100.11</ele><time>2016-11-17T04:19:01Z</time></trkpt><trkpt lat="-27.4402895384" lon="152.8906679805"><ele>100.11</ele><time>2016-11-17T04:19:23Z</time></trkpt><trkpt lat="-27.4402861856" lon="152.8906555753"><ele>100.11</ele><time>2016-11-17T04:19:42Z</time></trkpt><trkpt lat="-27.4403161928" lon="152.8906654660"><ele>100.11</ele><time>2016-11-17T04:19:49Z</time></trkpt><trkpt lat="-27.4403647240" lon="152.8906870075"><ele>98.67</ele><time>2016-11-17T04:19:55Z</time></trkpt><trkpt lat="-27.4404432625" lon="152.8907106444"><ele>98.19</ele><time>2016-11-17T04:20:03Z</time></trkpt><trkpt lat="-27.4404927157" lon="152.8907269891"><ele>97.71</ele><time>2016-11-17T04:20:12Z</time></trkpt><trkpt lat="-27.4405099824" lon="152.8907484468"><ele>97.71</ele><time>2016-11-17T04:20:28Z</time></trkpt><trkpt lat="-27.4405575078" lon="152.8907507099"><ele>97.23</ele><time>2016-11-17T04:20:40Z</time></trkpt><trkpt lat="-27.4405850004" lon="152.8907701559"><ele>96.75</ele><time>2016-11-17T04:20:53Z</time></trkpt><trkpt lat="-27.4406031054" lon="152.8907414060"><ele>96.75</ele><time>2016-11-17T04:21:07Z</time></trkpt><trkpt lat="-27.4406968150" lon="152.8907135781"><ele>96.75</ele><time>2016-11-17T04:21:20Z</time></trkpt><trkpt lat="-27.4406559113" lon="152.8907335270"><ele>98.19</ele><time>2016-11-17T04:21:32Z</time></trkpt><trkpt lat="-27.4405671470" lon="152.8907088842"><ele>98.19</ele><time>2016-11-17T04:21:41Z</time></trkpt><trkpt lat="-27.4405512214" lon="152.8907172661"><ele>98.19</ele><time>2016-11-17T04:21:54Z</time></trkpt><trkpt lat="-27.4405316077" lon="152.8907115664"><ele>98.19</ele><time>2016-11-17T04:22:10Z</time></trkpt><trkpt lat="-27.4405263271" lon="152.8907311801"><ele>98.67</ele><time>2016-11-17T04:22:16Z</time></trkpt><trkpt lat="-27.4405278359" lon="152.8907611035"><ele>98.19</ele><time>2016-11-17T04:22:18Z</time></trkpt><trkpt lat="-27.4405168556" lon="152.8908351157"><ele>98.19</ele><time>2016-11-17T04:22:26Z</time></trkpt><trkpt lat="-27.4404876865" lon="152.8908281587"><ele>98.19</ele><time>2016-11-17T04:22:34Z</time></trkpt><trkpt lat="-27.4405008461" lon="152.8908329364"><ele>97.71</ele><time>2016-11-17T04:22:43Z</time></trkpt><trkpt lat="-27.4404900335" lon="152.8908176813"><ele>97.71</ele><time>2016-11-17T04:22:51Z</time></trkpt><trkpt lat="-27.4404540751" lon="152.8908315953"><ele>97.71</ele><time>2016-11-17T04:23:01Z</time></trkpt><trkpt lat="-27.4404425081" lon="152.8908346128"><ele>97.71</ele><time>2016-11-17T04:23:12Z</time></trkpt><trkpt lat="-27.4404534046" lon="152.8908418212"><ele>97.71</ele><time>2016-11-17T04:23:25Z</time></trkpt><trkpt lat="-27.4404568411" lon="152.8908469342"><ele>97.71</ele><time>2016-11-17T04:23:32Z</time></trkpt><trkpt lat="-27.4404424243" lon="152.8908733372"><ele>97.71</ele><time>2016-11-17T04:23:49Z</time></trkpt><trkpt lat="-27.4404190388" lon="152.8908899333"><ele>97.71</ele><time>2016-11-17T04:23:57Z</time></trkpt><trkpt lat="-27.4403827451" lon="152.8909166716"><ele>97.71</ele><time>2016-11-17T04:24:04Z</time></trkpt><trkpt lat="-27.4403715972" lon="152.8909306694"><ele>97.71</ele><time>2016-11-17T04:24:07Z</time></trkpt><trkpt lat="-27.4403449427" lon="152.8909922764"><ele>97.71</ele><time>2016-11-17T04:24:15Z</time></trkpt><trkpt lat="-27.4403493851" lon="152.8910435736"><ele>97.71</ele><time>2016-11-17T04:24:23Z</time></trkpt><trkpt lat="-27.4403892830" lon="152.8911194298"><ele>98.67</ele><time>2016-11-17T04:24:32Z</time></trkpt><trkpt lat="-27.4404150154" lon="152.8911525384"><ele>98.67</ele><time>2016-11-17T04:24:36Z</time></trkpt><trkpt lat="-27.4404670671" lon="152.8911971301"><ele>97.71</ele><time>2016-11-17T04:24:43Z</time></trkpt><trkpt lat="-27.4405153468" lon="152.8912449908"><ele>97.23</ele><time>2016-11-17T04:24:50Z</time></trkpt><trkpt lat="-27.4405620340" lon="152.8912887443"><ele>97.23</ele><time>2016-11-17T04:24:56Z</time></trkpt><trkpt lat="-27.4406229705" lon="152.8913409635"><ele>97.23</ele><time>2016-11-17T04:25:05Z</time></trkpt><trkpt lat="-27.4406647123" lon="152.8913981281"><ele>97.23</ele><time>2016-11-17T04:25:12Z</time></trkpt><trkpt lat="-27.4406969827" lon="152.8914310690"><ele>97.23</ele><time>2016-11-17T04:25:19Z</time></trkpt><trkpt lat="-27.4407149199" lon="152.8914609086"><ele>98.67</ele><time>2016-11-17T04:25:25Z</time></trkpt><trkpt lat="-27.4407243077" lon="152.8915003873"><ele>99.63</ele><time>2016-11-17T04:25:31Z</time></trkpt><trkpt lat="-27.4407704081" lon="152.8914713021"><ele>99.63</ele><time>2016-11-17T04:25:41Z</time></trkpt><trkpt lat="-27.4408245552" lon="152.8915204201"><ele>98.67</ele><time>2016-11-17T04:25:51Z</time></trkpt><trkpt lat="-27.4408534728" lon="152.8915429674"><ele>98.19</ele><time>2016-11-17T04:25:56Z</time></trkpt><trkpt lat="-27.4408688117" lon="152.8915972821"><ele>98.19</ele><time>2016-11-17T04:26:02Z</time></trkpt><trkpt lat="-27.4409219529" lon="152.8916419577"><ele>98.19</ele><time>2016-11-17T04:26:10Z</time></trkpt><trkpt lat="-27.4409981444" lon="152.8917173948"><ele>98.19</ele><time>2016-11-17T04:26:19Z</time></trkpt><trkpt lat="-27.4410452507" lon="152.8917636629"><ele>97.71</ele><time>2016-11-17T04:26:25Z</time></trkpt><trkpt lat="-27.4411041755" lon="152.8918232583"><ele>97.71</ele><time>2016-11-17T04:26:32Z</time></trkpt><trkpt lat="-27.4411346857" lon="152.8918779083"><ele>97.71</ele><time>2016-11-17T04:26:39Z</time></trkpt><trkpt lat="-27.4411659501" lon="152.8918955941"><ele>97.71</ele><time>2016-11-17T04:26:47Z</time></trkpt><trkpt lat="-27.4411954544" lon="152.8919429518"><ele>97.71</ele><time>2016-11-17T04:26:54Z</time></trkpt><trkpt lat="-27.4412304070" lon="152.8919701092"><ele>97.71</ele><time>2016-11-17T04:27:00Z</time></trkpt><trkpt lat="-27.4412641022" lon="152.8919983562"><ele>97.23</ele><time>2016-11-17T04:27:08Z</time></trkpt><trkpt lat="-27.4412496854" lon="152.8920094203"><ele>97.23</ele><time>2016-11-17T04:27:17Z</time></trkpt><trkpt lat="-27.4412684608" lon="152.8920216579"><ele>97.23</ele><time>2016-11-17T04:27:28Z</time></trkpt><trkpt lat="-27.4413043354" lon="152.8920732904"><ele>97.23</ele><time>2016-11-17T04:27:35Z</time></trkpt><trkpt lat="-27.4413544592" lon="152.8921399266"><ele>97.23</ele><time>2016-11-17T04:27:43Z</time></trkpt><trkpt lat="-27.4413819518" lon="152.8922063950"><ele>97.23</ele><time>2016-11-17T04:27:50Z</time></trkpt><trkpt lat="-27.4414204247" lon="152.8922923096"><ele>97.23</ele><time>2016-11-17T04:27:58Z</time></trkpt><trkpt lat="-27.4414454028" lon="152.8923102468"><ele>97.23</ele><time>2016-11-17T04:28:06Z</time></trkpt><trkpt lat="-27.4414753262" lon="152.8923625499"><ele>97.23</ele><time>2016-11-17T04:28:13Z</time></trkpt><trkpt lat="-27.4415383581" lon="152.8924251627"><ele>96.75</ele><time>2016-11-17T04:28:22Z</time></trkpt><trkpt lat="-27.4415766634" lon="152.8924790584"><ele>95.79</ele><time>2016-11-17T04:28:29Z</time></trkpt><trkpt lat="-27.4415841233" lon="152.8925598599"><ele>95.79</ele><time>2016-11-17T04:28:36Z</time></trkpt><trkpt lat="-27.4415915832" lon="152.8926482052"><ele>95.79</ele><time>2016-11-17T04:28:44Z</time></trkpt><trkpt lat="-27.4416135438" lon="152.8927389812"><ele>95.79</ele><time>2016-11-17T04:28:53Z</time></trkpt><trkpt lat="-27.4416430481" lon="152.8928103950"><ele>95.79</ele><time>2016-11-17T04:29:02Z</time></trkpt><trkpt lat="-27.4416496698" lon="152.8928300086"><ele>92.90</ele><time>2016-11-17T04:29:08Z</time></trkpt><trkpt lat="-27.4416344147" lon="152.8928597644"><ele>95.31</ele><time>2016-11-17T04:29:20Z</time></trkpt><trkpt lat="-27.4416436348" lon="152.8928718343"><ele>95.79</ele><time>2016-11-17T04:29:31Z</time></trkpt><trkpt lat="-27.4416403659" lon="152.8929541446"><ele>95.31</ele><time>2016-11-17T04:29:39Z</time></trkpt><trkpt lat="-27.4416380189" lon="152.8930173442"><ele>95.31</ele><time>2016-11-17T04:29:46Z</time></trkpt><trkpt lat="-27.4416270386" lon="152.8930913564"><ele>95.31</ele><time>2016-11-17T04:29:54Z</time></trkpt><trkpt lat="-27.4416322354" lon="152.8931382950"><ele>95.31</ele><time>2016-11-17T04:30:01Z</time></trkpt><trkpt lat="-27.4416362587" lon="152.8931579087"><ele>95.31</ele><time>2016-11-17T04:30:14Z</time></trkpt><trkpt lat="-27.4416209199" lon="152.8932066076"><ele>96.75</ele><time>2016-11-17T04:30:21Z</time></trkpt><trkpt lat="-27.4416336603" lon="152.8932894208"><ele>98.19</ele><time>2016-11-17T04:30:31Z</time></trkpt><trkpt lat="-27.4416493345" lon="152.8933858126"><ele>99.63</ele><time>2016-11-17T04:30:40Z</time></trkpt><trkpt lat="-27.4416693673" lon="152.8934370261"><ele>99.15</ele><time>2016-11-17T04:30:47Z</time></trkpt><trkpt lat="-27.4416881427" lon="152.8934832942"><ele>99.15</ele><time>2016-11-17T04:30:55Z</time></trkpt><trkpt lat="-27.4417042360" lon="152.8935133852"><ele>99.15</ele><time>2016-11-17T04:30:58Z</time></trkpt><trkpt lat="-27.4417265318" lon="152.8936096933"><ele>99.15</ele><time>2016-11-17T04:31:07Z</time></trkpt><trkpt lat="-27.4417520128" lon="152.8936498426"><ele>100.11</ele><time>2016-11-17T04:31:15Z</time></trkpt><trkpt lat="-27.4417674355" lon="152.8936478309"><ele>100.11</ele><time>2016-11-17T04:31:29Z</time></trkpt><trkpt lat="-27.4417738058" lon="152.8936607391"><ele>100.11</ele><time>2016-11-17T04:31:31Z</time></trkpt><trkpt lat="-27.4417867139" lon="152.8937778343"><ele>100.11</ele><time>2016-11-17T04:31:41Z</time></trkpt><trkpt lat="-27.4417939223" lon="152.8937830310"><ele>100.11</ele><time>2016-11-17T04:31:49Z</time></trkpt><trkpt lat="-27.4417861272" lon="152.8938464820"><ele>98.67</ele><time>2016-11-17T04:32:00Z</time></trkpt><trkpt lat="-27.4418012984" lon="152.8939323127"><ele>97.23</ele><time>2016-11-17T04:32:08Z</time></trkpt><trkpt lat="-27.4418127816" lon="152.8940068278"><ele>97.23</ele><time>2016-11-17T04:32:16Z</time></trkpt><trkpt lat="-27.4418292101" lon="152.8940460552"><ele>96.75</ele><time>2016-11-17T04:32:20Z</time></trkpt><trkpt lat="-27.4418613128" lon="152.8941078298"><ele>95.31</ele><time>2016-11-17T04:32:28Z</time></trkpt><trkpt lat="-27.4418767355" lon="152.8941928223"><ele>95.31</ele><time>2016-11-17T04:32:36Z</time></trkpt><trkpt lat="-27.4418930802" lon="152.8942348156"><ele>93.39</ele><time>2016-11-17T04:32:42Z</time></trkpt><trkpt lat="-27.4418923259" lon="152.8942357376"><ele>96.75</ele><time>2016-11-17T04:32:43Z</time></trkpt><trkpt lat="-27.4418902304" lon="152.8942348156"><ele>95.79</ele><time>2016-11-17T04:32:59Z</time></trkpt><trkpt lat="-27.4419035576" lon="152.8942509927"><ele>94.35</ele><time>2016-11-17T04:33:13Z</time></trkpt><trkpt lat="-27.4419069104" lon="152.8942639846"><ele>96.27</ele><time>2016-11-17T04:33:16Z</time></trkpt><trkpt lat="-27.4419327267" lon="152.8942961711"><ele>94.35</ele><time>2016-11-17T04:33:23Z</time></trkpt><trkpt lat="-27.4419409409" lon="152.8943101689"><ele>93.87</ele><time>2016-11-17T04:33:37Z</time></trkpt><trkpt lat="-27.4419417791" lon="152.8943259269"><ele>93.87</ele><time>2016-11-17T04:33:39Z</time></trkpt><trkpt lat="-27.4419369176" lon="152.8944197204"><ele>93.87</ele><time>2016-11-17T04:33:48Z</time></trkpt><trkpt lat="-27.4419294577" lon="152.8944949061"><ele>95.31</ele><time>2016-11-17T04:33:57Z</time></trkpt><trkpt lat="-27.4419068266" lon="152.8945704270"><ele>96.27</ele><time>2016-11-17T04:34:05Z</time></trkpt><trkpt lat="-27.4419019651" lon="152.8946161084"><ele>94.83</ele><time>2016-11-17T04:34:09Z</time></trkpt><trkpt lat="-27.4419268593" lon="152.8946611192"><ele>93.87</ele><time>2016-11-17T04:34:17Z</time></trkpt><trkpt lat="-27.4419344030" lon="152.8946746979"><ele>95.31</ele><time>2016-11-17T04:34:28Z</time></trkpt><trkpt lat="-27.4419120234" lon="152.8947446030"><ele>96.27</ele><time>2016-11-17T04:34:36Z</time></trkpt><trkpt lat="-27.4419173039" lon="152.8948334511"><ele>96.27</ele><time>2016-11-17T04:34:44Z</time></trkpt><trkpt lat="-27.4419085868" lon="152.8948926274"><ele>96.27</ele><time>2016-11-17T04:34:51Z</time></trkpt><trkpt lat="-27.4419174716" lon="152.8949554078"><ele>96.27</ele><time>2016-11-17T04:34:57Z</time></trkpt><trkpt lat="-27.4419224169" lon="152.8949852474"><ele>96.27</ele><time>2016-11-17T04:34:59Z</time></trkpt><trkpt lat="-27.4419570342" lon="152.8950655460"><ele>95.31</ele><time>2016-11-17T04:35:04Z</time></trkpt><trkpt lat="-27.4419693556" lon="152.8951634467"><ele>93.87</ele><time>2016-11-17T04:35:12Z</time></trkpt><trkpt lat="-27.4419654161" lon="152.8951732535"><ele>93.87</ele><time>2016-11-17T04:35:13Z</time></trkpt><trkpt lat="-27.4419779051" lon="152.8952391353"><ele>92.90</ele><time>2016-11-17T04:35:21Z</time></trkpt><trkpt lat="-27.4420055654" lon="152.8952808771"><ele>91.94</ele><time>2016-11-17T04:35:29Z</time></trkpt><trkpt lat="-27.4420443736" lon="152.8953062743"><ele>91.94</ele><time>2016-11-17T04:35:36Z</time></trkpt><trkpt lat="-27.4420457147" lon="152.8953178413"><ele>91.94</ele><time>2016-11-17T04:35:42Z</time></trkpt><trkpt lat="-27.4420740455" lon="152.8953737486"><ele>91.94</ele><time>2016-11-17T04:35:49Z</time></trkpt><trkpt lat="-27.4420776498" lon="152.8954056837"><ele>93.39</ele><time>2016-11-17T04:35:52Z</time></trkpt><trkpt lat="-27.4421037175" lon="152.8954592440"><ele>93.87</ele><time>2016-11-17T04:35:58Z</time></trkpt><trkpt lat="-27.4421319645" lon="152.8955133911"><ele>93.87</ele><time>2016-11-17T04:36:03Z</time></trkpt><trkpt lat="-27.4421883747" lon="152.8955850564"><ele>92.42</ele><time>2016-11-17T04:36:11Z</time></trkpt><trkpt lat="-27.4422291107" lon="152.8956580628"><ele>92.42</ele><time>2016-11-17T04:36:19Z</time></trkpt><trkpt lat="-27.4422594532" lon="152.8956960328"><ele>92.42</ele><time>2016-11-17T04:36:26Z</time></trkpt><trkpt lat="-27.4423005246" lon="152.8957203403"><ele>92.42</ele><time>2016-11-17T04:36:31Z</time></trkpt><trkpt lat="-27.4423563480" lon="152.8957523592"><ele>92.42</ele><time>2016-11-17T04:36:39Z</time></trkpt><trkpt lat="-27.4423978385" lon="152.8957790136"><ele>92.42</ele><time>2016-11-17T04:36:46Z</time></trkpt><trkpt lat="-27.4424184579" lon="152.8958106972"><ele>92.42</ele><time>2016-11-17T04:36:53Z</time></trkpt><trkpt lat="-27.4424353894" lon="152.8958039917"><ele>92.42</ele><time>2016-11-17T04:37:00Z</time></trkpt><trkpt lat="-27.4424410891" lon="152.8958013933"><ele>92.42</ele><time>2016-11-17T04:37:09Z</time></trkpt><trkpt lat="-27.4424674083" lon="152.8958007228"><ele>92.42</ele><time>2016-11-17T04:37:18Z</time></trkpt><trkpt lat="-27.4424990080" lon="152.8958217613"><ele>92.42</ele><time>2016-11-17T04:37:26Z</time></trkpt><trkpt lat="-27.4425311107" lon="152.8958335798"><ele>92.42</ele><time>2016-11-17T04:37:32Z</time></trkpt><trkpt lat="-27.4425609503" lon="152.8958413750"><ele>92.42</ele><time>2016-11-17T04:37:38Z</time></trkpt><trkpt lat="-27.4425516464" lon="152.8958500084"><ele>91.94</ele><time>2016-11-17T04:37:54Z</time></trkpt><trkpt lat="-27.4425617885" lon="152.8958602343"><ele>91.94</ele><time>2016-11-17T04:38:06Z</time></trkpt><trkpt lat="-27.4425803125" lon="152.8958800994"><ele>93.39</ele><time>2016-11-17T04:38:19Z</time></trkpt><trkpt lat="-27.4426229764" lon="152.8958875593"><ele>93.39</ele><time>2016-11-17T04:38:26Z</time></trkpt><trkpt lat="-27.4426430929" lon="152.8958662692"><ele>93.39</ele><time>2016-11-17T04:38:32Z</time></trkpt><trkpt lat="-27.4426642153" lon="152.8958551213"><ele>91.94</ele><time>2016-11-17T04:38:40Z</time></trkpt><trkpt lat="-27.4426727649" lon="152.8958562948"><ele>91.94</ele><time>2016-11-17T04:38:41Z</time></trkpt><trkpt lat="-27.4426948093" lon="152.8958615754"><ele>91.94</ele><time>2016-11-17T04:38:48Z</time></trkpt><trkpt lat="-27.4426933005" lon="152.8958930075"><ele>91.94</ele><time>2016-11-17T04:38:56Z</time></trkpt><trkpt lat="-27.4426943064" lon="152.8958865535"><ele>93.39</ele><time>2016-11-17T04:39:02Z</time></trkpt><trkpt lat="-27.4426876009" lon="152.8958748188"><ele>93.39</ele><time>2016-11-17T04:39:14Z</time></trkpt><trkpt lat="-27.4426813982" lon="152.8958775010"><ele>94.83</ele><time>2016-11-17T04:39:28Z</time></trkpt><trkpt lat="-27.4426938035" lon="152.8958857153"><ele>92.90</ele><time>2016-11-17T04:39:34Z</time></trkpt><trkpt lat="-27.4427159317" lon="152.8958940972"><ele>92.90</ele><time>2016-11-17T04:39:44Z</time></trkpt><trkpt lat="-27.4426894449" lon="152.8958705440"><ele>92.90</ele><time>2016-11-17T04:39:53Z</time></trkpt><trkpt lat="-27.4426953122" lon="152.8958412074"><ele>91.94</ele><time>2016-11-17T04:40:03Z</time></trkpt><trkpt lat="-27.4427027721" lon="152.8958754055"><ele>92.42</ele><time>2016-11-17T04:40:15Z</time></trkpt><trkpt lat="-27.4427202903" lon="152.8958536126"><ele>92.42</ele><time>2016-11-17T04:40:26Z</time></trkpt><trkpt lat="-27.4427088071" lon="152.8958680294"><ele>92.42</ele><time>2016-11-17T04:40:39Z</time></trkpt><trkpt lat="-27.4427021015" lon="152.8958624136"><ele>92.42</ele><time>2016-11-17T04:40:51Z</time></trkpt><trkpt lat="-27.4427054543" lon="152.8958362620"><ele>91.94</ele><time>2016-11-17T04:40:57Z</time></trkpt><trkpt lat="-27.4427503813" lon="152.8958500084"><ele>91.94</ele><time>2016-11-17T04:41:05Z</time></trkpt><trkpt lat="-27.4427977391" lon="152.8958712146"><ele>91.94</ele><time>2016-11-17T04:41:12Z</time></trkpt><trkpt lat="-27.4428539816" lon="152.8958553728"><ele>91.94</ele><time>2016-11-17T04:41:19Z</time></trkpt><trkpt lat="-27.4429018423" lon="152.8958736453"><ele>91.94</ele><time>2016-11-17T04:41:26Z</time></trkpt><trkpt lat="-27.4429115653" lon="152.8958690353"><ele>91.94</ele><time>2016-11-17T04:41:32Z</time></trkpt><trkpt lat="-27.4429271556" lon="152.8958625812"><ele>91.46</ele><time>2016-11-17T04:41:38Z</time></trkpt><trkpt lat="-27.4429044407" lon="152.8958971985"><ele>91.46</ele><time>2016-11-17T04:41:47Z</time></trkpt><trkpt lat="-27.4429274071" lon="152.8959200811"><ele>91.46</ele><time>2016-11-17T04:41:53Z</time></trkpt><trkpt lat="-27.4429673050" lon="152.8959441371"><ele>91.46</ele><time>2016-11-17T04:42:01Z</time></trkpt><trkpt lat="-27.4429728370" lon="152.8959479928"><ele>91.46</ele><time>2016-11-17T04:42:02Z</time></trkpt><trkpt lat="-27.4430470169" lon="152.8959693667"><ele>91.46</ele><time>2016-11-17T04:42:11Z</time></trkpt><trkpt lat="-27.4430710729" lon="152.8959861305"><ele>91.46</ele><time>2016-11-17T04:42:16Z</time></trkpt><trkpt lat="-27.4430930335" lon="152.8959984519"><ele>91.46</ele><time>2016-11-17T04:42:24Z</time></trkpt><trkpt lat="-27.4431326799" lon="152.8960094322"><ele>91.94</ele><time>2016-11-17T04:42:31Z</time></trkpt><trkpt lat="-27.4431317579" lon="152.8959984519"><ele>92.42</ele><time>2016-11-17T04:42:38Z</time></trkpt><trkpt lat="-27.4431392178" lon="152.8960243519"><ele>90.98</ele><time>2016-11-17T04:42:53Z</time></trkpt><trkpt lat="-27.4431377091" lon="152.8960160539"><ele>94.35</ele><time>2016-11-17T04:42:59Z</time></trkpt><trkpt lat="-27.4431282375" lon="152.8960151318"><ele>91.94</ele><time>2016-11-17T04:43:00Z</time></trkpt><trkpt lat="-27.4431197718" lon="152.8960182332"><ele>91.94</ele><time>2016-11-17T04:43:01Z</time></trkpt><trkpt lat="-27.4430431612" lon="152.8959966917"><ele>91.94</ele><time>2016-11-17T04:43:09Z</time></trkpt><trkpt lat="-27.4429849908" lon="152.8959846217"><ele>91.94</ele><time>2016-11-17T04:43:16Z</time></trkpt><trkpt lat="-27.4429687299" lon="152.8959739767"><ele>91.94</ele><time>2016-11-17T04:43:18Z</time></trkpt><trkpt lat="-27.4429268204" lon="152.8959510941"><ele>91.94</ele><time>2016-11-17T04:43:24Z</time></trkpt><trkpt lat="-27.4428886827" lon="152.8959216736"><ele>91.94</ele><time>2016-11-17T04:43:31Z</time></trkpt><trkpt lat="-27.4428375531" lon="152.8958906606"><ele>91.94</ele><time>2016-11-17T04:43:37Z</time></trkpt><trkpt lat="-27.4427872617" lon="152.8958863858"><ele>91.94</ele><time>2016-11-17T04:43:45Z</time></trkpt><trkpt lat="-27.4427690729" lon="152.8958741482"><ele>91.94</ele><time>2016-11-17T04:43:53Z</time></trkpt><trkpt lat="-27.4427133333" lon="152.8958429676"><ele>91.94</ele><time>2016-11-17T04:44:01Z</time></trkpt><trkpt lat="-27.4426859245" lon="152.8958534449"><ele>91.94</ele><time>2016-11-17T04:44:09Z</time></trkpt><trkpt lat="-27.4426731002" lon="152.8958964441"><ele>92.90</ele><time>2016-11-17T04:44:17Z</time></trkpt><trkpt lat="-27.4426948931" lon="152.8959026467"><ele>93.87</ele><time>2016-11-17T04:44:25Z</time></trkpt><trkpt lat="-27.4427074660" lon="152.8959379345"><ele>95.31</ele><time>2016-11-17T04:44:33Z</time></trkpt><trkpt lat="-27.4427381437" lon="152.8959795088"><ele>97.71</ele><time>2016-11-17T04:44:43Z</time></trkpt><trkpt lat="-27.4427520577" lon="152.8959945962"><ele>98.67</ele><time>2016-11-17T04:44:52Z</time></trkpt><trkpt lat="-27.4427681509" lon="152.8960158024"><ele>99.63</ele><time>2016-11-17T04:45:00Z</time></trkpt><trkpt lat="-27.4427789636" lon="152.8960343264"><ele>100.60</ele><time>2016-11-17T04:45:06Z</time></trkpt><trkpt lat="-27.4427827355" lon="152.8960428759"><ele>101.56</ele><time>2016-11-17T04:45:13Z</time></trkpt><trkpt lat="-27.4428041931" lon="152.8960618190"><ele>102.52</ele><time>2016-11-17T04:45:22Z</time></trkpt><trkpt lat="-27.4427925423" lon="152.8960670996"><ele>102.52</ele><time>2016-11-17T04:45:32Z</time></trkpt><trkpt lat="-27.4428165983" lon="152.8960917424"><ele>103.48</ele><time>2016-11-17T04:45:41Z</time></trkpt><trkpt lat="-27.4428630341" lon="152.8961338196"><ele>103.96</ele><time>2016-11-17T04:45:49Z</time></trkpt><trkpt lat="-27.4429086316" lon="152.8961152118"><ele>103.00</ele><time>2016-11-17T04:45:56Z</time></trkpt><trkpt lat="-27.4429666344" lon="152.8961415309"><ele>103.00</ele><time>2016-11-17T04:46:03Z</time></trkpt><trkpt lat="-27.4430545606" lon="152.8961624019"><ele>103.00</ele><time>2016-11-17T04:46:12Z</time></trkpt><trkpt lat="-27.4431321770" lon="152.8961610608"><ele>103.96</ele><time>2016-11-17T04:46:19Z</time></trkpt><trkpt lat="-27.4431917723" lon="152.8961506672"><ele>102.52</ele><time>2016-11-17T04:46:25Z</time></trkpt><trkpt lat="-27.4432565644" lon="152.8961403575"><ele>100.60</ele><time>2016-11-17T04:46:34Z</time></trkpt><trkpt lat="-27.4432908464" lon="152.8961270303"><ele>99.63</ele><time>2016-11-17T04:46:42Z</time></trkpt><trkpt lat="-27.4432874098" lon="152.8961257730"><ele>99.63</ele><time>2016-11-17T04:46:52Z</time></trkpt><trkpt lat="-27.4433206860" lon="152.8961258568"><ele>99.63</ele><time>2016-11-17T04:46:59Z</time></trkpt><trkpt lat="-27.4433517829" lon="152.8961219173"><ele>99.63</ele><time>2016-11-17T04:47:04Z</time></trkpt><trkpt lat="-27.4434405472" lon="152.8961344063"><ele>99.15</ele><time>2016-11-17T04:47:12Z</time></trkpt><trkpt lat="-27.4435065966" lon="152.8961606417"><ele>99.15</ele><time>2016-11-17T04:47:19Z</time></trkpt><trkpt lat="-27.4435657728" lon="152.8962099273"><ele>99.15</ele><time>2016-11-17T04:47:27Z</time></trkpt><trkpt lat="-27.4436082691" lon="152.8962322231"><ele>98.67</ele><time>2016-11-17T04:47:31Z</time></trkpt><trkpt lat="-27.4436854664" lon="152.8962509986"><ele>98.19</ele><time>2016-11-17T04:47:39Z</time></trkpt><trkpt lat="-27.4436982907" lon="152.8962682653"><ele>98.19</ele><time>2016-11-17T04:47:48Z</time></trkpt><trkpt lat="-27.4437136296" lon="152.8962863702"><ele>98.19</ele><time>2016-11-17T04:47:57Z</time></trkpt><trkpt lat="-27.4437189102" lon="152.8963077441"><ele>97.71</ele><time>2016-11-17T04:48:10Z</time></trkpt><trkpt lat="-27.4437198322" lon="152.8963266034"><ele>98.67</ele><time>2016-11-17T04:48:21Z</time></trkpt><trkpt lat="-27.4437334947" lon="152.8963922337"><ele>98.67</ele><time>2016-11-17T04:48:27Z</time></trkpt><trkpt lat="-27.4437206704" lon="152.8964916430"><ele>98.67</ele><time>2016-11-17T04:48:36Z</time></trkpt><trkpt lat="-27.4437207542" lon="152.8965028748"><ele>100.11</ele><time>2016-11-17T04:48:37Z</time></trkpt><trkpt lat="-27.4437372666" lon="152.8966104984"><ele>100.11</ele><time>2016-11-17T04:48:46Z</time></trkpt><trkpt lat="-27.4437442236" lon="152.8966206405"><ele>100.11</ele><time>2016-11-17T04:48:47Z</time></trkpt><trkpt lat="-27.4437536951" lon="152.8966993466"><ele>99.63</ele><time>2016-11-17T04:48:54Z</time></trkpt><trkpt lat="-27.4437722191" lon="152.8967456985"><ele>98.67</ele><time>2016-11-17T04:49:00Z</time></trkpt><trkpt lat="-27.4438159727" lon="152.8967984207"><ele>98.19</ele><time>2016-11-17T04:49:06Z</time></trkpt><trkpt lat="-27.4438317306" lon="152.8968214709"><ele>97.23</ele><time>2016-11-17T04:49:11Z</time></trkpt><trkpt lat="-27.4438677728" lon="152.8968243208"><ele>96.75</ele><time>2016-11-17T04:49:17Z</time></trkpt><trkpt lat="-27.4439069163" lon="152.8968287632"><ele>97.23</ele><time>2016-11-17T04:49:25Z</time></trkpt><trkpt lat="-27.4439701997" lon="152.8968648892"><ele>95.79</ele><time>2016-11-17T04:49:32Z</time></trkpt><trkpt lat="-27.4440221675" lon="152.8969411645"><ele>95.31</ele><time>2016-11-17T04:49:39Z</time></trkpt><trkpt lat="-27.4440271128" lon="152.8969898634"><ele>95.31</ele><time>2016-11-17T04:49:47Z</time></trkpt><trkpt lat="-27.4440199044" lon="152.8969847504"><ele>94.35</ele><time>2016-11-17T04:49:51Z</time></trkpt><trkpt lat="-27.4440191500" lon="152.8969840799"><ele>95.31</ele><time>2016-11-17T04:50:02Z</time></trkpt><trkpt lat="-27.4440203235" lon="152.8969876841"><ele>95.31</ele><time>2016-11-17T04:50:03Z</time></trkpt><trkpt lat="-27.4440623168" lon="152.8969901148"><ele>94.35</ele><time>2016-11-17T04:50:07Z</time></trkpt><trkpt lat="-27.4440840259" lon="152.8970523085"><ele>92.90</ele><time>2016-11-17T04:50:14Z</time></trkpt><trkpt lat="-27.4440740515" lon="152.8970293421"><ele>92.90</ele><time>2016-11-17T04:50:20Z</time></trkpt><trkpt lat="-27.4440275319" lon="152.8970063757"><ele>93.87</ele><time>2016-11-17T04:50:28Z</time></trkpt><trkpt lat="-27.4440038111" lon="152.8970877640"><ele>94.35</ele><time>2016-11-17T04:50:36Z</time></trkpt><trkpt lat="-27.4439993687" lon="152.8970870096"><ele>94.83</ele><time>2016-11-17T04:50:45Z</time></trkpt><trkpt lat="-27.4440086726" lon="152.8970150091"><ele>94.83</ele><time>2016-11-17T04:50:52Z</time></trkpt><trkpt lat="-27.4440100137" lon="152.8970081359"><ele>94.83</ele><time>2016-11-17T04:51:01Z</time></trkpt><trkpt lat="-27.4440266099" lon="152.8969929647"><ele>93.39</ele><time>2016-11-17T04:51:06Z</time></trkpt><trkpt lat="-27.4440209102" lon="152.8970082197"><ele>93.39</ele><time>2016-11-17T04:51:14Z</time></trkpt><trkpt lat="-27.4440547731" lon="152.8970116563"><ele>93.39</ele><time>2016-11-17T04:51:24Z</time></trkpt><trkpt lat="-27.4440696929" lon="152.8970244806"><ele>92.90</ele><time>2016-11-17T04:51:31Z</time></trkpt><trkpt lat="-27.4440734647" lon="152.8970377240"><ele>89.06</ele><time>2016-11-17T04:51:34Z</time></trkpt><trkpt lat="-27.4440755602" lon="152.8970390651"><ele>96.27</ele><time>2016-11-17T04:51:35Z</time></trkpt><trkpt lat="-27.4440766498" lon="152.8970402386"><ele>92.90</ele><time>2016-11-17T04:51:36Z</time></trkpt><trkpt lat="-27.4440881331" lon="152.8970476147"><ele>90.02</ele><time>2016-11-17T04:51:53Z</time></trkpt><trkpt lat="-27.4440912344" lon="152.8970619477"><ele>93.39</ele><time>2016-11-17T04:51:55Z</time></trkpt><trkpt lat="-27.4441162962" lon="152.8970779572"><ele>91.94</ele><time>2016-11-17T04:52:02Z</time></trkpt><trkpt lat="-27.4441390112" lon="152.8971079644"><ele>90.02</ele><time>2016-11-17T04:52:10Z</time></trkpt><trkpt lat="-27.4441591278" lon="152.8971274104"><ele>89.54</ele><time>2016-11-17T04:52:18Z</time></trkpt><trkpt lat="-27.4441590440" lon="152.8971487004"><ele>88.58</ele><time>2016-11-17T04:52:25Z</time></trkpt><trkpt lat="-27.4441494048" lon="152.8971554060"><ele>88.58</ele><time>2016-11-17T04:52:36Z</time></trkpt><trkpt lat="-27.4441490695" lon="152.8971463535"><ele>88.58</ele><time>2016-11-17T04:52:44Z</time></trkpt><trkpt lat="-27.4441525061" lon="152.8971310146"><ele>88.58</ele><time>2016-11-17T04:52:55Z</time></trkpt><trkpt lat="-27.4441489857" lon="152.8971500415"><ele>88.58</ele><time>2016-11-17T04:53:04Z</time></trkpt><trkpt lat="-27.4441347364" lon="152.8971435037"><ele>90.02</ele><time>2016-11-17T04:53:08Z</time></trkpt><trkpt lat="-27.4440981913" lon="152.8971070424"><ele>91.46</ele><time>2016-11-17T04:53:15Z</time></trkpt><trkpt lat="-27.4440624006" lon="152.8970520571"><ele>92.90</ele><time>2016-11-17T04:53:24Z</time></trkpt><trkpt lat="-27.4440530129" lon="152.8970316052"><ele>92.90</ele><time>2016-11-17T04:53:42Z</time></trkpt><trkpt lat="-27.4440195691" lon="152.8970632888"><ele>93.87</ele><time>2016-11-17T04:53:50Z</time></trkpt><trkpt lat="-27.4439802580" lon="152.8971419111"><ele>94.83</ele><time>2016-11-17T04:53:58Z</time></trkpt><trkpt lat="-27.4439781625" lon="152.8971523046"><ele>94.83</ele><time>2016-11-17T04:53:59Z</time></trkpt><trkpt lat="-27.4439851195" lon="152.8972027637"><ele>94.83</ele><time>2016-11-17T04:54:03Z</time></trkpt><trkpt lat="-27.4439863767" lon="152.8972607665"><ele>94.83</ele><time>2016-11-17T04:54:08Z</time></trkpt><trkpt lat="-27.4439785816" lon="152.8972937912"><ele>94.83</ele><time>2016-11-17T04:54:11Z</time></trkpt><trkpt lat="-27.4439578783" lon="152.8973750956"><ele>94.83</ele><time>2016-11-17T04:54:18Z</time></trkpt><trkpt lat="-27.4439367559" lon="152.8974058572"><ele>94.83</ele><time>2016-11-17T04:54:21Z</time></trkpt><trkpt lat="-27.4438945111" lon="152.8974635247"><ele>94.83</ele><time>2016-11-17T04:54:28Z</time></trkpt><trkpt lat="-27.4438854586" lon="152.8974769358"><ele>94.83</ele><time>2016-11-17T04:54:34Z</time></trkpt><trkpt lat="-27.4438848719" lon="152.8975469247"><ele>94.83</ele><time>2016-11-17T04:54:41Z</time></trkpt><trkpt lat="-27.4438816030" lon="152.8975689691"><ele>94.83</ele><time>2016-11-17T04:54:43Z</time></trkpt><trkpt lat="-27.4438867159" lon="152.8976299055"><ele>93.39</ele><time>2016-11-17T04:54:48Z</time></trkpt><trkpt lat="-27.4438837823" lon="152.8977034986"><ele>93.39</ele><time>2016-11-17T04:54:54Z</time></trkpt><trkpt lat="-27.4438841175" lon="152.8977843840"><ele>92.90</ele><time>2016-11-17T04:55:01Z</time></trkpt><trkpt lat="-27.4438889790" lon="152.8978215996"><ele>91.46</ele><time>2016-11-17T04:55:10Z</time></trkpt><trkpt lat="-27.4438964389" lon="152.8978451528"><ele>90.50</ele><time>2016-11-17T04:55:20Z</time></trkpt><trkpt lat="-27.4438991211" lon="152.8978516068"><ele>90.02</ele><time>2016-11-17T04:55:22Z</time></trkpt><trkpt lat="-27.4439164717" lon="152.8978907503"><ele>88.58</ele><time>2016-11-17T04:55:30Z</time></trkpt><trkpt lat="-27.4439167231" lon="152.8978902474"><ele>93.39</ele><time>2016-11-17T04:55:31Z</time></trkpt><trkpt lat="-27.4439098500" lon="152.8978910856"><ele>90.50</ele><time>2016-11-17T04:55:44Z</time></trkpt><trkpt lat="-27.4439102691" lon="152.8979184944"><ele>90.02</ele><time>2016-11-17T04:56:05Z</time></trkpt><trkpt lat="-27.4439219199" lon="152.8979230206"><ele>91.46</ele><time>2016-11-17T04:56:13Z</time></trkpt><trkpt lat="-27.4439246859" lon="152.8979145549"><ele>91.46</ele><time>2016-11-17T04:56:14Z</time></trkpt><trkpt lat="-27.4439261947" lon="152.8978858888"><ele>90.98</ele><time>2016-11-17T04:56:36Z</time></trkpt><trkpt lat="-27.4439147953" lon="152.8978909180"><ele>90.98</ele><time>2016-11-17T04:56:46Z</time></trkpt><trkpt lat="-27.4439004622" lon="152.8978876490"><ele>91.94</ele><time>2016-11-17T04:56:56Z</time></trkpt><trkpt lat="-27.4439002108" lon="152.8979070112"><ele>91.94</ele><time>2016-11-17T04:57:08Z</time></trkpt><trkpt lat="-27.4439023063" lon="152.8979018144"><ele>91.94</ele><time>2016-11-17T04:57:26Z</time></trkpt><trkpt lat="-27.4438922480" lon="152.8978933487"><ele>90.50</ele><time>2016-11-17T04:57:29Z</time></trkpt><trkpt lat="-27.4438676052" lon="152.8978608269"><ele>89.54</ele><time>2016-11-17T04:57:36Z</time></trkpt><trkpt lat="-27.4438618217" lon="152.8978551272"><ele>90.98</ele><time>2016-11-17T04:57:38Z</time></trkpt><trkpt lat="-27.4438667670" lon="152.8978075180"><ele>92.90</ele><time>2016-11-17T04:57:45Z</time></trkpt><trkpt lat="-27.4438676052" lon="152.8977547120"><ele>92.90</ele><time>2016-11-17T04:57:50Z</time></trkpt><trkpt lat="-27.4438787531" lon="152.8976893332"><ele>92.90</ele><time>2016-11-17T04:57:58Z</time></trkpt><trkpt lat="-27.4438746460" lon="152.8976612538"><ele>92.90</ele><time>2016-11-17T04:58:06Z</time></trkpt><trkpt lat="-27.4438736401" lon="152.8975905944"><ele>93.39</ele><time>2016-11-17T04:58:14Z</time></trkpt><trkpt lat="-27.4439080060" lon="152.8975019976"><ele>93.87</ele><time>2016-11-17T04:58:21Z</time></trkpt><trkpt lat="-27.4439364206" lon="152.8974227887"><ele>93.87</ele><time>2016-11-17T04:58:28Z</time></trkpt><trkpt lat="-27.4439629074" lon="152.8973445855"><ele>93.87</ele><time>2016-11-17T04:58:36Z</time></trkpt><trkpt lat="-27.4439645838" lon="152.8972877562"><ele>93.87</ele><time>2016-11-17T04:58:42Z</time></trkpt><trkpt lat="-27.4439641647" lon="152.8972410690"><ele>94.83</ele><time>2016-11-17T04:58:50Z</time></trkpt><trkpt lat="-27.4439885560" lon="152.8971571662"><ele>94.83</ele><time>2016-11-17T04:58:58Z</time></trkpt><trkpt lat="-27.4440148752" lon="152.8971050307"><ele>94.83</ele><time>2016-11-17T04:59:04Z</time></trkpt><trkpt lat="-27.4440252688" lon="152.8970729280"><ele>94.83</ele><time>2016-11-17T04:59:16Z</time></trkpt><trkpt lat="-27.4440420326" lon="152.8970585950"><ele>93.39</ele><time>2016-11-17T04:59:19Z</time></trkpt><trkpt lat="-27.4440644961" lon="152.8970439266"><ele>92.42</ele><time>2016-11-17T04:59:24Z</time></trkpt><trkpt lat="-27.4440750573" lon="152.8970438428"><ele>95.31</ele><time>2016-11-17T04:59:25Z</time></trkpt><trkpt lat="-27.4440801702" lon="152.8970450163"><ele>93.39</ele><time>2016-11-17T04:59:26Z</time></trkpt><trkpt lat="-27.4440702796" lon="152.8970549908"><ele>93.39</ele><time>2016-11-17T04:59:37Z</time></trkpt><trkpt lat="-27.4441057350" lon="152.8971093893"><ele>91.94</ele><time>2016-11-17T04:59:44Z</time></trkpt><trkpt lat="-27.4441228341" lon="152.8971222136"><ele>90.50</ele><time>2016-11-17T04:59:51Z</time></trkpt><trkpt lat="-27.4441527575" lon="152.8971301764"><ele>89.06</ele><time>2016-11-17T04:59:59Z</time></trkpt><trkpt lat="-27.4441735446" lon="152.8971394803"><ele>89.54</ele><time>2016-11-17T05:00:14Z</time></trkpt><trkpt lat="-27.4441635702" lon="152.8971498739"><ele>89.06</ele><time>2016-11-17T05:00:29Z</time></trkpt><trkpt lat="-27.4441584572" lon="152.8970990796"><ele>89.06</ele><time>2016-11-17T05:00:36Z</time></trkpt><trkpt lat="-27.4441612232" lon="152.8970625345"><ele>89.06</ele><time>2016-11-17T05:00:45Z</time></trkpt><trkpt lat="-27.4442015402" lon="152.8970146738"><ele>89.06</ele><time>2016-11-17T05:00:53Z</time></trkpt><trkpt lat="-27.4442058150" lon="152.8969862591"><ele>89.06</ele><time>2016-11-17T05:00:59Z</time></trkpt><trkpt lat="-27.4442246743" lon="152.8969484568"><ele>89.06</ele><time>2016-11-17T05:01:06Z</time></trkpt><trkpt lat="-27.4442527536" lon="152.8969517257"><ele>90.50</ele><time>2016-11-17T05:01:10Z</time></trkpt><trkpt lat="-27.4442610517" lon="152.8969509713"><ele>94.35</ele><time>2016-11-17T05:01:16Z</time></trkpt><trkpt lat="-27.4442618899" lon="152.8969534021"><ele>90.50</ele><time>2016-11-17T05:01:17Z</time></trkpt><trkpt lat="-27.4442657456" lon="152.8969693277"><ele>90.50</ele><time>2016-11-17T05:01:31Z</time></trkpt><trkpt lat="-27.4442820065" lon="152.8969361354"><ele>90.98</ele><time>2016-11-17T05:01:43Z</time></trkpt><trkpt lat="-27.4442930706" lon="152.8968261648"><ele>90.02</ele><time>2016-11-17T05:01:52Z</time></trkpt><trkpt lat="-27.4443289451" lon="152.8967986722"><ele>90.02</ele><time>2016-11-17T05:02:02Z</time></trkpt><trkpt lat="-27.4443392549" lon="152.8968335409"><ele>90.02</ele><time>2016-11-17T05:02:09Z</time></trkpt><trkpt lat="-27.4443651550" lon="152.8968290146"><ele>90.02</ele><time>2016-11-17T05:02:17Z</time></trkpt><trkpt lat="-27.4443850201" lon="152.8967843391"><ele>90.02</ele><time>2016-11-17T05:02:25Z</time></trkpt><trkpt lat="-27.4443877023" lon="152.8967671562"><ele>89.54</ele><time>2016-11-17T05:02:31Z</time></trkpt><trkpt lat="-27.4443942402" lon="152.8967664018"><ele>84.25</ele><time>2016-11-17T05:02:34Z</time></trkpt><trkpt lat="-27.4443963356" lon="152.8967672400"><ele>91.94</ele><time>2016-11-17T05:02:35Z</time></trkpt><trkpt lat="-27.4443975091" lon="152.8967677429"><ele>91.94</ele><time>2016-11-17T05:02:36Z</time></trkpt><trkpt lat="-27.4443987664" lon="152.8967742808"><ele>89.06</ele><time>2016-11-17T05:02:38Z</time></trkpt><trkpt lat="-27.4443996046" lon="152.8967761248"><ele>90.50</ele><time>2016-11-17T05:02:46Z</time></trkpt><trkpt lat="-27.4443918094" lon="152.8968238179"><ele>90.50</ele><time>2016-11-17T05:02:53Z</time></trkpt><trkpt lat="-27.4443762191" lon="152.8969025239"><ele>90.50</ele><time>2016-11-17T05:03:03Z</time></trkpt><trkpt lat="-27.4443860259" lon="152.8969425894"><ele>90.50</ele><time>2016-11-17T05:03:10Z</time></trkpt><trkpt lat="-27.4443619698" lon="152.8969834093"><ele>86.66</ele><time>2016-11-17T05:03:16Z</time></trkpt><trkpt lat="-27.4443599582" lon="152.8969833255"><ele>92.90</ele><time>2016-11-17T05:03:17Z</time></trkpt><trkpt lat="-27.4443493970" lon="152.8969837446"><ele>89.54</ele><time>2016-11-17T05:03:26Z</time></trkpt><trkpt lat="-27.4443552643" lon="152.8969887737"><ele>90.98</ele><time>2016-11-17T05:03:31Z</time></trkpt><trkpt lat="-27.4443535879" lon="152.8970000055"><ele>90.02</ele><time>2016-11-17T05:03:33Z</time></trkpt><trkpt lat="-27.4443328846" lon="152.8970653843"><ele>90.02</ele><time>2016-11-17T05:03:40Z</time></trkpt><trkpt lat="-27.4443226587" lon="152.8971083835"><ele>89.54</ele><time>2016-11-17T05:03:46Z</time></trkpt><trkpt lat="-27.4443366565" lon="152.8971356247"><ele>89.54</ele><time>2016-11-17T05:03:53Z</time></trkpt><trkpt lat="-27.4443408474" lon="152.8971294221"><ele>89.54</ele><time>2016-11-17T05:04:01Z</time></trkpt><trkpt lat="-27.4443534203" lon="152.8971201181"><ele>89.06</ele><time>2016-11-17T05:04:09Z</time></trkpt><trkpt lat="-27.4443961680" lon="152.8971290030"><ele>89.06</ele><time>2016-11-17T05:04:17Z</time></trkpt><trkpt lat="-27.4444221519" lon="152.8971462697"><ele>89.06</ele><time>2016-11-17T05:04:23Z</time></trkpt><trkpt lat="-27.4444428552" lon="152.8971469402"><ele>89.06</ele><time>2016-11-17T05:04:29Z</time></trkpt><trkpt lat="-27.4444700964" lon="152.8971554060"><ele>90.02</ele><time>2016-11-17T05:04:36Z</time></trkpt><trkpt lat="-27.4444967508" lon="152.8971414082"><ele>90.02</ele><time>2016-11-17T05:04:43Z</time></trkpt><trkpt lat="-27.4445156939" lon="152.8970995825"><ele>90.02</ele><time>2016-11-17T05:04:51Z</time></trkpt><trkpt lat="-27.4445229862" lon="152.8970765322"><ele>90.02</ele><time>2016-11-17T05:04:58Z</time></trkpt><trkpt lat="-27.4445094075" lon="152.8970578406"><ele>90.02</ele><time>2016-11-17T05:05:06Z</time></trkpt><trkpt lat="-27.4445122574" lon="152.8970423341"><ele>90.02</ele><time>2016-11-17T05:05:15Z</time></trkpt><trkpt lat="-27.4445096590" lon="152.8970210440"><ele>90.02</ele><time>2016-11-17T05:05:27Z</time></trkpt><trkpt lat="-27.4445087370" lon="152.8969824035"><ele>90.02</ele><time>2016-11-17T05:05:37Z</time></trkpt><trkpt lat="-27.4445228186" lon="152.8969708364"><ele>90.02</ele><time>2016-11-17T05:05:45Z</time></trkpt><trkpt lat="-27.4445241597" lon="152.8969482053"><ele>90.50</ele><time>2016-11-17T05:05:55Z</time></trkpt><trkpt lat="-27.4445115030" lon="152.8969323635"><ele>90.50</ele><time>2016-11-17T05:06:05Z</time></trkpt><trkpt lat="-27.4445058871" lon="152.8969233111"><ele>90.50</ele><time>2016-11-17T05:06:17Z</time></trkpt><trkpt lat="-27.4445176218" lon="152.8969074693"><ele>90.50</ele><time>2016-11-17T05:06:29Z</time></trkpt><trkpt lat="-27.4445296917" lon="152.8968850058"><ele>90.50</ele><time>2016-11-17T05:06:40Z</time></trkpt><trkpt lat="-27.4445113353" lon="152.8968287632"><ele>89.54</ele><time>2016-11-17T05:06:50Z</time></trkpt><trkpt lat="-27.4445194658" lon="152.8968347143"><ele>89.54</ele><time>2016-11-17T05:06:58Z</time></trkpt><trkpt lat="-27.4445218127" lon="152.8968282603"><ele>89.54</ele><time>2016-11-17T05:07:09Z</time></trkpt><trkpt lat="-27.4445278477" lon="152.8968006838"><ele>90.50</ele><time>2016-11-17T05:07:16Z</time></trkpt><trkpt lat="-27.4445235729" lon="152.8967845067"><ele>90.50</ele><time>2016-11-17T05:07:25Z</time></trkpt><trkpt lat="-27.4445108324" lon="152.8968173638"><ele>90.50</ele><time>2016-11-17T05:07:31Z</time></trkpt><trkpt lat="-27.4445026182" lon="152.8968434315"><ele>90.98</ele><time>2016-11-17T05:07:38Z</time></trkpt><trkpt lat="-27.4444980081" lon="152.8968434315"><ele>90.98</ele><time>2016-11-17T05:07:44Z</time></trkpt><trkpt lat="-27.4444874469" lon="152.8968363069"><ele>90.98</ele><time>2016-11-17T05:07:56Z</time></trkpt><trkpt lat="-27.4444862735" lon="152.8968157712"><ele>90.98</ele><time>2016-11-17T05:08:06Z</time></trkpt><trkpt lat="-27.4444846809" lon="152.8968190402"><ele>90.98</ele><time>2016-11-17T05:08:13Z</time></trkpt><trkpt lat="-27.4444788974" lon="152.8968141787"><ele>90.98</ele><time>2016-11-17T05:08:21Z</time></trkpt><trkpt lat="-27.4445130117" lon="152.8968153521"><ele>90.98</ele><time>2016-11-17T05:08:33Z</time></trkpt><trkpt lat="-27.4445161130" lon="152.8967912961"><ele>90.98</ele><time>2016-11-17T05:08:40Z</time></trkpt><trkpt lat="-27.4445255008" lon="152.8967571817"><ele>90.98</ele><time>2016-11-17T05:08:51Z</time></trkpt><trkpt lat="-27.4445037916" lon="152.8967515659"><ele>90.98</ele><time>2016-11-17T05:09:00Z</time></trkpt><trkpt lat="-27.4445037916" lon="152.8967824113"><ele>90.98</ele><time>2016-11-17T05:09:07Z</time></trkpt><trkpt lat="-27.4445056356" lon="152.8967782203"><ele>90.02</ele><time>2016-11-17T05:09:19Z</time></trkpt><trkpt lat="-27.4445032049" lon="152.8967672400"><ele>90.02</ele><time>2016-11-17T05:09:26Z</time></trkpt><trkpt lat="-27.4445006065" lon="152.8968122508"><ele>90.50</ele><time>2016-11-17T05:09:34Z</time></trkpt><trkpt lat="-27.4444759637" lon="152.8968250751"><ele>90.50</ele><time>2016-11-17T05:09:42Z</time></trkpt><trkpt lat="-27.4444661569" lon="152.8968158551"><ele>90.50</ele><time>2016-11-17T05:09:51Z</time></trkpt><trkpt lat="-27.4444369040" lon="152.8968348820"><ele>90.50</ele><time>2016-11-17T05:10:02Z</time></trkpt><trkpt lat="-27.4444094952" lon="152.8967667371"><ele>90.50</ele><time>2016-11-17T05:10:15Z</time></trkpt><trkpt lat="-27.4444229063" lon="152.8967396636"><ele>90.50</ele><time>2016-11-17T05:10:23Z</time></trkpt><trkpt lat="-27.4444192182" lon="152.8966935631"><ele>90.50</ele><time>2016-11-17T05:10:31Z</time></trkpt><trkpt lat="-27.4444320425" lon="152.8966928087"><ele>90.50</ele><time>2016-11-17T05:10:39Z</time></trkpt><trkpt lat="-27.4444278516" lon="152.8966926411"><ele>90.50</ele><time>2016-11-17T05:10:49Z</time></trkpt><trkpt lat="-27.4444312043" lon="152.8967104945"><ele>90.50</ele><time>2016-11-17T05:10:57Z</time></trkpt><trkpt lat="-27.4444192182" lon="152.8967422619"><ele>90.50</ele><time>2016-11-17T05:11:09Z</time></trkpt><trkpt lat="-27.4444018677" lon="152.8967458662"><ele>90.50</ele><time>2016-11-17T05:11:19Z</time></trkpt><trkpt lat="-27.4443918932" lon="152.8967553377"><ele>90.50</ele><time>2016-11-17T05:11:28Z</time></trkpt><trkpt lat="-27.4444089085" lon="152.8967968281"><ele>90.50</ele><time>2016-11-17T05:11:36Z</time></trkpt><trkpt lat="-27.4443871155" lon="152.8967936430"><ele>90.50</ele><time>2016-11-17T05:11:46Z</time></trkpt><trkpt lat="-27.4443820026" lon="152.8967819922"><ele>90.50</ele><time>2016-11-17T05:11:58Z</time></trkpt><trkpt lat="-27.4443849362" lon="152.8967996780"><ele>91.94</ele><time>2016-11-17T05:12:03Z</time></trkpt><trkpt lat="-27.4443863612" lon="152.8968078084"><ele>90.50</ele><time>2016-11-17T05:12:07Z</time></trkpt><trkpt lat="-27.4443912227" lon="152.8968037013"><ele>90.50</ele><time>2016-11-17T05:12:13Z</time></trkpt><trkpt lat="-27.4443908036" lon="152.8968178667"><ele>90.50</ele><time>2016-11-17T05:12:22Z</time></trkpt><trkpt lat="-27.4443864450" lon="152.8968140949"><ele>90.50</ele><time>2016-11-17T05:12:30Z</time></trkpt><trkpt lat="-27.4443732016" lon="152.8968342952"><ele>90.50</ele><time>2016-11-17T05:12:35Z</time></trkpt><trkpt lat="-27.4443571921" lon="152.8968492988"><ele>88.58</ele><time>2016-11-17T05:12:42Z</time></trkpt><trkpt lat="-27.4443541747" lon="152.8968512267"><ele>92.90</ele><time>2016-11-17T05:12:43Z</time></trkpt><trkpt lat="-27.4443435296" lon="152.8968600277"><ele>90.50</ele><time>2016-11-17T05:12:50Z</time></trkpt><trkpt lat="-27.4443335552" lon="152.8968129214"><ele>90.50</ele><time>2016-11-17T05:12:57Z</time></trkpt><trkpt lat="-27.4443265144" lon="152.8968230635"><ele>90.50</ele><time>2016-11-17T05:13:04Z</time></trkpt><trkpt lat="-27.4443265982" lon="152.8968669847"><ele>90.50</ele><time>2016-11-17T05:13:10Z</time></trkpt><trkpt lat="-27.4443049729" lon="152.8968766239"><ele>90.50</ele><time>2016-11-17T05:13:15Z</time></trkpt><trkpt lat="-27.4442773964" lon="152.8968840837"><ele>90.02</ele><time>2016-11-17T05:13:21Z</time></trkpt><trkpt lat="-27.4442539271" lon="152.8968777973"><ele>90.02</ele><time>2016-11-17T05:13:29Z</time></trkpt><trkpt lat="-27.4442464672" lon="152.8968239017"><ele>90.02</ele><time>2016-11-17T05:13:37Z</time></trkpt><trkpt lat="-27.4442679249" lon="152.8967886977"><ele>90.02</ele><time>2016-11-17T05:13:45Z</time></trkpt><trkpt lat="-27.4442856945" lon="152.8967404179"><ele>90.02</ele><time>2016-11-17T05:13:53Z</time></trkpt><trkpt lat="-27.4443344772" lon="152.8966705967"><ele>90.02</ele><time>2016-11-17T05:14:02Z</time></trkpt><trkpt lat="-27.4443416856" lon="152.8966206405"><ele>90.02</ele><time>2016-11-17T05:14:07Z</time></trkpt><trkpt lat="-27.4443501513" lon="152.8965290263"><ele>90.02</ele><time>2016-11-17T05:14:15Z</time></trkpt><trkpt lat="-27.4443504028" lon="152.8964524157"><ele>90.50</ele><time>2016-11-17T05:14:22Z</time></trkpt><trkpt lat="-27.4443453737" lon="152.8964203969"><ele>90.50</ele><time>2016-11-17T05:14:25Z</time></trkpt><trkpt lat="-27.4443447031" lon="152.8963741288"><ele>90.50</ele><time>2016-11-17T05:14:33Z</time></trkpt><trkpt lat="-27.4443426076" lon="152.8963753022"><ele>93.87</ele><time>2016-11-17T05:14:35Z</time></trkpt><trkpt lat="-27.4443283584" lon="152.8963281121"><ele>91.46</ele><time>2016-11-17T05:14:46Z</time></trkpt><trkpt lat="-27.4443051405" lon="152.8962672595"><ele>91.46</ele><time>2016-11-17T05:14:53Z</time></trkpt><trkpt lat="-27.4443010334" lon="152.8962213267"><ele>91.46</ele><time>2016-11-17T05:14:59Z</time></trkpt><trkpt lat="-27.4442702718" lon="152.8961931635"><ele>91.46</ele><time>2016-11-17T05:15:06Z</time></trkpt><trkpt lat="-27.4442696851" lon="152.8961968515"><ele>91.46</ele><time>2016-11-17T05:15:20Z</time></trkpt><trkpt lat="-27.4442944117" lon="152.8961845301"><ele>91.46</ele><time>2016-11-17T05:15:27Z</time></trkpt><trkpt lat="-27.4442939926" lon="152.8961651679"><ele>90.98</ele><time>2016-11-17T05:15:39Z</time></trkpt><trkpt lat="-27.4442852754" lon="152.8961583786"><ele>90.98</ele><time>2016-11-17T05:15:51Z</time></trkpt><trkpt lat="-27.4442815874" lon="152.8961554449"><ele>92.90</ele><time>2016-11-17T05:15:56Z</time></trkpt><trkpt lat="-27.4442949984" lon="152.8961969353"><ele>92.90</ele><time>2016-11-17T05:16:03Z</time></trkpt><trkpt lat="-27.4442856945" lon="152.8962225839"><ele>92.90</ele><time>2016-11-17T05:16:13Z</time></trkpt><trkpt lat="-27.4442960043" lon="152.8962958418"><ele>91.46</ele><time>2016-11-17T05:16:21Z</time></trkpt><trkpt lat="-27.4443095829" lon="152.8963415232"><ele>90.98</ele><time>2016-11-17T05:16:28Z</time></trkpt><trkpt lat="-27.4443227425" lon="152.8963548504"><ele>90.98</ele><time>2016-11-17T05:16:34Z</time></trkpt><trkpt lat="-27.4443228263" lon="152.8963812534"><ele>90.98</ele><time>2016-11-17T05:16:43Z</time></trkpt><trkpt lat="-27.4443332199" lon="152.8964011185"><ele>90.98</ele><time>2016-11-17T05:16:45Z</time></trkpt><trkpt lat="-27.4443573598" lon="152.8965170402"><ele>90.98</ele><time>2016-11-17T05:16:56Z</time></trkpt><trkpt lat="-27.4443579465" lon="152.8966054693"><ele>90.98</ele><time>2016-11-17T05:17:04Z</time></trkpt><trkpt lat="-27.4443353992" lon="152.8966685012"><ele>91.46</ele><time>2016-11-17T05:17:11Z</time></trkpt><trkpt lat="-27.4443053082" lon="152.8967109136"><ele>91.46</ele><time>2016-11-17T05:17:19Z</time></trkpt><trkpt lat="-27.4442714453" lon="152.8967338800"><ele>90.50</ele><time>2016-11-17T05:17:28Z</time></trkpt><trkpt lat="-27.4442719482" lon="152.8967721015"><ele>90.50</ele><time>2016-11-17T05:17:37Z</time></trkpt><trkpt lat="-27.4442506582" lon="152.8968464490"><ele>90.50</ele><time>2016-11-17T05:17:52Z</time></trkpt><trkpt lat="-27.4442433659" lon="152.8968886100"><ele>90.98</ele><time>2016-11-17T05:17:58Z</time></trkpt><trkpt lat="-27.4442356545" lon="152.8969283402"><ele>90.50</ele><time>2016-11-17T05:18:04Z</time></trkpt><trkpt lat="-27.4442597944" lon="152.8969420027"><ele>90.98</ele><time>2016-11-17T05:18:11Z</time></trkpt><trkpt lat="-27.4442651588" lon="152.8969509713"><ele>91.94</ele><time>2016-11-17T05:18:13Z</time></trkpt><trkpt lat="-27.4442696851" lon="152.8970087226"><ele>91.94</ele><time>2016-11-17T05:18:20Z</time></trkpt><trkpt lat="-27.4442761391" lon="152.8970238101"><ele>91.94</ele><time>2016-11-17T05:18:26Z</time></trkpt><trkpt lat="-27.4442980159" lon="152.8970644623"><ele>91.94</ele><time>2016-11-17T05:18:32Z</time></trkpt><trkpt lat="-27.4443234131" lon="152.8971116524"><ele>91.94</ele><time>2016-11-17T05:18:40Z</time></trkpt><trkpt lat="-27.4443545099" lon="152.8971268237"><ele>90.98</ele><time>2016-11-17T05:18:48Z</time></trkpt><trkpt lat="-27.4443754647" lon="152.8971177712"><ele>90.98</ele><time>2016-11-17T05:18:53Z</time></trkpt><trkpt lat="-27.4444111716" lon="152.8971230518"><ele>90.98</ele><time>2016-11-17T05:19:01Z</time></trkpt><trkpt lat="-27.4444213137" lon="152.8971057013"><ele>90.98</ele><time>2016-11-17T05:19:07Z</time></trkpt><trkpt lat="-27.4444486387" lon="152.8970918711"><ele>90.98</ele><time>2016-11-17T05:19:15Z</time></trkpt><trkpt lat="-27.4444829207" lon="152.8970979899"><ele>91.94</ele><time>2016-11-17T05:19:22Z</time></trkpt><trkpt lat="-27.4445073120" lon="152.8970593493"><ele>91.94</ele><time>2016-11-17T05:19:28Z</time></trkpt><trkpt lat="-27.4445411749" lon="152.8970475309"><ele>91.94</ele><time>2016-11-17T05:19:34Z</time></trkpt><trkpt lat="-27.4445545860" lon="152.8970183618"><ele>92.90</ele><time>2016-11-17T05:19:41Z</time></trkpt><trkpt lat="-27.4445574358" lon="152.8970161825"><ele>92.90</ele><time>2016-11-17T05:19:50Z</time></trkpt><trkpt lat="-27.4445834197" lon="152.8970047832"><ele>92.90</ele><time>2016-11-17T05:19:56Z</time></trkpt><trkpt lat="-27.4446348008" lon="152.8969680704"><ele>95.31</ele><time>2016-11-17T05:20:06Z</time></trkpt><trkpt lat="-27.4446780514" lon="152.8969404940"><ele>97.23</ele><time>2016-11-17T05:20:14Z</time></trkpt><trkpt lat="-27.4446904566" lon="152.8969222214"><ele>97.71</ele><time>2016-11-17T05:20:22Z</time></trkpt><trkpt lat="-27.4446777999" lon="152.8969322797"><ele>97.71</ele><time>2016-11-17T05:20:32Z</time></trkpt><trkpt lat="-27.4446451943" lon="152.8969599400"><ele>95.79</ele><time>2016-11-17T05:20:38Z</time></trkpt><trkpt lat="-27.4446222279" lon="152.8969852533"><ele>94.35</ele><time>2016-11-17T05:20:45Z</time></trkpt><trkpt lat="-27.4446032848" lon="152.8970014304"><ele>93.87</ele><time>2016-11-17T05:20:52Z</time></trkpt><trkpt lat="-27.4445896223" lon="152.8970272467"><ele>93.39</ele><time>2016-11-17T05:20:59Z</time></trkpt><trkpt lat="-27.4445780553" lon="152.8970317729"><ele>93.39</ele><time>2016-11-17T05:21:09Z</time></trkpt><trkpt lat="-27.4445768818" lon="152.8970402386"><ele>93.39</ele><time>2016-11-17T05:21:16Z</time></trkpt><trkpt lat="-27.4445747025" lon="152.8970394842"><ele>93.39</ele><time>2016-11-17T05:21:24Z</time></trkpt><trkpt lat="-27.4445617944" lon="152.8970421664"><ele>93.39</ele><time>2016-11-17T05:21:30Z</time></trkpt><trkpt lat="-27.4445500597" lon="152.8970487043"><ele>93.39</ele><time>2016-11-17T05:21:37Z</time></trkpt><trkpt lat="-27.4445547536" lon="152.8970618639"><ele>93.39</ele><time>2016-11-17T05:21:47Z</time></trkpt><trkpt lat="-27.4445361458" lon="152.8970865067"><ele>91.94</ele><time>2016-11-17T05:21:54Z</time></trkpt><trkpt lat="-27.4445351399" lon="152.8970903624"><ele>91.94</ele><time>2016-11-17T05:22:04Z</time></trkpt><trkpt lat="-27.4445397500" lon="152.8970829863"><ele>92.42</ele><time>2016-11-17T05:22:09Z</time></trkpt><trkpt lat="-27.4445082340" lon="152.8970700782"><ele>92.42</ele><time>2016-11-17T05:22:16Z</time></trkpt><trkpt lat="-27.4445021152" lon="152.8970566671"><ele>92.42</ele><time>2016-11-17T05:22:24Z</time></trkpt><trkpt lat="-27.4444598705" lon="152.8970710840"><ele>92.42</ele><time>2016-11-17T05:22:33Z</time></trkpt><trkpt lat="-27.4444481358" lon="152.8971213754"><ele>92.42</ele><time>2016-11-17T05:22:39Z</time></trkpt><trkpt lat="-27.4444378261" lon="152.8971297573"><ele>92.42</ele><time>2016-11-17T05:22:45Z</time></trkpt><trkpt lat="-27.4444185477" lon="152.8971483652"><ele>92.42</ele><time>2016-11-17T05:22:55Z</time></trkpt><trkpt lat="-27.4443814997" lon="152.8971492033"><ele>92.42</ele><time>2016-11-17T05:23:02Z</time></trkpt><trkpt lat="-27.4443435296" lon="152.8971373849"><ele>92.42</ele><time>2016-11-17T05:23:11Z</time></trkpt><trkpt lat="-27.4443262629" lon="152.8971616086"><ele>91.46</ele><time>2016-11-17T05:23:18Z</time></trkpt><trkpt lat="-27.4443127681" lon="152.8971491195"><ele>91.46</ele><time>2016-11-17T05:23:29Z</time></trkpt><trkpt lat="-27.4443129357" lon="152.8971196152"><ele>92.42</ele><time>2016-11-17T05:23:38Z</time></trkpt><trkpt lat="-27.4443436973" lon="152.8971217945"><ele>92.42</ele><time>2016-11-17T05:23:46Z</time></trkpt><trkpt lat="-27.4443193898" lon="152.8971095569"><ele>92.42</ele><time>2016-11-17T05:23:53Z</time></trkpt><trkpt lat="-27.4443205632" lon="152.8970937990"><ele>92.42</ele><time>2016-11-17T05:24:03Z</time></trkpt><trkpt lat="-27.4442984350" lon="152.8970754426"><ele>92.42</ele><time>2016-11-17T05:24:09Z</time></trkpt><trkpt lat="-27.4442778993" lon="152.8970458545"><ele>91.94</ele><time>2016-11-17T05:24:17Z</time></trkpt><trkpt lat="-27.4442604650" lon="152.8970434237"><ele>93.39</ele><time>2016-11-17T05:24:26Z</time></trkpt><trkpt lat="-27.4442534242" lon="152.8970465250"><ele>94.83</ele><time>2016-11-17T05:24:30Z</time></trkpt><trkpt lat="-27.4442499876" lon="152.8970404062"><ele>93.39</ele><time>2016-11-17T05:24:32Z</time></trkpt><trkpt lat="-27.4442551844" lon="152.8970102314"><ele>93.39</ele><time>2016-11-17T05:24:40Z</time></trkpt><trkpt lat="-27.4442369118" lon="152.8970539849"><ele>93.39</ele><time>2016-11-17T05:24:48Z</time></trkpt><trkpt lat="-27.4442286137" lon="152.8970655520"><ele>93.39</ele><time>2016-11-17T05:24:56Z</time></trkpt><trkpt lat="-27.4442615546" lon="152.8970331140"><ele>93.39</ele><time>2016-11-17T05:25:03Z</time></trkpt><trkpt lat="-27.4442775641" lon="152.8969614487"><ele>93.39</ele><time>2016-11-17T05:25:11Z</time></trkpt><trkpt lat="-27.4442652427" lon="152.8969219700"><ele>92.90</ele><time>2016-11-17T05:25:19Z</time></trkpt><trkpt lat="-27.4442355707" lon="152.8969298489"><ele>92.42</ele><time>2016-11-17T05:25:25Z</time></trkpt><trkpt lat="-27.4442138616" lon="152.8969745245"><ele>92.42</ele><time>2016-11-17T05:25:31Z</time></trkpt><trkpt lat="-27.4441843573" lon="152.8970349580"><ele>92.42</ele><time>2016-11-17T05:25:39Z</time></trkpt><trkpt lat="-27.4441723712" lon="152.8970628697"><ele>92.42</ele><time>2016-11-17T05:25:45Z</time></trkpt><trkpt lat="-27.4442012049" lon="152.8970544040"><ele>92.42</ele><time>2016-11-17T05:25:56Z</time></trkpt><trkpt lat="-27.4442083295" lon="152.8970602714"><ele>92.42</ele><time>2016-11-17T05:26:03Z</time></trkpt><trkpt lat="-27.4442302063" lon="152.8970569186"><ele>93.39</ele><time>2016-11-17T05:26:13Z</time></trkpt><trkpt lat="-27.4442666676" lon="152.8970410768"><ele>93.39</ele><time>2016-11-17T05:26:20Z</time></trkpt><trkpt lat="-27.4442672543" lon="152.8970624506"><ele>93.39</ele><time>2016-11-17T05:26:26Z</time></trkpt><trkpt lat="-27.4442958366" lon="152.8970675636"><ele>93.39</ele><time>2016-11-17T05:26:40Z</time></trkpt><trkpt lat="-27.4442603812" lon="152.8970707487"><ele>93.39</ele><time>2016-11-17T05:26:48Z</time></trkpt><trkpt lat="-27.4442209024" lon="152.8970932122"><ele>93.39</ele><time>2016-11-17T05:26:55Z</time></trkpt><trkpt lat="-27.4441684317" lon="152.8970998339"><ele>92.42</ele><time>2016-11-17T05:27:02Z</time></trkpt><trkpt lat="-27.4441387597" lon="152.8971266560"><ele>92.42</ele><time>2016-11-17T05:27:09Z</time></trkpt><trkpt lat="-27.4441302102" lon="152.8971303441"><ele>91.94</ele><time>2016-11-17T05:27:17Z</time></trkpt><trkpt lat="-27.4441138655" lon="152.8971086349"><ele>93.39</ele><time>2016-11-17T05:27:31Z</time></trkpt><trkpt lat="-27.4440794159" lon="152.8970761970"><ele>94.35</ele><time>2016-11-17T05:27:39Z</time></trkpt><trkpt lat="-27.4440512527" lon="152.8970203735"><ele>96.27</ele><time>2016-11-17T05:27:45Z</time></trkpt><trkpt lat="-27.4440081697" lon="152.8970010951"><ele>97.23</ele><time>2016-11-17T05:27:54Z</time></trkpt><trkpt lat="-27.4440186471" lon="152.8969855048"><ele>97.23</ele><time>2016-11-17T05:28:03Z</time></trkpt><trkpt lat="-27.4440010451" lon="152.8969556652"><ele>97.71</ele><time>2016-11-17T05:28:15Z</time></trkpt><trkpt lat="-27.4440001231" lon="152.8969755303"><ele>97.71</ele><time>2016-11-17T05:28:27Z</time></trkpt><trkpt lat="-27.4440002069" lon="152.8970054537"><ele>97.71</ele><time>2016-11-17T05:28:36Z</time></trkpt><trkpt lat="-27.4440152943" lon="152.8970217146"><ele>97.71</ele><time>2016-11-17T05:28:47Z</time></trkpt><trkpt lat="-27.4440209940" lon="152.8970373049"><ele>97.71</ele><time>2016-11-17T05:29:04Z</time></trkpt><trkpt lat="-27.4440044817" lon="152.8970318567"><ele>97.71</ele><time>2016-11-17T05:29:16Z</time></trkpt><trkpt lat="-27.4440027215" lon="152.8970508836"><ele>98.67</ele><time>2016-11-17T05:29:26Z</time></trkpt><trkpt lat="-27.4439727981" lon="152.8971320204"><ele>98.67</ele><time>2016-11-17T05:29:34Z</time></trkpt><trkpt lat="-27.4439634103" lon="152.8971564118"><ele>98.67</ele><time>2016-11-17T05:29:37Z</time></trkpt><trkpt lat="-27.4439693615" lon="152.8972656280"><ele>97.71</ele><time>2016-11-17T05:29:46Z</time></trkpt><trkpt lat="-27.4439614825" lon="152.8972911928"><ele>97.23</ele><time>2016-11-17T05:29:49Z</time></trkpt><trkpt lat="-27.4439400248" lon="152.8973603435"><ele>97.23</ele><time>2016-11-17T05:29:55Z</time></trkpt><trkpt lat="-27.4439247698" lon="152.8973909374"><ele>97.23</ele><time>2016-11-17T05:29:58Z</time></trkpt><trkpt lat="-27.4438880570" lon="152.8974636085"><ele>97.23</ele><time>2016-11-17T05:30:05Z</time></trkpt><trkpt lat="-27.4438872188" lon="152.8974745050"><ele>97.23</ele><time>2016-11-17T05:30:06Z</time></trkpt><trkpt lat="-27.4438776635" lon="152.8975609224"><ele>97.23</ele><time>2016-11-17T05:30:13Z</time></trkpt><trkpt lat="-27.4438760709" lon="152.8976379521"><ele>96.75</ele><time>2016-11-17T05:30:19Z</time></trkpt><trkpt lat="-27.4438738078" lon="152.8976926859"><ele>96.75</ele><time>2016-11-17T05:30:24Z</time></trkpt><trkpt lat="-27.4438743945" lon="152.8977634292"><ele>96.75</ele><time>2016-11-17T05:30:32Z</time></trkpt><trkpt lat="-27.4438696168" lon="152.8977783490"><ele>96.75</ele><time>2016-11-17T05:30:41Z</time></trkpt><trkpt lat="-27.4438611511" lon="152.8977892455"><ele>96.75</ele><time>2016-11-17T05:30:51Z</time></trkpt><trkpt lat="-27.4438681081" lon="152.8978187498"><ele>96.75</ele><time>2016-11-17T05:31:03Z</time></trkpt><trkpt lat="-27.4438770767" lon="152.8978417162"><ele>95.79</ele><time>2016-11-17T05:31:11Z</time></trkpt><trkpt lat="-27.4438937567" lon="152.8978635091"><ele>94.35</ele><time>2016-11-17T05:31:18Z</time></trkpt><trkpt lat="-27.4439028092" lon="152.8978941031"><ele>95.31</ele><time>2016-11-17T05:31:25Z</time></trkpt><trkpt lat="-27.4439105205" lon="152.8979216795"><ele>95.79</ele><time>2016-11-17T05:31:33Z</time></trkpt><trkpt lat="-27.4439126160" lon="152.8979451489"><ele>95.79</ele><time>2016-11-17T05:31:37Z</time></trkpt><trkpt lat="-27.4439088441" lon="152.8979794309"><ele>95.79</ele><time>2016-11-17T05:31:44Z</time></trkpt><trkpt lat="-27.4438940920" lon="152.8980613220"><ele>95.79</ele><time>2016-11-17T05:31:52Z</time></trkpt><trkpt lat="-27.4438644201" lon="152.8981080931"><ele>95.79</ele><time>2016-11-17T05:31:58Z</time></trkpt><trkpt lat="-27.4438361730" lon="152.8981716279"><ele>95.79</ele><time>2016-11-17T05:32:05Z</time></trkpt><trkpt lat="-27.4438274559" lon="152.8982530162"><ele>95.79</ele><time>2016-11-17T05:32:12Z</time></trkpt><trkpt lat="-27.4438234325" lon="152.8982617334"><ele>95.79</ele><time>2016-11-17T05:32:13Z</time></trkpt><trkpt lat="-27.4437900726" lon="152.8982886393"><ele>95.79</ele><time>2016-11-17T05:32:21Z</time></trkpt><trkpt lat="-27.4438227620" lon="152.8982565366"><ele>95.79</ele><time>2016-11-17T05:32:26Z</time></trkpt><trkpt lat="-27.4439042341" lon="152.8982785810"><ele>92.90</ele><time>2016-11-17T05:32:34Z</time></trkpt><trkpt lat="-27.4439604767" lon="152.8982986975"><ele>90.98</ele><time>2016-11-17T05:32:41Z</time></trkpt><trkpt lat="-27.4439893942" lon="152.8983063251"><ele>90.50</ele><time>2016-11-17T05:32:48Z</time></trkpt><trkpt lat="-27.4439759832" lon="152.8983028885"><ele>90.02</ele><time>2016-11-17T05:33:02Z</time></trkpt><trkpt lat="-27.4439816829" lon="152.8983183112"><ele>92.42</ele><time>2016-11-17T05:33:18Z</time></trkpt><trkpt lat="-27.4439856224" lon="152.8983200714"><ele>90.98</ele><time>2016-11-17T05:33:19Z</time></trkpt><trkpt lat="-27.4439842813" lon="152.8983194008"><ele>89.06</ele><time>2016-11-17T05:33:21Z</time></trkpt><trkpt lat="-27.4439826049" lon="152.8983159643"><ele>90.98</ele><time>2016-11-17T05:33:24Z</time></trkpt><trkpt lat="-27.4439671822" lon="152.8982649185"><ele>90.02</ele><time>2016-11-17T05:33:35Z</time></trkpt><trkpt lat="-27.4439612310" lon="152.8982616495"><ele>90.02</ele><time>2016-11-17T05:33:47Z</time></trkpt><trkpt lat="-27.4439439643" lon="152.8982715402"><ele>90.02</ele><time>2016-11-17T05:34:06Z</time></trkpt><trkpt lat="-27.4439421203" lon="152.8982562013"><ele>90.02</ele><time>2016-11-17T05:34:27Z</time></trkpt><trkpt lat="-27.4439200759" lon="152.8982460592"><ele>90.50</ele><time>2016-11-17T05:34:46Z</time></trkpt><trkpt lat="-27.4439423718" lon="152.8982610628"><ele>90.50</ele><time>2016-11-17T05:35:02Z</time></trkpt><trkpt lat="-27.4439643323" lon="152.8982729651"><ele>90.50</ele><time>2016-11-17T05:35:16Z</time></trkpt><trkpt lat="-27.4439713731" lon="152.8982536029"><ele>90.50</ele><time>2016-11-17T05:35:32Z</time></trkpt><trkpt lat="-27.4439706188" lon="152.8982510045"><ele>90.98</ele><time>2016-11-17T05:35:48Z</time></trkpt><trkpt lat="-27.4439689424" lon="152.8982521780"><ele>90.98</ele><time>2016-11-17T05:36:03Z</time></trkpt><trkpt lat="-27.4439976923" lon="152.8982505854"><ele>90.98</ele><time>2016-11-17T05:36:19Z</time></trkpt><trkpt lat="-27.4439705350" lon="152.8982546087"><ele>91.46</ele><time>2016-11-17T05:36:36Z</time></trkpt><trkpt lat="-27.4439670984" lon="152.8982505854"><ele>91.46</ele><time>2016-11-17T05:36:48Z</time></trkpt><trkpt lat="-27.4439558666" lon="152.8982458916"><ele>91.46</ele><time>2016-11-17T05:36:59Z</time></trkpt><trkpt lat="-27.4439120293" lon="152.8982341569"><ele>91.94</ele><time>2016-11-17T05:37:18Z</time></trkpt><trkpt lat="-27.4439602252" lon="152.8982667625"><ele>91.94</ele><time>2016-11-17T05:37:31Z</time></trkpt><trkpt lat="-27.4439720437" lon="152.8982681874"><ele>94.35</ele><time>2016-11-17T05:37:34Z</time></trkpt><trkpt lat="-27.4439875502" lon="152.8982680198"><ele>93.39</ele><time>2016-11-17T05:37:43Z</time></trkpt><trkpt lat="-27.4439959321" lon="152.8982474003"><ele>93.87</ele><time>2016-11-17T05:37:54Z</time></trkpt><trkpt lat="-27.4440031406" lon="152.8982438799"><ele>92.42</ele><time>2016-11-17T05:37:59Z</time></trkpt><trkpt lat="-27.4439965189" lon="152.8982459754"><ele>93.39</ele><time>2016-11-17T05:38:12Z</time></trkpt><trkpt lat="-27.4439838622" lon="152.8982431255"><ele>94.35</ele><time>2016-11-17T05:38:29Z</time></trkpt><trkpt lat="-27.4439838622" lon="152.8982846159"><ele>94.35</ele><time>2016-11-17T05:38:43Z</time></trkpt><trkpt lat="-27.4439870473" lon="152.8983028047"><ele>94.35</ele><time>2016-11-17T05:38:52Z</time></trkpt><trkpt lat="-27.4440366682" lon="152.8982737195"><ele>94.83</ele><time>2016-11-17T05:39:10Z</time></trkpt><trkpt lat="-27.4440570362" lon="152.8982793353"><ele>94.83</ele><time>2016-11-17T05:39:25Z</time></trkpt><trkpt lat="-27.4440711178" lon="152.8982513398"><ele>94.83</ele><time>2016-11-17T05:39:41Z</time></trkpt><trkpt lat="-27.4440584611" lon="152.8982377611"><ele>95.31</ele><time>2016-11-17T05:39:59Z</time></trkpt><trkpt lat="-27.4440624006" lon="152.8982284572"><ele>93.87</ele><time>2016-11-17T05:40:16Z</time></trkpt><trkpt lat="-27.4440601375" lon="152.8982572909"><ele>93.87</ele><time>2016-11-17T05:40:31Z</time></trkpt><trkpt lat="-27.4440691900" lon="152.8982432932"><ele>93.87</ele><time>2016-11-17T05:40:46Z</time></trkpt><trkpt lat="-27.4441013765" lon="152.8982554469"><ele>94.35</ele><time>2016-11-17T05:41:05Z</time></trkpt><trkpt lat="-27.4440989457" lon="152.8982660081"><ele>94.35</ele><time>2016-11-17T05:41:22Z</time></trkpt><trkpt lat="-27.4440846127" lon="152.8982495796"><ele>94.35</ele><time>2016-11-17T05:41:34Z</time></trkpt><trkpt lat="-27.4440648314" lon="152.8982356656"><ele>95.79</ele><time>2016-11-17T05:41:46Z</time></trkpt><trkpt lat="-27.4440560304" lon="152.8982486576"><ele>95.79</ele><time>2016-11-17T05:41:54Z</time></trkpt><trkpt lat="-27.4439955968" lon="152.8982554469"><ele>96.27</ele><time>2016-11-17T05:42:01Z</time></trkpt><trkpt lat="-27.4439600576" lon="152.8982534353"><ele>98.67</ele><time>2016-11-17T05:42:10Z</time></trkpt><trkpt lat="-27.4439476524" lon="152.8982560337"><ele>98.67</ele><time>2016-11-17T05:42:11Z</time></trkpt><trkpt lat="-27.4438673537" lon="152.8982887231"><ele>99.15</ele><time>2016-11-17T05:42:19Z</time></trkpt><trkpt lat="-27.4438049924" lon="152.8983207420"><ele>101.08</ele><time>2016-11-17T05:42:28Z</time></trkpt><trkpt lat="-27.4437462352" lon="152.8983137012"><ele>101.56</ele><time>2016-11-17T05:42:35Z</time></trkpt><trkpt lat="-27.4437183235" lon="152.8983094264"><ele>101.56</ele><time>2016-11-17T05:42:38Z</time></trkpt><trkpt lat="-27.4436313193" lon="152.8982883878"><ele>102.52</ele><time>2016-11-17T05:42:46Z</time></trkpt><trkpt lat="-27.4435940199" lon="152.8982640803"><ele>102.52</ele><time>2016-11-17T05:42:54Z</time></trkpt><trkpt lat="-27.4435659405" lon="152.8982389346"><ele>102.52</ele><time>2016-11-17T05:43:02Z</time></trkpt><trkpt lat="-27.4435453210" lon="152.8982367553"><ele>103.00</ele><time>2016-11-17T05:43:04Z</time></trkpt><trkpt lat="-27.4434806127" lon="152.8981867991"><ele>104.92</ele><time>2016-11-17T05:43:12Z</time></trkpt><trkpt lat="-27.4434023257" lon="152.8981546964"><ele>105.88</ele><time>2016-11-17T05:43:21Z</time></trkpt><trkpt lat="-27.4433666188" lon="152.8981075902"><ele>107.32</ele><time>2016-11-17T05:43:28Z</time></trkpt><trkpt lat="-27.4433155730" lon="152.8981013875"><ele>108.29</ele><time>2016-11-17T05:43:37Z</time></trkpt><trkpt lat="-27.4432708975" lon="152.8980894014"><ele>108.29</ele><time>2016-11-17T05:43:47Z</time></trkpt><trkpt lat="-27.4432102125" lon="152.8980407864"><ele>109.73</ele><time>2016-11-17T05:43:55Z</time></trkpt><trkpt lat="-27.4431361165" lon="152.8979997989"><ele>110.69</ele><time>2016-11-17T05:44:04Z</time></trkpt><trkpt lat="-27.4430689774" lon="152.8979687020"><ele>111.65</ele><time>2016-11-17T05:44:12Z</time></trkpt><trkpt lat="-27.4429934565" lon="152.8979578894"><ele>113.09</ele><time>2016-11-17T05:44:21Z</time></trkpt><trkpt lat="-27.4429357890" lon="152.8979443107"><ele>114.53</ele><time>2016-11-17T05:44:28Z</time></trkpt><trkpt lat="-27.4428890180" lon="152.8979158122"><ele>115.50</ele><time>2016-11-17T05:44:36Z</time></trkpt><trkpt lat="-27.4428393971" lon="152.8979062568"><ele>116.94</ele><time>2016-11-17T05:44:43Z</time></trkpt><trkpt lat="-27.4428104796" lon="152.8978996351"><ele>117.42</ele><time>2016-11-17T05:44:50Z</time></trkpt><trkpt lat="-27.4427770358" lon="152.8979043290"><ele>117.90</ele><time>2016-11-17T05:45:00Z</time></trkpt><trkpt lat="-27.4427239783" lon="152.8978950251"><ele>119.34</ele><time>2016-11-17T05:45:07Z</time></trkpt><trkpt lat="-27.4426651374" lon="152.8978827875"><ele>120.78</ele><time>2016-11-17T05:45:16Z</time></trkpt><trkpt lat="-27.4426445179" lon="152.8978921752"><ele>121.74</ele><time>2016-11-17T05:45:24Z</time></trkpt><trkpt lat="-27.4426123314" lon="152.8978975397"><ele>122.71</ele><time>2016-11-17T05:45:33Z</time></trkpt><trkpt lat="-27.4425633810" lon="152.8978919238"><ele>124.15</ele><time>2016-11-17T05:45:40Z</time></trkpt><trkpt lat="-27.4425097369" lon="152.8978801891"><ele>125.59</ele><time>2016-11-17T05:45:47Z</time></trkpt><trkpt lat="-27.4424595293" lon="152.8978671972"><ele>127.03</ele><time>2016-11-17T05:45:55Z</time></trkpt><trkpt lat="-27.4423993472" lon="152.8978548758"><ele>129.43</ele><time>2016-11-17T05:46:05Z</time></trkpt><trkpt lat="-27.4424142670" lon="152.8978191689"><ele>129.43</ele><time>2016-11-17T05:46:11Z</time></trkpt><trkpt lat="-27.4424161948" lon="152.8978138044"><ele>129.43</ele><time>2016-11-17T05:46:18Z</time></trkpt><trkpt lat="-27.4424459506" lon="152.8978267964"><ele>131.36</ele><time>2016-11-17T05:46:35Z</time></trkpt><trkpt lat="-27.4424431007" lon="152.8978265449"><ele>127.99</ele><time>2016-11-17T05:46:37Z</time></trkpt><trkpt lat="-27.4424425978" lon="152.8978272155"><ele>127.99</ele><time>2016-11-17T05:46:38Z</time></trkpt><trkpt lat="-27.4424229842" lon="152.8978202585"><ele>127.99</ele><time>2016-11-17T05:46:54Z</time></trkpt><trkpt lat="-27.4424234033" lon="152.8978180792"><ele>129.43</ele><time>2016-11-17T05:47:02Z</time></trkpt><trkpt lat="-27.4424342997" lon="152.8978088591"><ele>129.43</ele><time>2016-11-17T05:47:16Z</time></trkpt><trkpt lat="-27.4424285162" lon="152.8977842163"><ele>129.43</ele><time>2016-11-17T05:47:31Z</time></trkpt><trkpt lat="-27.4424224813" lon="152.8977979627"><ele>129.43</ele><time>2016-11-17T05:47:38Z</time></trkpt><trkpt lat="-27.4423561804" lon="152.8977938555"><ele>130.40</ele><time>2016-11-17T05:47:46Z</time></trkpt><trkpt lat="-27.4423104990" lon="152.8977773432"><ele>131.84</ele><time>2016-11-17T05:47:53Z</time></trkpt><trkpt lat="-27.4422626384" lon="152.8977657761"><ele>133.76</ele><time>2016-11-17T05:48:00Z</time></trkpt><trkpt lat="-27.4422173761" lon="152.8977594897"><ele>135.68</ele><time>2016-11-17T05:48:09Z</time></trkpt><trkpt lat="-27.4422227405" lon="152.8977247886"><ele>136.16</ele><time>2016-11-17T05:48:18Z</time></trkpt><trkpt lat="-27.4422201421" lon="152.8977259621"><ele>136.16</ele><time>2016-11-17T05:48:34Z</time></trkpt><trkpt lat="-27.4422179628" lon="152.8977200110"><ele>136.16</ele><time>2016-11-17T05:48:44Z</time></trkpt><trkpt lat="-27.4422254227" lon="152.8977134731"><ele>136.16</ele><time>2016-11-17T05:48:59Z</time></trkpt><trkpt lat="-27.4421790708" lon="152.8976977989"><ele>137.13</ele><time>2016-11-17T05:49:07Z</time></trkpt><trkpt lat="-27.4421499856" lon="152.8976943623"><ele>138.09</ele><time>2016-11-17T05:49:14Z</time></trkpt><trkpt lat="-27.4421123508" lon="152.8976767603"><ele>139.53</ele><time>2016-11-17T05:49:22Z</time></trkpt><trkpt lat="-27.4420660827" lon="152.8976394609"><ele>141.93</ele><time>2016-11-17T05:49:31Z</time></trkpt><trkpt lat="-27.4420420267" lon="152.8975996468"><ele>143.37</ele><time>2016-11-17T05:49:40Z</time></trkpt><trkpt lat="-27.4420348182" lon="152.8975983895"><ele>143.37</ele><time>2016-11-17T05:49:49Z</time></trkpt><trkpt lat="-27.4420316331" lon="152.8975746688"><ele>143.37</ele><time>2016-11-17T05:50:03Z</time></trkpt><trkpt lat="-27.4419872090" lon="152.8975680470"><ele>143.85</ele><time>2016-11-17T05:50:10Z</time></trkpt><trkpt lat="-27.4419458024" lon="152.8975574020"><ele>145.78</ele><time>2016-11-17T05:50:17Z</time></trkpt><trkpt lat="-27.4419048987" lon="152.8975454997"><ele>147.70</ele><time>2016-11-17T05:50:26Z</time></trkpt><trkpt lat="-27.4418689404" lon="152.8975392133"><ele>149.62</ele><time>2016-11-17T05:50:34Z</time></trkpt><trkpt lat="-27.4418302998" lon="152.8975369502"><ele>151.06</ele><time>2016-11-17T05:50:42Z</time></trkpt><trkpt lat="-27.4417985324" lon="152.8975202702"><ele>152.51</ele><time>2016-11-17T05:50:49Z</time></trkpt><trkpt lat="-27.4418104347" lon="152.8974988963"><ele>152.99</ele><time>2016-11-17T05:50:57Z</time></trkpt><trkpt lat="-27.4418137036" lon="152.8974941187"><ele>152.99</ele><time>2016-11-17T05:51:08Z</time></trkpt><trkpt lat="-27.4418057408" lon="152.8974976391"><ele>152.99</ele><time>2016-11-17T05:51:25Z</time></trkpt><trkpt lat="-27.4417862110" lon="152.8975050151"><ele>152.99</ele><time>2016-11-17T05:51:37Z</time></trkpt><trkpt lat="-27.4417517614" lon="152.8974859882"><ele>153.95</ele><time>2016-11-17T05:51:45Z</time></trkpt><trkpt lat="-27.4417231791" lon="152.8974592499"><ele>155.39</ele><time>2016-11-17T05:51:52Z</time></trkpt><trkpt lat="-27.4416863825" lon="152.8974439111"><ele>157.31</ele><time>2016-11-17T05:52:00Z</time></trkpt><trkpt lat="-27.4416561238" lon="152.8974198550"><ele>158.75</ele><time>2016-11-17T05:52:08Z</time></trkpt><trkpt lat="-27.4416527711" lon="152.8973769397"><ele>160.20</ele><time>2016-11-17T05:52:15Z</time></trkpt><trkpt lat="-27.4416412879" lon="152.8973473515"><ele>161.64</ele><time>2016-11-17T05:52:23Z</time></trkpt><trkpt lat="-27.4416210875" lon="152.8973284923"><ele>162.60</ele><time>2016-11-17T05:52:29Z</time></trkpt><trkpt lat="-27.4415961932" lon="152.8973024245"><ele>163.56</ele><time>2016-11-17T05:52:37Z</time></trkpt><trkpt lat="-27.4415763281" lon="152.8973015863"><ele>163.56</ele><time>2016-11-17T05:52:45Z</time></trkpt><trkpt lat="-27.4415253662" lon="152.8973231278"><ele>165.00</ele><time>2016-11-17T05:52:52Z</time></trkpt><trkpt lat="-27.4415066745" lon="152.8973965533"><ele>166.45</ele><time>2016-11-17T05:53:01Z</time></trkpt><trkpt lat="-27.4414530303" lon="152.8974806238"><ele>166.93</ele><time>2016-11-17T05:53:10Z</time></trkpt><trkpt lat="-27.4413908366" lon="152.8975387104"><ele>167.89</ele><time>2016-11-17T05:53:19Z</time></trkpt><trkpt lat="-27.4413335044" lon="152.8975906782"><ele>168.85</ele><time>2016-11-17T05:53:27Z</time></trkpt><trkpt lat="-27.4412632640" lon="152.8976536263"><ele>169.33</ele><time>2016-11-17T05:53:36Z</time></trkpt><trkpt lat="-27.4411913473" lon="152.8977108747"><ele>169.81</ele><time>2016-11-17T05:53:44Z</time></trkpt><trkpt lat="-27.4411035888" lon="152.8977875691"><ele>169.81</ele><time>2016-11-17T05:53:54Z</time></trkpt><trkpt lat="-27.4410165846" lon="152.8978649341"><ele>170.77</ele><time>2016-11-17T05:54:04Z</time></trkpt><trkpt lat="-27.4409430753" lon="152.8979238588"><ele>171.73</ele><time>2016-11-17T05:54:13Z</time></trkpt><trkpt lat="-27.4408545624" lon="152.8979609068"><ele>172.69</ele><time>2016-11-17T05:54:22Z</time></trkpt><trkpt lat="-27.4407438375" lon="152.8980022296"><ele>173.17</ele><time>2016-11-17T05:54:32Z</time></trkpt><trkpt lat="-27.4406559113" lon="152.8980405349"><ele>173.17</ele><time>2016-11-17T05:54:40Z</time></trkpt><trkpt lat="-27.4405601900" lon="152.8980702069"><ele>173.17</ele><time>2016-11-17T05:54:49Z</time></trkpt><trkpt lat="-27.4405294284" lon="152.8980817739"><ele>171.73</ele><time>2016-11-17T05:54:52Z</time></trkpt><trkpt lat="-27.4404841661" lon="152.8981030639"><ele>170.77</ele><time>2016-11-17T05:54:57Z</time></trkpt><trkpt lat="-27.4403959885" lon="152.8981753998"><ele>168.85</ele><time>2016-11-17T05:55:08Z</time></trkpt><trkpt lat="-27.4403242394" lon="152.8982373420"><ele>167.41</ele><time>2016-11-17T05:55:17Z</time></trkpt><trkpt lat="-27.4402316194" lon="152.8982892260"><ele>167.41</ele><time>2016-11-17T05:55:26Z</time></trkpt><trkpt lat="-27.4401270971" lon="152.8983221669"><ele>166.93</ele><time>2016-11-17T05:55:35Z</time></trkpt><trkpt lat="-27.4400346447" lon="152.8983505815"><ele>166.93</ele><time>2016-11-17T05:55:43Z</time></trkpt><trkpt lat="-27.4400120135" lon="152.8983577061"><ele>166.93</ele><time>2016-11-17T05:55:45Z</time></trkpt><trkpt lat="-27.4399364926" lon="152.8984305449"><ele>166.93</ele><time>2016-11-17T05:55:54Z</time></trkpt><trkpt lat="-27.4399014562" lon="152.8984816745"><ele>168.37</ele><time>2016-11-17T05:56:00Z</time></trkpt><trkpt lat="-27.4398720358" lon="152.8985120170"><ele>168.85</ele><time>2016-11-17T05:56:06Z</time></trkpt><trkpt lat="-27.4398551043" lon="152.8985265177"><ele>169.33</ele><time>2016-11-17T05:56:18Z</time></trkpt><trkpt lat="-27.4398421124" lon="152.8985777311"><ele>169.33</ele><time>2016-11-17T05:56:28Z</time></trkpt><trkpt lat="-27.4398307130" lon="152.8986400086"><ele>170.29</ele><time>2016-11-17T05:56:35Z</time></trkpt><trkpt lat="-27.4398045614" lon="152.8987121768"><ele>171.73</ele><time>2016-11-17T05:56:44Z</time></trkpt><trkpt lat="-27.4397970177" lon="152.8987708502"><ele>172.21</ele><time>2016-11-17T05:56:50Z</time></trkpt><trkpt lat="-27.4397857860" lon="152.8988347203"><ele>173.17</ele><time>2016-11-17T05:56:57Z</time></trkpt><trkpt lat="-27.4397719558" lon="152.8989156894"><ele>174.14</ele><time>2016-11-17T05:57:05Z</time></trkpt><trkpt lat="-27.4397497438" lon="152.8989981674"><ele>174.62</ele><time>2016-11-17T05:57:13Z</time></trkpt><trkpt lat="-27.4397431221" lon="152.8990216367"><ele>175.10</ele><time>2016-11-17T05:57:15Z</time></trkpt><trkpt lat="-27.4397075828" lon="152.8991203755"><ele>176.06</ele><time>2016-11-17T05:57:24Z</time></trkpt><trkpt lat="-27.4396946747" lon="152.8991825692"><ele>176.06</ele><time>2016-11-17T05:57:29Z</time></trkpt><trkpt lat="-27.4396811798" lon="152.8992018476"><ele>176.06</ele><time>2016-11-17T05:57:31Z</time></trkpt><trkpt lat="-27.4396419525" lon="152.8993017599"><ele>177.02</ele><time>2016-11-17T05:57:41Z</time></trkpt><trkpt lat="-27.4396264460" lon="152.8993734252"><ele>177.98</ele><time>2016-11-17T05:57:50Z</time></trkpt><trkpt lat="-27.4396440480" lon="152.8993589245"><ele>178.46</ele><time>2016-11-17T05:58:03Z</time></trkpt><trkpt lat="-27.4396325648" lon="152.8993548173"><ele>178.46</ele><time>2016-11-17T05:58:12Z</time></trkpt><trkpt lat="-27.4396348279" lon="152.8993760236"><ele>178.46</ele><time>2016-11-17T05:58:22Z</time></trkpt><trkpt lat="-27.4396402761" lon="152.8993960563"><ele>178.46</ele><time>2016-11-17T05:58:30Z</time></trkpt><trkpt lat="-27.4396229256" lon="152.8994248062"><ele>178.94</ele><time>2016-11-17T05:58:40Z</time></trkpt><trkpt lat="-27.4395774119" lon="152.8994975612"><ele>179.90</ele><time>2016-11-17T05:58:49Z</time></trkpt><trkpt lat="-27.4395469017" lon="152.8995636944"><ele>181.35</ele><time>2016-11-17T05:58:57Z</time></trkpt><trkpt lat="-27.4395198282" lon="152.8996263910"><ele>182.31</ele><time>2016-11-17T05:59:04Z</time></trkpt><trkpt lat="-27.4394880608" lon="152.8996775206"><ele>183.75</ele><time>2016-11-17T05:59:11Z</time></trkpt><trkpt lat="-27.4394493364" lon="152.8997505270"><ele>185.19</ele><time>2016-11-17T05:59:19Z</time></trkpt><trkpt lat="-27.4393885676" lon="152.8998026624"><ele>185.67</ele><time>2016-11-17T05:59:27Z</time></trkpt><trkpt lat="-27.4393331632" lon="152.8998124693"><ele>185.67</ele><time>2016-11-17T05:59:33Z</time></trkpt><trkpt lat="-27.4392238632" lon="152.8997625969"><ele>186.63</ele><time>2016-11-17T05:59:44Z</time></trkpt><trkpt lat="-27.4391637649" lon="152.8997059353"><ele>188.08</ele><time>2016-11-17T05:59:52Z</time></trkpt><trkpt lat="-27.4390801974" lon="152.8996448312"><ele>188.56</ele><time>2016-11-17T06:00:01Z</time></trkpt><trkpt lat="-27.4389774352" lon="152.8995967191"><ele>189.52</ele><time>2016-11-17T06:00:11Z</time></trkpt><trkpt lat="-27.4388678838" lon="152.8995393869"><ele>190.48</ele><time>2016-11-17T06:00:22Z</time></trkpt><trkpt lat="-27.4388460070" lon="152.8995287418"><ele>190.48</ele><time>2016-11-17T06:00:25Z</time></trkpt><trkpt lat="-27.4387300853" lon="152.8995174263"><ele>190.48</ele><time>2016-11-17T06:00:35Z</time></trkpt><trkpt lat="-27.4386194441" lon="152.8995155822"><ele>190.48</ele><time>2016-11-17T06:00:44Z</time></trkpt><trkpt lat="-27.4386060331" lon="152.8995119780"><ele>190.48</ele><time>2016-11-17T06:00:45Z</time></trkpt><trkpt lat="-27.4385238066" lon="152.8995069489"><ele>189.04</ele><time>2016-11-17T06:00:52Z</time></trkpt><trkpt lat="-27.4384364672" lon="152.8994901013"><ele>188.56</ele><time>2016-11-17T06:01:00Z</time></trkpt><trkpt lat="-27.4383780453" lon="152.8994675539"><ele>188.56</ele><time>2016-11-17T06:01:05Z</time></trkpt><trkpt lat="-27.4382441863" lon="152.8994634468"><ele>188.08</ele><time>2016-11-17T06:01:16Z</time></trkpt><trkpt lat="-27.4381623790" lon="152.8994423244"><ele>188.08</ele><time>2016-11-17T06:01:23Z</time></trkpt><trkpt lat="-27.4380685017" lon="152.8994476888"><ele>188.08</ele><time>2016-11-17T06:01:31Z</time></trkpt><trkpt lat="-27.4379913043" lon="152.8994575795"><ele>190.00</ele><time>2016-11-17T06:01:39Z</time></trkpt><trkpt lat="-27.4379159510" lon="152.8994709905"><ele>190.48</ele><time>2016-11-17T06:01:46Z</time></trkpt><trkpt lat="-27.4378028791" lon="152.8994746786"><ele>191.44</ele><time>2016-11-17T06:01:56Z</time></trkpt><trkpt lat="-27.4376900587" lon="152.8994861618"><ele>191.92</ele><time>2016-11-17T06:02:07Z</time></trkpt><trkpt lat="-27.4376163818" lon="152.8995163366"><ele>192.40</ele><time>2016-11-17T06:02:15Z</time></trkpt><trkpt lat="-27.4375212472" lon="152.8995501157"><ele>192.40</ele><time>2016-11-17T06:02:23Z</time></trkpt><trkpt lat="-27.4374133721" lon="152.8995741718"><ele>192.40</ele><time>2016-11-17T06:02:32Z</time></trkpt><trkpt lat="-27.4373144656" lon="152.8995931987"><ele>191.44</ele><time>2016-11-17T06:02:41Z</time></trkpt><trkpt lat="-27.4372157268" lon="152.8996356111"><ele>190.96</ele><time>2016-11-17T06:02:50Z</time></trkpt><trkpt lat="-27.4371221848" lon="152.8996414784"><ele>190.00</ele><time>2016-11-17T06:02:58Z</time></trkpt><trkpt lat="-27.4370191712" lon="152.8996377904"><ele>190.00</ele><time>2016-11-17T06:03:08Z</time></trkpt><trkpt lat="-27.4369369447" lon="152.8996112198"><ele>190.00</ele><time>2016-11-17T06:03:16Z</time></trkpt><trkpt lat="-27.4368308298" lon="152.8995771892"><ele>190.00</ele><time>2016-11-17T06:03:26Z</time></trkpt><trkpt lat="-27.4368083663" lon="152.8995756805"><ele>191.44</ele><time>2016-11-17T06:03:28Z</time></trkpt><trkpt lat="-27.4367103819" lon="152.8995880857"><ele>192.88</ele><time>2016-11-17T06:03:38Z</time></trkpt><trkpt lat="-27.4366664607" lon="152.8995982278"><ele>193.84</ele><time>2016-11-17T06:03:42Z</time></trkpt><trkpt lat="-27.4365673866" lon="152.8996327613"><ele>194.32</ele><time>2016-11-17T06:03:51Z</time></trkpt><trkpt lat="-27.4364935420" lon="152.8996759281"><ele>195.77</ele><time>2016-11-17T06:04:00Z</time></trkpt><trkpt lat="-27.4364842381" lon="152.8996827174"><ele>196.25</ele><time>2016-11-17T06:04:09Z</time></trkpt><trkpt lat="-27.4364343658" lon="152.8997280635"><ele>196.73</ele><time>2016-11-17T06:04:16Z</time></trkpt><trkpt lat="-27.4363497924" lon="152.8997880779"><ele>197.69</ele><time>2016-11-17T06:04:25Z</time></trkpt><trkpt lat="-27.4362478685" lon="152.8998577315"><ele>199.13</ele><time>2016-11-17T06:04:36Z</time></trkpt><trkpt lat="-27.4361696653" lon="152.8998951148"><ele>200.09</ele><time>2016-11-17T06:04:44Z</time></trkpt><trkpt lat="-27.4360705912" lon="152.8999323305"><ele>201.05</ele><time>2016-11-17T06:04:53Z</time></trkpt><trkpt lat="-27.4359714333" lon="152.8999583982"><ele>201.05</ele><time>2016-11-17T06:05:01Z</time></trkpt><trkpt lat="-27.4358735327" lon="152.8999827057"><ele>200.57</ele><time>2016-11-17T06:05:09Z</time></trkpt><trkpt lat="-27.4357669149" lon="152.9000185803"><ele>200.57</ele><time>2016-11-17T06:05:18Z</time></trkpt><trkpt lat="-27.4356615543" lon="152.9000797682"><ele>201.05</ele><time>2016-11-17T06:05:28Z</time></trkpt><trkpt lat="-27.4355742987" lon="152.9001295567"><ele>201.05</ele><time>2016-11-17T06:05:38Z</time></trkpt><trkpt lat="-27.4354551919" lon="152.9001999646"><ele>201.05</ele><time>2016-11-17T06:05:49Z</time></trkpt><trkpt lat="-27.4353704508" lon="152.9002731387"><ele>201.05</ele><time>2016-11-17T06:05:58Z</time></trkpt><trkpt lat="-27.4353049044" lon="152.9003336560"><ele>201.05</ele><time>2016-11-17T06:06:06Z</time></trkpt><trkpt lat="-27.4352963548" lon="152.9003396910"><ele>201.53</ele><time>2016-11-17T06:06:07Z</time></trkpt><trkpt lat="-27.4352263659" lon="152.9004073329"><ele>202.01</ele><time>2016-11-17T06:06:15Z</time></trkpt><trkpt lat="-27.4351444747" lon="152.9004732147"><ele>202.49</ele><time>2016-11-17T06:06:23Z</time></trkpt><trkpt lat="-27.4351352546" lon="152.9004821833"><ele>202.49</ele><time>2016-11-17T06:06:31Z</time></trkpt><trkpt lat="-27.4351124559" lon="152.9005160462"><ele>202.98</ele><time>2016-11-17T06:06:39Z</time></trkpt><trkpt lat="-27.4350921717" lon="152.9005310498"><ele>202.98</ele><time>2016-11-17T06:06:41Z</time></trkpt><trkpt lat="-27.4350169860" lon="152.9006085824"><ele>202.98</ele><time>2016-11-17T06:06:50Z</time></trkpt><trkpt lat="-27.4349995516" lon="152.9006294534"><ele>203.94</ele><time>2016-11-17T06:06:54Z</time></trkpt><trkpt lat="-27.4349801894" lon="152.9006476421"><ele>203.94</ele><time>2016-11-17T06:07:03Z</time></trkpt><trkpt lat="-27.4349842127" lon="152.9006402660"><ele>204.42</ele><time>2016-11-17T06:07:14Z</time></trkpt><trkpt lat="-27.4349934328" lon="152.9006353207"><ele>204.42</ele><time>2016-11-17T06:07:30Z</time></trkpt><trkpt lat="-27.4349910021" lon="152.9006245080"><ele>204.42</ele><time>2016-11-17T06:07:43Z</time></trkpt><trkpt lat="-27.4349551275" lon="152.9006528389"><ele>204.42</ele><time>2016-11-17T06:07:52Z</time></trkpt><trkpt lat="-27.4348988011" lon="152.9007400107"><ele>205.86</ele><time>2016-11-17T06:08:01Z</time></trkpt><trkpt lat="-27.4348286446" lon="152.9008336365"><ele>207.30</ele><time>2016-11-17T06:08:11Z</time></trkpt><trkpt lat="-27.4347736593" lon="152.9008732829"><ele>208.26</ele><time>2016-11-17T06:08:17Z</time></trkpt><trkpt lat="-27.4347408023" lon="152.9008779768"><ele>208.74</ele><time>2016-11-17T06:08:25Z</time></trkpt><trkpt lat="-27.4346958753" lon="152.9008970037"><ele>209.22</ele><time>2016-11-17T06:08:35Z</time></trkpt><trkpt lat="-27.4345965497" lon="152.9009441938"><ele>210.67</ele><time>2016-11-17T06:08:46Z</time></trkpt><trkpt lat="-27.4345233757" lon="152.9009696748"><ele>212.11</ele><time>2016-11-17T06:08:55Z</time></trkpt><trkpt lat="-27.4344383832" lon="152.9010116681"><ele>213.55</ele><time>2016-11-17T06:09:04Z</time></trkpt><trkpt lat="-27.4343651254" lon="152.9010489676"><ele>214.99</ele><time>2016-11-17T06:09:13Z</time></trkpt><trkpt lat="-27.4343133252" lon="152.9010852613"><ele>215.95</ele><time>2016-11-17T06:09:21Z</time></trkpt><trkpt lat="-27.4342589267" lon="152.9011070542"><ele>216.43</ele><time>2016-11-17T06:09:28Z</time></trkpt><trkpt lat="-27.4342123233" lon="152.9011378158"><ele>217.88</ele><time>2016-11-17T06:09:35Z</time></trkpt><trkpt lat="-27.4341699947" lon="152.9011576809"><ele>218.36</ele><time>2016-11-17T06:09:42Z</time></trkpt><trkpt lat="-27.4341473635" lon="152.9011779651"><ele>218.36</ele><time>2016-11-17T06:09:54Z</time></trkpt><trkpt lat="-27.4340935517" lon="152.9012036975"><ele>219.80</ele><time>2016-11-17T06:10:01Z</time></trkpt><trkpt lat="-27.4340240657" lon="152.9012420028"><ele>220.76</ele><time>2016-11-17T06:10:10Z</time></trkpt><trkpt lat="-27.4339733552" lon="152.9012615327"><ele>221.72</ele><time>2016-11-17T06:10:18Z</time></trkpt><trkpt lat="-27.4339165259" lon="152.9012962338"><ele>222.20</ele><time>2016-11-17T06:10:26Z</time></trkpt><trkpt lat="-27.4338728562" lon="152.9013247322"><ele>222.68</ele><time>2016-11-17T06:10:36Z</time></trkpt><trkpt lat="-27.4338113330" lon="152.9013598524"><ele>223.64</ele><time>2016-11-17T06:10:44Z</time></trkpt><trkpt lat="-27.4337308668" lon="152.9013932124"><ele>224.12</ele><time>2016-11-17T06:10:53Z</time></trkpt><trkpt lat="-27.4336789828" lon="152.9013968166"><ele>224.12</ele><time>2016-11-17T06:11:01Z</time></trkpt><trkpt lat="-27.4336313736" lon="152.9013887700"><ele>224.61</ele><time>2016-11-17T06:11:10Z</time></trkpt><trkpt lat="-27.4335756339" lon="152.9013632052"><ele>225.09</ele><time>2016-11-17T06:11:17Z</time></trkpt><trkpt lat="-27.4335107580" lon="152.9013491236"><ele>226.53</ele><time>2016-11-17T06:11:24Z</time></trkpt><trkpt lat="-27.4334151205" lon="152.9013176076"><ele>227.01</ele><time>2016-11-17T06:11:33Z</time></trkpt><trkpt lat="-27.4333236739" lon="152.9012947250"><ele>227.49</ele><time>2016-11-17T06:11:41Z</time></trkpt><trkpt lat="-27.4332421180" lon="152.9012755305"><ele>228.45</ele><time>2016-11-17T06:11:49Z</time></trkpt><trkpt lat="-27.4331696145" lon="152.9012450203"><ele>229.41</ele><time>2016-11-17T06:11:57Z</time></trkpt><trkpt lat="-27.4330993742" lon="152.9012336209"><ele>230.85</ele><time>2016-11-17T06:12:05Z</time></trkpt><trkpt lat="-27.4330491666" lon="152.9011952318"><ele>230.85</ele><time>2016-11-17T06:12:12Z</time></trkpt><trkpt lat="-27.4330010545" lon="152.9011386540"><ele>230.37</ele><time>2016-11-17T06:12:20Z</time></trkpt><trkpt lat="-27.4329168163" lon="152.9010751192"><ele>229.41</ele><time>2016-11-17T06:12:30Z</time></trkpt><trkpt lat="-27.4329128768" lon="152.9010829981"><ele>229.41</ele><time>2016-11-17T06:12:40Z</time></trkpt><trkpt lat="-27.4329048302" lon="152.9010719340"><ele>228.93</ele><time>2016-11-17T06:12:52Z</time></trkpt><trkpt lat="-27.4328251183" lon="152.9010104947"><ele>227.97</ele><time>2016-11-17T06:13:01Z</time></trkpt><trkpt lat="-27.4327576440" lon="152.9009445291"><ele>227.01</ele><time>2016-11-17T06:13:10Z</time></trkpt><trkpt lat="-27.4326750822" lon="152.9008579440"><ele>226.05</ele><time>2016-11-17T06:13:20Z</time></trkpt><trkpt lat="-27.4325910956" lon="152.9007712752"><ele>224.61</ele><time>2016-11-17T06:13:30Z</time></trkpt><trkpt lat="-27.4325256329" lon="152.9006828461"><ele>223.16</ele><time>2016-11-17T06:13:39Z</time></trkpt><trkpt lat="-27.4324735813" lon="152.9005890526"><ele>222.68</ele><time>2016-11-17T06:13:48Z</time></trkpt><trkpt lat="-27.4324207753" lon="152.9004991148"><ele>222.68</ele><time>2016-11-17T06:13:57Z</time></trkpt><trkpt lat="-27.4323795363" lon="152.9004083388"><ele>222.20</ele><time>2016-11-17T06:14:05Z</time></trkpt><trkpt lat="-27.4323174264" lon="152.9003155511"><ele>221.72</ele><time>2016-11-17T06:14:14Z</time></trkpt><trkpt lat="-27.4322577473" lon="152.9002236016"><ele>221.24</ele><time>2016-11-17T06:14:24Z</time></trkpt><trkpt lat="-27.4322493654" lon="152.9001867212"><ele>220.76</ele><time>2016-11-17T06:14:30Z</time></trkpt><trkpt lat="-27.4322499521" lon="152.9001811892"><ele>216.43</ele><time>2016-11-17T06:14:31Z</time></trkpt><trkpt lat="-27.4322506227" lon="152.9001779202"><ele>223.16</ele><time>2016-11-17T06:14:32Z</time></trkpt><trkpt lat="-27.4322536401" lon="152.9001751542"><ele>219.32</ele><time>2016-11-17T06:14:34Z</time></trkpt><trkpt lat="-27.4322545622" lon="152.9001723882"><ele>223.64</ele><time>2016-11-17T06:14:36Z</time></trkpt><trkpt lat="-27.4322497845" lon="152.9001671914"><ele>220.28</ele><time>2016-11-17T06:14:37Z</time></trkpt><trkpt lat="-27.4322464317" lon="152.9001764115"><ele>220.28</ele><time>2016-11-17T06:14:46Z</time></trkpt><trkpt lat="-27.4322496168" lon="152.9001917504"><ele>220.28</ele><time>2016-11-17T06:15:03Z</time></trkpt><trkpt lat="-27.4322602618" lon="152.9001885653"><ele>220.28</ele><time>2016-11-17T06:15:14Z</time></trkpt><trkpt lat="-27.4322425760" lon="152.9001959413"><ele>220.28</ele><time>2016-11-17T06:15:28Z</time></trkpt><trkpt lat="-27.4322196934" lon="152.9002087656"><ele>219.80</ele><time>2016-11-17T06:15:43Z</time></trkpt><trkpt lat="-27.4322194420" lon="152.9002298880"><ele>219.80</ele><time>2016-11-17T06:16:05Z</time></trkpt><trkpt lat="-27.4322164245" lon="152.9002426285"><ele>219.80</ele><time>2016-11-17T06:16:30Z</time></trkpt><trkpt lat="-27.4321976490" lon="152.9002518486"><ele>219.80</ele><time>2016-11-17T06:16:46Z</time></trkpt><trkpt lat="-27.4321958050" lon="152.9002650082"><ele>219.80</ele><time>2016-11-17T06:17:04Z</time></trkpt><trkpt lat="-27.4321930390" lon="152.9003127012"><ele>219.80</ele><time>2016-11-17T06:17:23Z</time></trkpt><trkpt lat="-27.4321999121" lon="152.9003014695"><ele>219.80</ele><time>2016-11-17T06:17:43Z</time></trkpt><trkpt lat="-27.4321977329" lon="152.9002750665"><ele>220.28</ele><time>2016-11-17T06:18:04Z</time></trkpt><trkpt lat="-27.4321840703" lon="152.9003193229"><ele>220.28</ele><time>2016-11-17T06:18:25Z</time></trkpt><trkpt lat="-27.4321913626" lon="152.9003200773"><ele>220.28</ele><time>2016-11-17T06:18:46Z</time></trkpt><trkpt lat="-27.4321894348" lon="152.9003202450"><ele>220.28</ele><time>2016-11-17T06:19:07Z</time></trkpt><trkpt lat="-27.4321915302" lon="152.9003359191"><ele>220.28</ele><time>2016-11-17T06:19:23Z</time></trkpt><trkpt lat="-27.4321680609" lon="152.9003241844"><ele>220.76</ele><time>2016-11-17T06:19:45Z</time></trkpt><trkpt lat="-27.4321645405" lon="152.9003348295"><ele>220.76</ele><time>2016-11-17T06:20:08Z</time></trkpt><trkpt lat="-27.4321637023" lon="152.9003194906"><ele>220.76</ele><time>2016-11-17T06:20:27Z</time></trkpt><trkpt lat="-27.4321873393" lon="152.9002389405"><ele>220.76</ele><time>2016-11-17T06:20:33Z</time></trkpt><trkpt lat="-27.4321696535" lon="152.9001614079"><ele>217.88</ele><time>2016-11-17T06:20:40Z</time></trkpt><trkpt lat="-27.4321658816" lon="152.9001561273"><ele>224.61</ele><time>2016-11-17T06:20:41Z</time></trkpt><trkpt lat="-27.4321590085" lon="152.9001568817"><ele>221.24</ele><time>2016-11-17T06:20:42Z</time></trkpt><trkpt lat="-27.4321461841" lon="152.9001655988"><ele>221.24</ele><time>2016-11-17T06:20:45Z</time></trkpt><trkpt lat="-27.4321450107" lon="152.9001785070"><ele>220.76</ele><time>2016-11-17T06:20:49Z</time></trkpt><trkpt lat="-27.4321427476" lon="152.9002294689"><ele>219.80</ele><time>2016-11-17T06:20:57Z</time></trkpt><trkpt lat="-27.4321445078" lon="152.9002676066"><ele>219.32</ele><time>2016-11-17T06:21:03Z</time></trkpt><trkpt lat="-27.4321612716" lon="152.9002782516"><ele>219.32</ele><time>2016-11-17T06:21:20Z</time></trkpt><trkpt lat="-27.4321606010" lon="152.9002656788"><ele>219.32</ele><time>2016-11-17T06:21:33Z</time></trkpt><trkpt lat="-27.4321426637" lon="152.9002510104"><ele>218.84</ele><time>2016-11-17T06:21:42Z</time></trkpt><trkpt lat="-27.4321145844" lon="152.9002264515"><ele>219.32</ele><time>2016-11-17T06:21:51Z</time></trkpt></trkseg><trkseg><trkpt lat="-27.2439274471" lon="153.0173572619"><ele>29.94</ele><time>2016-11-17T07:16:48Z</time></trkpt><trkpt lat="-27.2438850347" lon="153.0173985846"><ele>29.94</ele><time>2016-11-17T07:16:49Z</time></trkpt><trkpt lat="-27.2435960267" lon="153.0176955555"><ele>31.38</ele><time>2016-11-17T07:16:58Z</time></trkpt><trkpt lat="-27.2435492557" lon="153.0177623592"><ele>30.90</ele><time>2016-11-17T07:17:00Z</time></trkpt><trkpt lat="-27.2435319051" lon="153.0177639518"><ele>30.90</ele><time>2016-11-17T07:17:01Z</time></trkpt><trkpt lat="-27.2434666101" lon="153.0177789554"><ele>28.50</ele><time>2016-11-17T07:17:08Z</time></trkpt><trkpt lat="-27.2434702981" lon="153.0178186856"><ele>25.61</ele><time>2016-11-17T07:17:17Z</time></trkpt></trkseg></trk></gpx> |
